<?xml version="1.0" encoding="UTF-8" standalone="no" ?>
<gpx xmlns="http://www.topografix.com/GPX/1/1" xmlns:xsi="http://www.w3.org/2001/XMLSchema-instance" xsi:schemaLocation="http://www.topografix.com/GPX/1/1 http://www.topografix.com/GPX/1/1/gpx.xsd" version="1.1" creator="VisuGPX - https://www.visugpx.com">
  <metadata>
    <name>ValJoli-10nov19</name>
    <desc><![CDATA[Départ de la base du Lac de ValJoli .

Très belle rando . pas trop de plat ; pratiquement pas de route en bitume .

]]></desc>
  </metadata>
  <trk>
    <name><![CDATA[ValJoli-10nov19]]></name>
    <trkseg>
      <trkpt lat="50.11936" lon="4.13629">
        <ele>168.3</ele>
        <time>2019-11-10T09:45:01Z</time>
      </trkpt>
      <trkpt lat="50.11925" lon="4.13624">
        <ele>200.8</ele>
        <time>2019-11-10T09:45:02Z</time>
      </trkpt>
      <trkpt lat="50.1193" lon="4.13637">
        <ele>206.5</ele>
        <time>2019-11-10T09:46:06Z</time>
      </trkpt>
      <trkpt lat="50.11929" lon="4.13622">
        <ele>205.1</ele>
        <time>2019-11-10T09:46:32Z</time>
      </trkpt>
      <trkpt lat="50.11922" lon="4.13614">
        <ele>199.5</ele>
        <time>2019-11-10T09:46:45Z</time>
      </trkpt>
      <trkpt lat="50.11925" lon="4.136">
        <ele>197.2</ele>
        <time>2019-11-10T09:46:54Z</time>
      </trkpt>
      <trkpt lat="50.11929" lon="4.13585">
        <ele>196.5</ele>
        <time>2019-11-10T09:47:02Z</time>
      </trkpt>
      <trkpt lat="50.11933" lon="4.13571">
        <ele>196.5</ele>
        <time>2019-11-10T09:47:12Z</time>
      </trkpt>
      <trkpt lat="50.11939" lon="4.13559">
        <ele>196.2</ele>
        <time>2019-11-10T09:47:21Z</time>
      </trkpt>
      <trkpt lat="50.1194" lon="4.13544">
        <ele>195.2</ele>
        <time>2019-11-10T09:47:29Z</time>
      </trkpt>
      <trkpt lat="50.11937" lon="4.1353">
        <ele>193.9</ele>
        <time>2019-11-10T09:47:36Z</time>
      </trkpt>
      <trkpt lat="50.11934" lon="4.13514">
        <ele>192.9</ele>
        <time>2019-11-10T09:47:46Z</time>
      </trkpt>
      <trkpt lat="50.11933" lon="4.13499">
        <ele>193</ele>
        <time>2019-11-10T09:47:53Z</time>
      </trkpt>
      <trkpt lat="50.11937" lon="4.13485">
        <ele>192.6</ele>
        <time>2019-11-10T09:48:01Z</time>
      </trkpt>
      <trkpt lat="50.1194" lon="4.1347">
        <ele>192.5</ele>
        <time>2019-11-10T09:48:09Z</time>
      </trkpt>
      <trkpt lat="50.11944" lon="4.13456">
        <ele>192.1</ele>
        <time>2019-11-10T09:48:17Z</time>
      </trkpt>
      <trkpt lat="50.11947" lon="4.13441">
        <ele>190.5</ele>
        <time>2019-11-10T09:48:25Z</time>
      </trkpt>
      <trkpt lat="50.11952" lon="4.13429">
        <ele>190.2</ele>
        <time>2019-11-10T09:48:32Z</time>
      </trkpt>
      <trkpt lat="50.11956" lon="4.13416">
        <ele>188.6</ele>
        <time>2019-11-10T09:48:40Z</time>
      </trkpt>
      <trkpt lat="50.11957" lon="4.13402">
        <ele>187.5</ele>
        <time>2019-11-10T09:48:47Z</time>
      </trkpt>
      <trkpt lat="50.1196" lon="4.13387">
        <ele>186.2</ele>
        <time>2019-11-10T09:48:55Z</time>
      </trkpt>
      <trkpt lat="50.11964" lon="4.13374">
        <ele>185.1</ele>
        <time>2019-11-10T09:49:03Z</time>
      </trkpt>
      <trkpt lat="50.11968" lon="4.1336">
        <ele>183.9</ele>
        <time>2019-11-10T09:49:11Z</time>
      </trkpt>
      <trkpt lat="50.11971" lon="4.13347">
        <ele>183</ele>
        <time>2019-11-10T09:49:19Z</time>
      </trkpt>
      <trkpt lat="50.11969" lon="4.13333">
        <ele>182.3</ele>
        <time>2019-11-10T09:49:37Z</time>
      </trkpt>
      <trkpt lat="50.1197" lon="4.13317">
        <ele>180.7</ele>
        <time>2019-11-10T09:49:49Z</time>
      </trkpt>
      <trkpt lat="50.1197" lon="4.13302">
        <ele>178.7</ele>
        <time>2019-11-10T09:49:56Z</time>
      </trkpt>
      <trkpt lat="50.11967" lon="4.13288">
        <ele>177.2</ele>
        <time>2019-11-10T09:50:03Z</time>
      </trkpt>
      <trkpt lat="50.11969" lon="4.13272">
        <ele>177.4</ele>
        <time>2019-11-10T09:50:10Z</time>
      </trkpt>
      <trkpt lat="50.1197" lon="4.13256">
        <ele>177.5</ele>
        <time>2019-11-10T09:50:17Z</time>
      </trkpt>
      <trkpt lat="50.11971" lon="4.1324">
        <ele>177.4</ele>
        <time>2019-11-10T09:50:24Z</time>
      </trkpt>
      <trkpt lat="50.11972" lon="4.13226">
        <ele>177.4</ele>
        <time>2019-11-10T09:50:30Z</time>
      </trkpt>
      <trkpt lat="50.11972" lon="4.13211">
        <ele>177.4</ele>
        <time>2019-11-10T09:50:36Z</time>
      </trkpt>
      <trkpt lat="50.11973" lon="4.13197">
        <ele>177.5</ele>
        <time>2019-11-10T09:50:42Z</time>
      </trkpt>
      <trkpt lat="50.11974" lon="4.13181">
        <ele>178.4</ele>
        <time>2019-11-10T09:50:49Z</time>
      </trkpt>
      <trkpt lat="50.11978" lon="4.13165">
        <ele>178.4</ele>
        <time>2019-11-10T09:50:56Z</time>
      </trkpt>
      <trkpt lat="50.11984" lon="4.13154">
        <ele>179.1</ele>
        <time>2019-11-10T09:51:03Z</time>
      </trkpt>
      <trkpt lat="50.11993" lon="4.13148">
        <ele>179.9</ele>
        <time>2019-11-10T09:51:10Z</time>
      </trkpt>
      <trkpt lat="50.12001" lon="4.13143">
        <ele>180.4</ele>
        <time>2019-11-10T09:51:18Z</time>
      </trkpt>
      <trkpt lat="50.12008" lon="4.13131">
        <ele>181.2</ele>
        <time>2019-11-10T09:51:27Z</time>
      </trkpt>
      <trkpt lat="50.12013" lon="4.13117">
        <ele>181.6</ele>
        <time>2019-11-10T09:51:42Z</time>
      </trkpt>
      <trkpt lat="50.12018" lon="4.13104">
        <ele>181.3</ele>
        <time>2019-11-10T09:51:48Z</time>
      </trkpt>
      <trkpt lat="50.12024" lon="4.13093">
        <ele>181.2</ele>
        <time>2019-11-10T09:51:54Z</time>
      </trkpt>
      <trkpt lat="50.1203" lon="4.13079">
        <ele>181.4</ele>
        <time>2019-11-10T09:52:01Z</time>
      </trkpt>
      <trkpt lat="50.12037" lon="4.13068">
        <ele>180.7</ele>
        <time>2019-11-10T09:52:08Z</time>
      </trkpt>
      <trkpt lat="50.12044" lon="4.13058">
        <ele>180</ele>
        <time>2019-11-10T09:52:15Z</time>
      </trkpt>
      <trkpt lat="50.12053" lon="4.13051">
        <ele>179.5</ele>
        <time>2019-11-10T09:52:23Z</time>
      </trkpt>
      <trkpt lat="50.12062" lon="4.13046">
        <ele>179.1</ele>
        <time>2019-11-10T09:52:31Z</time>
      </trkpt>
      <trkpt lat="50.12072" lon="4.1304">
        <ele>179.1</ele>
        <time>2019-11-10T09:52:39Z</time>
      </trkpt>
      <trkpt lat="50.12077" lon="4.13028">
        <ele>178.5</ele>
        <time>2019-11-10T09:52:46Z</time>
      </trkpt>
      <trkpt lat="50.12081" lon="4.13014">
        <ele>178.4</ele>
        <time>2019-11-10T09:52:53Z</time>
      </trkpt>
      <trkpt lat="50.12087" lon="4.13">
        <ele>177.8</ele>
        <time>2019-11-10T09:53:00Z</time>
      </trkpt>
      <trkpt lat="50.12091" lon="4.12987">
        <ele>177.8</ele>
        <time>2019-11-10T09:53:07Z</time>
      </trkpt>
      <trkpt lat="50.12096" lon="4.12975">
        <ele>177.2</ele>
        <time>2019-11-10T09:53:14Z</time>
      </trkpt>
      <trkpt lat="50.12101" lon="4.12963">
        <ele>176.7</ele>
        <time>2019-11-10T09:53:21Z</time>
      </trkpt>
      <trkpt lat="50.12105" lon="4.12949">
        <ele>176.6</ele>
        <time>2019-11-10T09:53:28Z</time>
      </trkpt>
      <trkpt lat="50.1211" lon="4.12935">
        <ele>176.1</ele>
        <time>2019-11-10T09:53:36Z</time>
      </trkpt>
      <trkpt lat="50.12116" lon="4.12923">
        <ele>175.8</ele>
        <time>2019-11-10T09:53:43Z</time>
      </trkpt>
      <trkpt lat="50.12121" lon="4.12911">
        <ele>175.8</ele>
        <time>2019-11-10T09:53:50Z</time>
      </trkpt>
      <trkpt lat="50.12126" lon="4.12898">
        <ele>175.9</ele>
        <time>2019-11-10T09:53:57Z</time>
      </trkpt>
      <trkpt lat="50.12132" lon="4.12885">
        <ele>176.1</ele>
        <time>2019-11-10T09:54:05Z</time>
      </trkpt>
      <trkpt lat="50.12138" lon="4.12873">
        <ele>176.2</ele>
        <time>2019-11-10T09:54:13Z</time>
      </trkpt>
      <trkpt lat="50.12145" lon="4.12861">
        <ele>175.9</ele>
        <time>2019-11-10T09:54:21Z</time>
      </trkpt>
      <trkpt lat="50.1215" lon="4.12847">
        <ele>176.5</ele>
        <time>2019-11-10T09:54:28Z</time>
      </trkpt>
      <trkpt lat="50.12155" lon="4.12834">
        <ele>176.6</ele>
        <time>2019-11-10T09:54:36Z</time>
      </trkpt>
      <trkpt lat="50.12161" lon="4.12821">
        <ele>176.6</ele>
        <time>2019-11-10T09:54:43Z</time>
      </trkpt>
      <trkpt lat="50.12166" lon="4.12809">
        <ele>176.7</ele>
        <time>2019-11-10T09:54:50Z</time>
      </trkpt>
      <trkpt lat="50.12172" lon="4.12797">
        <ele>176.9</ele>
        <time>2019-11-10T09:54:57Z</time>
      </trkpt>
      <trkpt lat="50.12177" lon="4.12784">
        <ele>177</ele>
        <time>2019-11-10T09:55:05Z</time>
      </trkpt>
      <trkpt lat="50.12183" lon="4.12773">
        <ele>177</ele>
        <time>2019-11-10T09:55:13Z</time>
      </trkpt>
      <trkpt lat="50.12189" lon="4.12761">
        <ele>177.2</ele>
        <time>2019-11-10T09:55:22Z</time>
      </trkpt>
      <trkpt lat="50.12191" lon="4.12746">
        <ele>177.2</ele>
        <time>2019-11-10T09:55:30Z</time>
      </trkpt>
      <trkpt lat="50.12194" lon="4.12731">
        <ele>177.4</ele>
        <time>2019-11-10T09:55:37Z</time>
      </trkpt>
      <trkpt lat="50.12196" lon="4.12717">
        <ele>177.1</ele>
        <time>2019-11-10T09:55:44Z</time>
      </trkpt>
      <trkpt lat="50.122" lon="4.12705">
        <ele>177.6</ele>
        <time>2019-11-10T09:55:51Z</time>
      </trkpt>
      <trkpt lat="50.12203" lon="4.1269">
        <ele>177.9</ele>
        <time>2019-11-10T09:55:58Z</time>
      </trkpt>
      <trkpt lat="50.12203" lon="4.12675">
        <ele>178.1</ele>
        <time>2019-11-10T09:56:06Z</time>
      </trkpt>
      <trkpt lat="50.12206" lon="4.12661">
        <ele>178.5</ele>
        <time>2019-11-10T09:56:13Z</time>
      </trkpt>
      <trkpt lat="50.12208" lon="4.12648">
        <ele>179.1</ele>
        <time>2019-11-10T09:56:20Z</time>
      </trkpt>
      <trkpt lat="50.12209" lon="4.12633">
        <ele>179</ele>
        <time>2019-11-10T09:56:27Z</time>
      </trkpt>
      <trkpt lat="50.12211" lon="4.12619">
        <ele>178.8</ele>
        <time>2019-11-10T09:56:34Z</time>
      </trkpt>
      <trkpt lat="50.12212" lon="4.12603">
        <ele>178.8</ele>
        <time>2019-11-10T09:56:42Z</time>
      </trkpt>
      <trkpt lat="50.12211" lon="4.12588">
        <ele>178.4</ele>
        <time>2019-11-10T09:56:50Z</time>
      </trkpt>
      <trkpt lat="50.12211" lon="4.12572">
        <ele>177.6</ele>
        <time>2019-11-10T09:56:58Z</time>
      </trkpt>
      <trkpt lat="50.12212" lon="4.12558">
        <ele>177.4</ele>
        <time>2019-11-10T09:57:05Z</time>
      </trkpt>
      <trkpt lat="50.12215" lon="4.12544">
        <ele>177.1</ele>
        <time>2019-11-10T09:57:12Z</time>
      </trkpt>
      <trkpt lat="50.1222" lon="4.12531">
        <ele>176.7</ele>
        <time>2019-11-10T09:57:19Z</time>
      </trkpt>
      <trkpt lat="50.12223" lon="4.12516">
        <ele>176.5</ele>
        <time>2019-11-10T09:57:27Z</time>
      </trkpt>
      <trkpt lat="50.12223" lon="4.125">
        <ele>177</ele>
        <time>2019-11-10T09:57:34Z</time>
      </trkpt>
      <trkpt lat="50.12223" lon="4.12486">
        <ele>177.3</ele>
        <time>2019-11-10T09:57:41Z</time>
      </trkpt>
      <trkpt lat="50.12224" lon="4.12471">
        <ele>177.7</ele>
        <time>2019-11-10T09:57:49Z</time>
      </trkpt>
      <trkpt lat="50.12224" lon="4.12455">
        <ele>178</ele>
        <time>2019-11-10T09:57:57Z</time>
      </trkpt>
      <trkpt lat="50.12225" lon="4.12439">
        <ele>177.3</ele>
        <time>2019-11-10T09:58:04Z</time>
      </trkpt>
      <trkpt lat="50.12225" lon="4.12425">
        <ele>177.7</ele>
        <time>2019-11-10T09:58:11Z</time>
      </trkpt>
      <trkpt lat="50.12218" lon="4.12416">
        <ele>177.5</ele>
        <time>2019-11-10T09:58:18Z</time>
      </trkpt>
      <trkpt lat="50.12208" lon="4.1241">
        <ele>177.9</ele>
        <time>2019-11-10T09:58:25Z</time>
      </trkpt>
      <trkpt lat="50.12199" lon="4.12402">
        <ele>177.7</ele>
        <time>2019-11-10T09:58:32Z</time>
      </trkpt>
      <trkpt lat="50.12192" lon="4.12391">
        <ele>177.7</ele>
        <time>2019-11-10T09:58:39Z</time>
      </trkpt>
      <trkpt lat="50.12186" lon="4.12378">
        <ele>177.8</ele>
        <time>2019-11-10T09:58:46Z</time>
      </trkpt>
      <trkpt lat="50.12183" lon="4.12364">
        <ele>178.3</ele>
        <time>2019-11-10T09:58:53Z</time>
      </trkpt>
      <trkpt lat="50.12181" lon="4.1235">
        <ele>178.4</ele>
        <time>2019-11-10T09:59:00Z</time>
      </trkpt>
      <trkpt lat="50.12181" lon="4.12334">
        <ele>178.9</ele>
        <time>2019-11-10T09:59:08Z</time>
      </trkpt>
      <trkpt lat="50.12178" lon="4.1232">
        <ele>178.9</ele>
        <time>2019-11-10T09:59:15Z</time>
      </trkpt>
      <trkpt lat="50.12178" lon="4.12304">
        <ele>179.6</ele>
        <time>2019-11-10T09:59:23Z</time>
      </trkpt>
      <trkpt lat="50.12178" lon="4.1229">
        <ele>179.6</ele>
        <time>2019-11-10T09:59:31Z</time>
      </trkpt>
      <trkpt lat="50.12179" lon="4.12275">
        <ele>180.1</ele>
        <time>2019-11-10T09:59:38Z</time>
      </trkpt>
      <trkpt lat="50.12179" lon="4.12261">
        <ele>180.4</ele>
        <time>2019-11-10T09:59:45Z</time>
      </trkpt>
      <trkpt lat="50.12178" lon="4.12246">
        <ele>180.2</ele>
        <time>2019-11-10T09:59:52Z</time>
      </trkpt>
      <trkpt lat="50.12178" lon="4.12232">
        <ele>180.2</ele>
        <time>2019-11-10T09:59:59Z</time>
      </trkpt>
      <trkpt lat="50.12176" lon="4.12217">
        <ele>180.6</ele>
        <time>2019-11-10T10:00:34Z</time>
      </trkpt>
      <trkpt lat="50.12172" lon="4.12203">
        <ele>180.1</ele>
        <time>2019-11-10T10:00:41Z</time>
      </trkpt>
      <trkpt lat="50.12167" lon="4.12189">
        <ele>179.9</ele>
        <time>2019-11-10T10:00:48Z</time>
      </trkpt>
      <trkpt lat="50.12163" lon="4.12175">
        <ele>180</ele>
        <time>2019-11-10T10:00:55Z</time>
      </trkpt>
      <trkpt lat="50.12161" lon="4.12161">
        <ele>180.6</ele>
        <time>2019-11-10T10:01:02Z</time>
      </trkpt>
      <trkpt lat="50.12162" lon="4.12147">
        <ele>181.7</ele>
        <time>2019-11-10T10:01:09Z</time>
      </trkpt>
      <trkpt lat="50.12167" lon="4.12133">
        <ele>181.9</ele>
        <time>2019-11-10T10:01:17Z</time>
      </trkpt>
      <trkpt lat="50.12171" lon="4.12119">
        <ele>182.5</ele>
        <time>2019-11-10T10:01:24Z</time>
      </trkpt>
      <trkpt lat="50.12177" lon="4.12107">
        <ele>182.5</ele>
        <time>2019-11-10T10:01:31Z</time>
      </trkpt>
      <trkpt lat="50.12183" lon="4.12096">
        <ele>183</ele>
        <time>2019-11-10T10:01:38Z</time>
      </trkpt>
      <trkpt lat="50.12189" lon="4.12085">
        <ele>183.1</ele>
        <time>2019-11-10T10:01:46Z</time>
      </trkpt>
      <trkpt lat="50.12193" lon="4.1207">
        <ele>183.3</ele>
        <time>2019-11-10T10:01:54Z</time>
      </trkpt>
      <trkpt lat="50.12197" lon="4.12057">
        <ele>183.5</ele>
        <time>2019-11-10T10:02:01Z</time>
      </trkpt>
      <trkpt lat="50.12202" lon="4.12044">
        <ele>183.9</ele>
        <time>2019-11-10T10:02:09Z</time>
      </trkpt>
      <trkpt lat="50.12206" lon="4.12031">
        <ele>184.1</ele>
        <time>2019-11-10T10:02:17Z</time>
      </trkpt>
      <trkpt lat="50.12206" lon="4.12015">
        <ele>183.9</ele>
        <time>2019-11-10T10:02:25Z</time>
      </trkpt>
      <trkpt lat="50.12205" lon="4.12">
        <ele>184.1</ele>
        <time>2019-11-10T10:02:32Z</time>
      </trkpt>
      <trkpt lat="50.12205" lon="4.11985">
        <ele>184.1</ele>
        <time>2019-11-10T10:02:39Z</time>
      </trkpt>
      <trkpt lat="50.12204" lon="4.1197">
        <ele>183.8</ele>
        <time>2019-11-10T10:02:46Z</time>
      </trkpt>
      <trkpt lat="50.12203" lon="4.11954">
        <ele>184</ele>
        <time>2019-11-10T10:02:53Z</time>
      </trkpt>
      <trkpt lat="50.12201" lon="4.11938">
        <ele>183.7</ele>
        <time>2019-11-10T10:03:00Z</time>
      </trkpt>
      <trkpt lat="50.12198" lon="4.11924">
        <ele>183.6</ele>
        <time>2019-11-10T10:03:08Z</time>
      </trkpt>
      <trkpt lat="50.12195" lon="4.11908">
        <ele>183.7</ele>
        <time>2019-11-10T10:03:16Z</time>
      </trkpt>
      <trkpt lat="50.12192" lon="4.11895">
        <ele>183.1</ele>
        <time>2019-11-10T10:03:23Z</time>
      </trkpt>
      <trkpt lat="50.12189" lon="4.1188">
        <ele>183.4</ele>
        <time>2019-11-10T10:03:30Z</time>
      </trkpt>
      <trkpt lat="50.12185" lon="4.11865">
        <ele>183.4</ele>
        <time>2019-11-10T10:03:37Z</time>
      </trkpt>
      <trkpt lat="50.12182" lon="4.11851">
        <ele>183.3</ele>
        <time>2019-11-10T10:03:44Z</time>
      </trkpt>
      <trkpt lat="50.12179" lon="4.11835">
        <ele>183.3</ele>
        <time>2019-11-10T10:03:51Z</time>
      </trkpt>
      <trkpt lat="50.12177" lon="4.11821">
        <ele>183.5</ele>
        <time>2019-11-10T10:03:58Z</time>
      </trkpt>
      <trkpt lat="50.12173" lon="4.11806">
        <ele>184</ele>
        <time>2019-11-10T10:04:05Z</time>
      </trkpt>
      <trkpt lat="50.12171" lon="4.11792">
        <ele>183.7</ele>
        <time>2019-11-10T10:04:12Z</time>
      </trkpt>
      <trkpt lat="50.12169" lon="4.11777">
        <ele>183.4</ele>
        <time>2019-11-10T10:04:20Z</time>
      </trkpt>
      <trkpt lat="50.12167" lon="4.11763">
        <ele>183.6</ele>
        <time>2019-11-10T10:04:28Z</time>
      </trkpt>
      <trkpt lat="50.12165" lon="4.11749">
        <ele>183.4</ele>
        <time>2019-11-10T10:04:35Z</time>
      </trkpt>
      <trkpt lat="50.12162" lon="4.11735">
        <ele>183.4</ele>
        <time>2019-11-10T10:04:42Z</time>
      </trkpt>
      <trkpt lat="50.12159" lon="4.11721">
        <ele>183.2</ele>
        <time>2019-11-10T10:04:49Z</time>
      </trkpt>
      <trkpt lat="50.12156" lon="4.11707">
        <ele>183.1</ele>
        <time>2019-11-10T10:04:57Z</time>
      </trkpt>
      <trkpt lat="50.12154" lon="4.11694">
        <ele>182.8</ele>
        <time>2019-11-10T10:05:04Z</time>
      </trkpt>
      <trkpt lat="50.12161" lon="4.11683">
        <ele>182.8</ele>
        <time>2019-11-10T10:05:12Z</time>
      </trkpt>
      <trkpt lat="50.12171" lon="4.11682">
        <ele>183.5</ele>
        <time>2019-11-10T10:05:19Z</time>
      </trkpt>
      <trkpt lat="50.12179" lon="4.11675">
        <ele>183.7</ele>
        <time>2019-11-10T10:05:27Z</time>
      </trkpt>
      <trkpt lat="50.12188" lon="4.11667">
        <ele>184.5</ele>
        <time>2019-11-10T10:05:35Z</time>
      </trkpt>
      <trkpt lat="50.12197" lon="4.11662">
        <ele>184.8</ele>
        <time>2019-11-10T10:05:42Z</time>
      </trkpt>
      <trkpt lat="50.12206" lon="4.11656">
        <ele>185.1</ele>
        <time>2019-11-10T10:05:50Z</time>
      </trkpt>
      <trkpt lat="50.12213" lon="4.11645">
        <ele>186</ele>
        <time>2019-11-10T10:05:58Z</time>
      </trkpt>
      <trkpt lat="50.12218" lon="4.11631">
        <ele>186.4</ele>
        <time>2019-11-10T10:06:06Z</time>
      </trkpt>
      <trkpt lat="50.12222" lon="4.11619">
        <ele>186.6</ele>
        <time>2019-11-10T10:06:13Z</time>
      </trkpt>
      <trkpt lat="50.12223" lon="4.11604">
        <ele>187.4</ele>
        <time>2019-11-10T10:06:21Z</time>
      </trkpt>
      <trkpt lat="50.12223" lon="4.11587">
        <ele>188.3</ele>
        <time>2019-11-10T10:06:30Z</time>
      </trkpt>
      <trkpt lat="50.12222" lon="4.11573">
        <ele>189.1</ele>
        <time>2019-11-10T10:06:37Z</time>
      </trkpt>
      <trkpt lat="50.12219" lon="4.1156">
        <ele>190.1</ele>
        <time>2019-11-10T10:06:45Z</time>
      </trkpt>
      <trkpt lat="50.12217" lon="4.11544">
        <ele>191.9</ele>
        <time>2019-11-10T10:06:54Z</time>
      </trkpt>
      <trkpt lat="50.12215" lon="4.1153">
        <ele>193</ele>
        <time>2019-11-10T10:07:02Z</time>
      </trkpt>
      <trkpt lat="50.12214" lon="4.11515">
        <ele>194.7</ele>
        <time>2019-11-10T10:07:12Z</time>
      </trkpt>
      <trkpt lat="50.12215" lon="4.115">
        <ele>195.6</ele>
        <time>2019-11-10T10:07:22Z</time>
      </trkpt>
      <trkpt lat="50.12214" lon="4.11485">
        <ele>197.9</ele>
        <time>2019-11-10T10:07:31Z</time>
      </trkpt>
      <trkpt lat="50.12212" lon="4.11471">
        <ele>199.7</ele>
        <time>2019-11-10T10:07:40Z</time>
      </trkpt>
      <trkpt lat="50.12211" lon="4.11456">
        <ele>200.3</ele>
        <time>2019-11-10T10:07:49Z</time>
      </trkpt>
      <trkpt lat="50.12211" lon="4.11441">
        <ele>201.8</ele>
        <time>2019-11-10T10:07:58Z</time>
      </trkpt>
      <trkpt lat="50.12209" lon="4.11425">
        <ele>202.4</ele>
        <time>2019-11-10T10:08:05Z</time>
      </trkpt>
      <trkpt lat="50.12208" lon="4.11411">
        <ele>203.4</ele>
        <time>2019-11-10T10:08:12Z</time>
      </trkpt>
      <trkpt lat="50.12208" lon="4.11396">
        <ele>204.2</ele>
        <time>2019-11-10T10:08:19Z</time>
      </trkpt>
      <trkpt lat="50.12208" lon="4.11381">
        <ele>205.2</ele>
        <time>2019-11-10T10:08:29Z</time>
      </trkpt>
      <trkpt lat="50.1221" lon="4.11366">
        <ele>206.5</ele>
        <time>2019-11-10T10:08:38Z</time>
      </trkpt>
      <trkpt lat="50.12213" lon="4.11352">
        <ele>206.6</ele>
        <time>2019-11-10T10:08:48Z</time>
      </trkpt>
      <trkpt lat="50.1222" lon="4.11342">
        <ele>208.1</ele>
        <time>2019-11-10T10:08:56Z</time>
      </trkpt>
      <trkpt lat="50.12228" lon="4.11332">
        <ele>208.5</ele>
        <time>2019-11-10T10:09:04Z</time>
      </trkpt>
      <trkpt lat="50.12237" lon="4.11324">
        <ele>209.3</ele>
        <time>2019-11-10T10:09:12Z</time>
      </trkpt>
      <trkpt lat="50.12246" lon="4.11319">
        <ele>210.1</ele>
        <time>2019-11-10T10:09:20Z</time>
      </trkpt>
      <trkpt lat="50.12255" lon="4.11315">
        <ele>209.5</ele>
        <time>2019-11-10T10:09:58Z</time>
      </trkpt>
      <trkpt lat="50.12264" lon="4.11311">
        <ele>208.7</ele>
        <time>2019-11-10T10:10:08Z</time>
      </trkpt>
      <trkpt lat="50.12273" lon="4.11309">
        <ele>207.3</ele>
        <time>2019-11-10T10:10:17Z</time>
      </trkpt>
      <trkpt lat="50.12282" lon="4.11307">
        <ele>205.8</ele>
        <time>2019-11-10T10:10:26Z</time>
      </trkpt>
      <trkpt lat="50.12292" lon="4.11309">
        <ele>205.3</ele>
        <time>2019-11-10T10:10:37Z</time>
      </trkpt>
      <trkpt lat="50.12301" lon="4.11306">
        <ele>205.2</ele>
        <time>2019-11-10T10:10:44Z</time>
      </trkpt>
      <trkpt lat="50.1231" lon="4.11301">
        <ele>205.4</ele>
        <time>2019-11-10T10:10:51Z</time>
      </trkpt>
      <trkpt lat="50.1232" lon="4.11294">
        <ele>204.8</ele>
        <time>2019-11-10T10:10:58Z</time>
      </trkpt>
      <trkpt lat="50.12329" lon="4.11289">
        <ele>204.8</ele>
        <time>2019-11-10T10:11:07Z</time>
      </trkpt>
      <trkpt lat="50.12338" lon="4.11286">
        <ele>204.9</ele>
        <time>2019-11-10T10:11:14Z</time>
      </trkpt>
      <trkpt lat="50.12347" lon="4.1128">
        <ele>204.7</ele>
        <time>2019-11-10T10:11:22Z</time>
      </trkpt>
      <trkpt lat="50.12356" lon="4.11273">
        <ele>204.6</ele>
        <time>2019-11-10T10:11:30Z</time>
      </trkpt>
      <trkpt lat="50.12364" lon="4.11265">
        <ele>204.1</ele>
        <time>2019-11-10T10:11:38Z</time>
      </trkpt>
      <trkpt lat="50.12372" lon="4.11259">
        <ele>204.2</ele>
        <time>2019-11-10T10:11:45Z</time>
      </trkpt>
      <trkpt lat="50.12379" lon="4.1125">
        <ele>203.9</ele>
        <time>2019-11-10T10:11:52Z</time>
      </trkpt>
      <trkpt lat="50.12386" lon="4.11239">
        <ele>203.9</ele>
        <time>2019-11-10T10:12:00Z</time>
      </trkpt>
      <trkpt lat="50.12395" lon="4.11234">
        <ele>203.8</ele>
        <time>2019-11-10T10:12:18Z</time>
      </trkpt>
      <trkpt lat="50.12404" lon="4.11231">
        <ele>204.2</ele>
        <time>2019-11-10T10:12:26Z</time>
      </trkpt>
      <trkpt lat="50.12412" lon="4.11223">
        <ele>203.9</ele>
        <time>2019-11-10T10:13:08Z</time>
      </trkpt>
      <trkpt lat="50.12421" lon="4.11226">
        <ele>203.9</ele>
        <time>2019-11-10T10:13:22Z</time>
      </trkpt>
      <trkpt lat="50.12431" lon="4.11228">
        <ele>204.5</ele>
        <time>2019-11-10T10:13:35Z</time>
      </trkpt>
      <trkpt lat="50.1244" lon="4.11232">
        <ele>204.5</ele>
        <time>2019-11-10T10:13:44Z</time>
      </trkpt>
      <trkpt lat="50.12449" lon="4.11236">
        <ele>204.8</ele>
        <time>2019-11-10T10:13:54Z</time>
      </trkpt>
      <trkpt lat="50.12458" lon="4.11241">
        <ele>205.2</ele>
        <time>2019-11-10T10:14:03Z</time>
      </trkpt>
      <trkpt lat="50.12466" lon="4.11251">
        <ele>205.5</ele>
        <time>2019-11-10T10:14:11Z</time>
      </trkpt>
      <trkpt lat="50.12471" lon="4.11262">
        <ele>205.8</ele>
        <time>2019-11-10T10:14:19Z</time>
      </trkpt>
      <trkpt lat="50.12477" lon="4.11274">
        <ele>206.4</ele>
        <time>2019-11-10T10:14:28Z</time>
      </trkpt>
      <trkpt lat="50.12483" lon="4.11287">
        <ele>206.1</ele>
        <time>2019-11-10T10:14:37Z</time>
      </trkpt>
      <trkpt lat="50.12489" lon="4.11298">
        <ele>206.8</ele>
        <time>2019-11-10T10:14:46Z</time>
      </trkpt>
      <trkpt lat="50.12496" lon="4.11309">
        <ele>206.9</ele>
        <time>2019-11-10T10:14:55Z</time>
      </trkpt>
      <trkpt lat="50.12502" lon="4.11321">
        <ele>207.5</ele>
        <time>2019-11-10T10:15:03Z</time>
      </trkpt>
      <trkpt lat="50.12508" lon="4.11332">
        <ele>207.7</ele>
        <time>2019-11-10T10:15:10Z</time>
      </trkpt>
      <trkpt lat="50.12513" lon="4.11344">
        <ele>208.1</ele>
        <time>2019-11-10T10:15:17Z</time>
      </trkpt>
      <trkpt lat="50.12519" lon="4.11355">
        <ele>208.3</ele>
        <time>2019-11-10T10:15:25Z</time>
      </trkpt>
      <trkpt lat="50.12524" lon="4.1137">
        <ele>208</ele>
        <time>2019-11-10T10:15:33Z</time>
      </trkpt>
      <trkpt lat="50.12529" lon="4.11383">
        <ele>208.2</ele>
        <time>2019-11-10T10:15:41Z</time>
      </trkpt>
      <trkpt lat="50.12531" lon="4.11397">
        <ele>207.9</ele>
        <time>2019-11-10T10:15:48Z</time>
      </trkpt>
      <trkpt lat="50.12536" lon="4.1141">
        <ele>208</ele>
        <time>2019-11-10T10:15:56Z</time>
      </trkpt>
      <trkpt lat="50.12542" lon="4.11421">
        <ele>207.6</ele>
        <time>2019-11-10T10:16:04Z</time>
      </trkpt>
      <trkpt lat="50.1255" lon="4.11429">
        <ele>207.1</ele>
        <time>2019-11-10T10:16:15Z</time>
      </trkpt>
      <trkpt lat="50.1256" lon="4.11432">
        <ele>207.3</ele>
        <time>2019-11-10T10:16:22Z</time>
      </trkpt>
      <trkpt lat="50.12569" lon="4.11437">
        <ele>206.8</ele>
        <time>2019-11-10T10:16:27Z</time>
      </trkpt>
      <trkpt lat="50.12578" lon="4.1144">
        <ele>207</ele>
        <time>2019-11-10T10:16:34Z</time>
      </trkpt>
      <trkpt lat="50.12588" lon="4.11444">
        <ele>207</ele>
        <time>2019-11-10T10:16:40Z</time>
      </trkpt>
      <trkpt lat="50.12598" lon="4.11443">
        <ele>206.5</ele>
        <time>2019-11-10T10:16:48Z</time>
      </trkpt>
      <trkpt lat="50.12608" lon="4.11444">
        <ele>205.6</ele>
        <time>2019-11-10T10:16:57Z</time>
      </trkpt>
      <trkpt lat="50.12617" lon="4.11443">
        <ele>205.1</ele>
        <time>2019-11-10T10:17:05Z</time>
      </trkpt>
      <trkpt lat="50.12626" lon="4.11438">
        <ele>204.2</ele>
        <time>2019-11-10T10:17:14Z</time>
      </trkpt>
      <trkpt lat="50.12635" lon="4.11431">
        <ele>204</ele>
        <time>2019-11-10T10:17:23Z</time>
      </trkpt>
      <trkpt lat="50.12641" lon="4.11419">
        <ele>203.8</ele>
        <time>2019-11-10T10:17:32Z</time>
      </trkpt>
      <trkpt lat="50.12645" lon="4.11406">
        <ele>203.7</ele>
        <time>2019-11-10T10:17:40Z</time>
      </trkpt>
      <trkpt lat="50.12645" lon="4.11391">
        <ele>204.2</ele>
        <time>2019-11-10T10:17:48Z</time>
      </trkpt>
      <trkpt lat="50.12643" lon="4.11376">
        <ele>204.1</ele>
        <time>2019-11-10T10:17:56Z</time>
      </trkpt>
      <trkpt lat="50.12643" lon="4.11361">
        <ele>203.7</ele>
        <time>2019-11-10T10:18:04Z</time>
      </trkpt>
      <trkpt lat="50.12645" lon="4.11345">
        <ele>203.7</ele>
        <time>2019-11-10T10:18:12Z</time>
      </trkpt>
      <trkpt lat="50.12646" lon="4.11331">
        <ele>203.7</ele>
        <time>2019-11-10T10:18:20Z</time>
      </trkpt>
      <trkpt lat="50.12652" lon="4.1132">
        <ele>204.2</ele>
        <time>2019-11-10T10:18:30Z</time>
      </trkpt>
      <trkpt lat="50.12656" lon="4.11305">
        <ele>204.8</ele>
        <time>2019-11-10T10:18:39Z</time>
      </trkpt>
      <trkpt lat="50.1266" lon="4.11292">
        <ele>204.9</ele>
        <time>2019-11-10T10:18:46Z</time>
      </trkpt>
      <trkpt lat="50.12664" lon="4.1128">
        <ele>205.4</ele>
        <time>2019-11-10T10:18:55Z</time>
      </trkpt>
      <trkpt lat="50.12671" lon="4.1127">
        <ele>206.3</ele>
        <time>2019-11-10T10:19:03Z</time>
      </trkpt>
      <trkpt lat="50.12679" lon="4.1126">
        <ele>206.7</ele>
        <time>2019-11-10T10:19:12Z</time>
      </trkpt>
      <trkpt lat="50.12683" lon="4.11248">
        <ele>207.7</ele>
        <time>2019-11-10T10:19:19Z</time>
      </trkpt>
      <trkpt lat="50.12685" lon="4.11233">
        <ele>207.9</ele>
        <time>2019-11-10T10:19:27Z</time>
      </trkpt>
      <trkpt lat="50.1269" lon="4.11221">
        <ele>208.7</ele>
        <time>2019-11-10T10:19:35Z</time>
      </trkpt>
      <trkpt lat="50.12694" lon="4.11207">
        <ele>209.7</ele>
        <time>2019-11-10T10:19:44Z</time>
      </trkpt>
      <trkpt lat="50.12696" lon="4.11191">
        <ele>210.3</ele>
        <time>2019-11-10T10:19:53Z</time>
      </trkpt>
      <trkpt lat="50.127" lon="4.11178">
        <ele>211.2</ele>
        <time>2019-11-10T10:20:01Z</time>
      </trkpt>
      <trkpt lat="50.12703" lon="4.11164">
        <ele>211.8</ele>
        <time>2019-11-10T10:20:09Z</time>
      </trkpt>
      <trkpt lat="50.12707" lon="4.11151">
        <ele>212.6</ele>
        <time>2019-11-10T10:20:18Z</time>
      </trkpt>
      <trkpt lat="50.12711" lon="4.11138">
        <ele>213.8</ele>
        <time>2019-11-10T10:20:26Z</time>
      </trkpt>
      <trkpt lat="50.12717" lon="4.11126">
        <ele>214.8</ele>
        <time>2019-11-10T10:20:37Z</time>
      </trkpt>
      <trkpt lat="50.12721" lon="4.11112">
        <ele>215.2</ele>
        <time>2019-11-10T10:20:54Z</time>
      </trkpt>
      <trkpt lat="50.12727" lon="4.11101">
        <ele>215.8</ele>
        <time>2019-11-10T10:21:03Z</time>
      </trkpt>
      <trkpt lat="50.12734" lon="4.1109">
        <ele>216.5</ele>
        <time>2019-11-10T10:21:11Z</time>
      </trkpt>
      <trkpt lat="50.12741" lon="4.1108">
        <ele>216.8</ele>
        <time>2019-11-10T10:21:19Z</time>
      </trkpt>
      <trkpt lat="50.12748" lon="4.11068">
        <ele>217</ele>
        <time>2019-11-10T10:21:28Z</time>
      </trkpt>
      <trkpt lat="50.12755" lon="4.11058">
        <ele>216.8</ele>
        <time>2019-11-10T10:21:39Z</time>
      </trkpt>
      <trkpt lat="50.1276" lon="4.11046">
        <ele>216.4</ele>
        <time>2019-11-10T10:21:46Z</time>
      </trkpt>
      <trkpt lat="50.12761" lon="4.11031">
        <ele>216.3</ele>
        <time>2019-11-10T10:21:52Z</time>
      </trkpt>
      <trkpt lat="50.12762" lon="4.11016">
        <ele>216.9</ele>
        <time>2019-11-10T10:21:59Z</time>
      </trkpt>
      <trkpt lat="50.12763" lon="4.11002">
        <ele>217.3</ele>
        <time>2019-11-10T10:22:06Z</time>
      </trkpt>
      <trkpt lat="50.12763" lon="4.10987">
        <ele>217.9</ele>
        <time>2019-11-10T10:22:13Z</time>
      </trkpt>
      <trkpt lat="50.1276" lon="4.10973">
        <ele>218.1</ele>
        <time>2019-11-10T10:22:18Z</time>
      </trkpt>
      <trkpt lat="50.12757" lon="4.1096">
        <ele>219.1</ele>
        <time>2019-11-10T10:22:25Z</time>
      </trkpt>
      <trkpt lat="50.12753" lon="4.10946">
        <ele>219.1</ele>
        <time>2019-11-10T10:22:36Z</time>
      </trkpt>
      <trkpt lat="50.12753" lon="4.10932">
        <ele>219.9</ele>
        <time>2019-11-10T10:22:46Z</time>
      </trkpt>
      <trkpt lat="50.12748" lon="4.10919">
        <ele>220.3</ele>
        <time>2019-11-10T10:24:15Z</time>
      </trkpt>
      <trkpt lat="50.12746" lon="4.10904">
        <ele>220.7</ele>
        <time>2019-11-10T10:24:25Z</time>
      </trkpt>
      <trkpt lat="50.12746" lon="4.10888">
        <ele>220.9</ele>
        <time>2019-11-10T10:24:59Z</time>
      </trkpt>
      <trkpt lat="50.12743" lon="4.10874">
        <ele>220.8</ele>
        <time>2019-11-10T10:25:07Z</time>
      </trkpt>
      <trkpt lat="50.12739" lon="4.1086">
        <ele>221.5</ele>
        <time>2019-11-10T10:25:15Z</time>
      </trkpt>
      <trkpt lat="50.12736" lon="4.10846">
        <ele>221.6</ele>
        <time>2019-11-10T10:25:22Z</time>
      </trkpt>
      <trkpt lat="50.12737" lon="4.1083">
        <ele>221.5</ele>
        <time>2019-11-10T10:25:30Z</time>
      </trkpt>
      <trkpt lat="50.12735" lon="4.10815">
        <ele>221.8</ele>
        <time>2019-11-10T10:25:38Z</time>
      </trkpt>
      <trkpt lat="50.12732" lon="4.108">
        <ele>221.8</ele>
        <time>2019-11-10T10:25:46Z</time>
      </trkpt>
      <trkpt lat="50.12726" lon="4.10788">
        <ele>221.6</ele>
        <time>2019-11-10T10:25:53Z</time>
      </trkpt>
      <trkpt lat="50.12719" lon="4.10777">
        <ele>221.2</ele>
        <time>2019-11-10T10:26:03Z</time>
      </trkpt>
      <trkpt lat="50.12713" lon="4.10767">
        <ele>220.8</ele>
        <time>2019-11-10T10:26:11Z</time>
      </trkpt>
      <trkpt lat="50.12707" lon="4.10754">
        <ele>220.7</ele>
        <time>2019-11-10T10:26:19Z</time>
      </trkpt>
      <trkpt lat="50.12706" lon="4.10739">
        <ele>220.7</ele>
        <time>2019-11-10T10:26:28Z</time>
      </trkpt>
      <trkpt lat="50.12705" lon="4.10724">
        <ele>220.8</ele>
        <time>2019-11-10T10:26:36Z</time>
      </trkpt>
      <trkpt lat="50.12705" lon="4.1071">
        <ele>221</ele>
        <time>2019-11-10T10:26:45Z</time>
      </trkpt>
      <trkpt lat="50.12703" lon="4.10696">
        <ele>221.3</ele>
        <time>2019-11-10T10:26:52Z</time>
      </trkpt>
      <trkpt lat="50.12702" lon="4.10681">
        <ele>221.6</ele>
        <time>2019-11-10T10:27:00Z</time>
      </trkpt>
      <trkpt lat="50.127" lon="4.10667">
        <ele>221.7</ele>
        <time>2019-11-10T10:27:07Z</time>
      </trkpt>
      <trkpt lat="50.12699" lon="4.10651">
        <ele>221.5</ele>
        <time>2019-11-10T10:27:15Z</time>
      </trkpt>
      <trkpt lat="50.12698" lon="4.10636">
        <ele>221.2</ele>
        <time>2019-11-10T10:27:23Z</time>
      </trkpt>
      <trkpt lat="50.12696" lon="4.10622">
        <ele>221</ele>
        <time>2019-11-10T10:27:31Z</time>
      </trkpt>
      <trkpt lat="50.12695" lon="4.10607">
        <ele>220.4</ele>
        <time>2019-11-10T10:27:39Z</time>
      </trkpt>
      <trkpt lat="50.12692" lon="4.10592">
        <ele>219.8</ele>
        <time>2019-11-10T10:27:46Z</time>
      </trkpt>
      <trkpt lat="50.1269" lon="4.10577">
        <ele>218.7</ele>
        <time>2019-11-10T10:27:53Z</time>
      </trkpt>
      <trkpt lat="50.12689" lon="4.10563">
        <ele>217.9</ele>
        <time>2019-11-10T10:28:00Z</time>
      </trkpt>
      <trkpt lat="50.12687" lon="4.10547">
        <ele>218</ele>
        <time>2019-11-10T10:28:06Z</time>
      </trkpt>
      <trkpt lat="50.12687" lon="4.10532">
        <ele>218.1</ele>
        <time>2019-11-10T10:28:14Z</time>
      </trkpt>
      <trkpt lat="50.12687" lon="4.10516">
        <ele>218.1</ele>
        <time>2019-11-10T10:28:23Z</time>
      </trkpt>
      <trkpt lat="50.12686" lon="4.105">
        <ele>218</ele>
        <time>2019-11-10T10:28:30Z</time>
      </trkpt>
      <trkpt lat="50.12684" lon="4.10486">
        <ele>218.6</ele>
        <time>2019-11-10T10:28:36Z</time>
      </trkpt>
      <trkpt lat="50.12681" lon="4.10472">
        <ele>218.6</ele>
        <time>2019-11-10T10:28:42Z</time>
      </trkpt>
      <trkpt lat="50.1268" lon="4.10457">
        <ele>219.2</ele>
        <time>2019-11-10T10:28:50Z</time>
      </trkpt>
      <trkpt lat="50.12679" lon="4.10443">
        <ele>219.5</ele>
        <time>2019-11-10T10:28:57Z</time>
      </trkpt>
      <trkpt lat="50.12681" lon="4.10428">
        <ele>219.7</ele>
        <time>2019-11-10T10:29:06Z</time>
      </trkpt>
      <trkpt lat="50.12678" lon="4.10412">
        <ele>220</ele>
        <time>2019-11-10T10:29:13Z</time>
      </trkpt>
      <trkpt lat="50.12676" lon="4.10398">
        <ele>220.1</ele>
        <time>2019-11-10T10:29:19Z</time>
      </trkpt>
      <trkpt lat="50.12676" lon="4.10382">
        <ele>220.1</ele>
        <time>2019-11-10T10:29:27Z</time>
      </trkpt>
      <trkpt lat="50.12675" lon="4.10368">
        <ele>220.3</ele>
        <time>2019-11-10T10:29:35Z</time>
      </trkpt>
      <trkpt lat="50.12675" lon="4.10352">
        <ele>220.4</ele>
        <time>2019-11-10T10:29:43Z</time>
      </trkpt>
      <trkpt lat="50.12674" lon="4.10338">
        <ele>220.6</ele>
        <time>2019-11-10T10:29:51Z</time>
      </trkpt>
      <trkpt lat="50.12673" lon="4.10322">
        <ele>220.5</ele>
        <time>2019-11-10T10:30:00Z</time>
      </trkpt>
      <trkpt lat="50.12671" lon="4.10307">
        <ele>220.2</ele>
        <time>2019-11-10T10:30:07Z</time>
      </trkpt>
      <trkpt lat="50.12673" lon="4.10293">
        <ele>220.6</ele>
        <time>2019-11-10T10:30:14Z</time>
      </trkpt>
      <trkpt lat="50.12673" lon="4.10279">
        <ele>220.4</ele>
        <time>2019-11-10T10:30:21Z</time>
      </trkpt>
      <trkpt lat="50.12671" lon="4.10264">
        <ele>219.7</ele>
        <time>2019-11-10T10:30:29Z</time>
      </trkpt>
      <trkpt lat="50.12669" lon="4.1025">
        <ele>219.7</ele>
        <time>2019-11-10T10:30:38Z</time>
      </trkpt>
      <trkpt lat="50.12668" lon="4.10235">
        <ele>219.4</ele>
        <time>2019-11-10T10:30:45Z</time>
      </trkpt>
      <trkpt lat="50.12666" lon="4.1022">
        <ele>219.4</ele>
        <time>2019-11-10T10:30:53Z</time>
      </trkpt>
      <trkpt lat="50.12666" lon="4.10205">
        <ele>219.2</ele>
        <time>2019-11-10T10:31:01Z</time>
      </trkpt>
      <trkpt lat="50.12665" lon="4.10188">
        <ele>218.8</ele>
        <time>2019-11-10T10:31:08Z</time>
      </trkpt>
      <trkpt lat="50.12661" lon="4.10175">
        <ele>218.8</ele>
        <time>2019-11-10T10:31:14Z</time>
      </trkpt>
      <trkpt lat="50.12659" lon="4.10161">
        <ele>218.3</ele>
        <time>2019-11-10T10:31:20Z</time>
      </trkpt>
      <trkpt lat="50.12657" lon="4.10146">
        <ele>218</ele>
        <time>2019-11-10T10:31:28Z</time>
      </trkpt>
      <trkpt lat="50.12657" lon="4.10131">
        <ele>218.3</ele>
        <time>2019-11-10T10:31:36Z</time>
      </trkpt>
      <trkpt lat="50.12655" lon="4.10116">
        <ele>217.6</ele>
        <time>2019-11-10T10:31:42Z</time>
      </trkpt>
      <trkpt lat="50.12654" lon="4.10102">
        <ele>217.6</ele>
        <time>2019-11-10T10:31:49Z</time>
      </trkpt>
      <trkpt lat="50.12653" lon="4.10087">
        <ele>217.5</ele>
        <time>2019-11-10T10:31:57Z</time>
      </trkpt>
      <trkpt lat="50.12652" lon="4.10072">
        <ele>217</ele>
        <time>2019-11-10T10:32:04Z</time>
      </trkpt>
      <trkpt lat="50.12659" lon="4.10065">
        <ele>218</ele>
        <time>2019-11-10T10:32:13Z</time>
      </trkpt>
      <trkpt lat="50.12668" lon="4.10063">
        <ele>218</ele>
        <time>2019-11-10T10:32:18Z</time>
      </trkpt>
      <trkpt lat="50.1268" lon="4.10061">
        <ele>218.7</ele>
        <time>2019-11-10T10:32:27Z</time>
      </trkpt>
      <trkpt lat="50.12689" lon="4.10056">
        <ele>218.9</ele>
        <time>2019-11-10T10:32:32Z</time>
      </trkpt>
      <trkpt lat="50.12698" lon="4.10053">
        <ele>219.5</ele>
        <time>2019-11-10T10:32:45Z</time>
      </trkpt>
      <trkpt lat="50.12708" lon="4.10053">
        <ele>219.6</ele>
        <time>2019-11-10T10:32:50Z</time>
      </trkpt>
      <trkpt lat="50.12717" lon="4.10052">
        <ele>219.6</ele>
        <time>2019-11-10T10:32:56Z</time>
      </trkpt>
      <trkpt lat="50.12727" lon="4.1005">
        <ele>220.3</ele>
        <time>2019-11-10T10:33:03Z</time>
      </trkpt>
      <trkpt lat="50.12737" lon="4.10052">
        <ele>221</ele>
        <time>2019-11-10T10:33:10Z</time>
      </trkpt>
      <trkpt lat="50.12747" lon="4.10047">
        <ele>221.5</ele>
        <time>2019-11-10T10:33:22Z</time>
      </trkpt>
      <trkpt lat="50.12756" lon="4.10047">
        <ele>221.9</ele>
        <time>2019-11-10T10:33:28Z</time>
      </trkpt>
      <trkpt lat="50.12765" lon="4.10045">
        <ele>222.4</ele>
        <time>2019-11-10T10:33:35Z</time>
      </trkpt>
      <trkpt lat="50.12775" lon="4.10042">
        <ele>222.7</ele>
        <time>2019-11-10T10:33:44Z</time>
      </trkpt>
      <trkpt lat="50.12785" lon="4.1004">
        <ele>223.2</ele>
        <time>2019-11-10T10:33:52Z</time>
      </trkpt>
      <trkpt lat="50.12795" lon="4.10038">
        <ele>223.2</ele>
        <time>2019-11-10T10:33:59Z</time>
      </trkpt>
      <trkpt lat="50.12804" lon="4.10036">
        <ele>223.5</ele>
        <time>2019-11-10T10:34:06Z</time>
      </trkpt>
      <trkpt lat="50.12813" lon="4.10037">
        <ele>224</ele>
        <time>2019-11-10T10:34:14Z</time>
      </trkpt>
      <trkpt lat="50.12822" lon="4.10036">
        <ele>224.7</ele>
        <time>2019-11-10T10:34:22Z</time>
      </trkpt>
      <trkpt lat="50.12832" lon="4.10034">
        <ele>225.4</ele>
        <time>2019-11-10T10:34:30Z</time>
      </trkpt>
      <trkpt lat="50.12842" lon="4.1003">
        <ele>226</ele>
        <time>2019-11-10T10:34:37Z</time>
      </trkpt>
      <trkpt lat="50.12851" lon="4.10029">
        <ele>226.2</ele>
        <time>2019-11-10T10:34:44Z</time>
      </trkpt>
      <trkpt lat="50.1286" lon="4.10026">
        <ele>226.1</ele>
        <time>2019-11-10T10:34:58Z</time>
      </trkpt>
      <trkpt lat="50.12869" lon="4.10024">
        <ele>226.4</ele>
        <time>2019-11-10T10:35:05Z</time>
      </trkpt>
      <trkpt lat="50.12878" lon="4.10019">
        <ele>225.9</ele>
        <time>2019-11-10T10:35:13Z</time>
      </trkpt>
      <trkpt lat="50.12888" lon="4.10017">
        <ele>226.3</ele>
        <time>2019-11-10T10:35:22Z</time>
      </trkpt>
      <trkpt lat="50.12898" lon="4.10017">
        <ele>226.3</ele>
        <time>2019-11-10T10:35:29Z</time>
      </trkpt>
      <trkpt lat="50.12908" lon="4.10017">
        <ele>226.1</ele>
        <time>2019-11-10T10:35:36Z</time>
      </trkpt>
      <trkpt lat="50.12917" lon="4.10015">
        <ele>225.8</ele>
        <time>2019-11-10T10:35:43Z</time>
      </trkpt>
      <trkpt lat="50.12927" lon="4.10012">
        <ele>225.4</ele>
        <time>2019-11-10T10:35:50Z</time>
      </trkpt>
      <trkpt lat="50.12937" lon="4.1001">
        <ele>224.8</ele>
        <time>2019-11-10T10:35:57Z</time>
      </trkpt>
      <trkpt lat="50.12946" lon="4.10008">
        <ele>224.1</ele>
        <time>2019-11-10T10:36:04Z</time>
      </trkpt>
      <trkpt lat="50.12955" lon="4.10005">
        <ele>223.4</ele>
        <time>2019-11-10T10:36:11Z</time>
      </trkpt>
      <trkpt lat="50.12965" lon="4.10004">
        <ele>223</ele>
        <time>2019-11-10T10:36:25Z</time>
      </trkpt>
      <trkpt lat="50.12974" lon="4.10008">
        <ele>222.8</ele>
        <time>2019-11-10T10:36:31Z</time>
      </trkpt>
      <trkpt lat="50.12984" lon="4.10007">
        <ele>221.3</ele>
        <time>2019-11-10T10:36:41Z</time>
      </trkpt>
      <trkpt lat="50.12992" lon="4.1">
        <ele>219.7</ele>
        <time>2019-11-10T10:36:49Z</time>
      </trkpt>
      <trkpt lat="50.13001" lon="4.09994">
        <ele>218.7</ele>
        <time>2019-11-10T10:36:57Z</time>
      </trkpt>
      <trkpt lat="50.13009" lon="4.09986">
        <ele>218</ele>
        <time>2019-11-10T10:37:06Z</time>
      </trkpt>
      <trkpt lat="50.13018" lon="4.0998">
        <ele>217.1</ele>
        <time>2019-11-10T10:37:15Z</time>
      </trkpt>
      <trkpt lat="50.13027" lon="4.09976">
        <ele>215.9</ele>
        <time>2019-11-10T10:37:24Z</time>
      </trkpt>
      <trkpt lat="50.13037" lon="4.09973">
        <ele>215.3</ele>
        <time>2019-11-10T10:37:32Z</time>
      </trkpt>
      <trkpt lat="50.13045" lon="4.09965">
        <ele>214.8</ele>
        <time>2019-11-10T10:37:39Z</time>
      </trkpt>
      <trkpt lat="50.13053" lon="4.09959">
        <ele>213.9</ele>
        <time>2019-11-10T10:37:47Z</time>
      </trkpt>
      <trkpt lat="50.13063" lon="4.09954">
        <ele>213</ele>
        <time>2019-11-10T10:37:55Z</time>
      </trkpt>
      <trkpt lat="50.13072" lon="4.0995">
        <ele>212.1</ele>
        <time>2019-11-10T10:38:04Z</time>
      </trkpt>
      <trkpt lat="50.13081" lon="4.09943">
        <ele>211.1</ele>
        <time>2019-11-10T10:38:12Z</time>
      </trkpt>
      <trkpt lat="50.13089" lon="4.09937">
        <ele>210.2</ele>
        <time>2019-11-10T10:38:19Z</time>
      </trkpt>
      <trkpt lat="50.13098" lon="4.09933">
        <ele>209.9</ele>
        <time>2019-11-10T10:38:27Z</time>
      </trkpt>
      <trkpt lat="50.13108" lon="4.09933">
        <ele>208.9</ele>
        <time>2019-11-10T10:38:38Z</time>
      </trkpt>
      <trkpt lat="50.13116" lon="4.09927">
        <ele>208.7</ele>
        <time>2019-11-10T10:38:44Z</time>
      </trkpt>
      <trkpt lat="50.13124" lon="4.0992">
        <ele>207.8</ele>
        <time>2019-11-10T10:38:50Z</time>
      </trkpt>
      <trkpt lat="50.13133" lon="4.09913">
        <ele>207.4</ele>
        <time>2019-11-10T10:38:57Z</time>
      </trkpt>
      <trkpt lat="50.13141" lon="4.09907">
        <ele>206.7</ele>
        <time>2019-11-10T10:39:04Z</time>
      </trkpt>
      <trkpt lat="50.13151" lon="4.09901">
        <ele>205.8</ele>
        <time>2019-11-10T10:39:12Z</time>
      </trkpt>
      <trkpt lat="50.13159" lon="4.09896">
        <ele>205.5</ele>
        <time>2019-11-10T10:39:20Z</time>
      </trkpt>
      <trkpt lat="50.13169" lon="4.09894">
        <ele>204.2</ele>
        <time>2019-11-10T10:39:29Z</time>
      </trkpt>
      <trkpt lat="50.13178" lon="4.09888">
        <ele>203.6</ele>
        <time>2019-11-10T10:39:37Z</time>
      </trkpt>
      <trkpt lat="50.13186" lon="4.09883">
        <ele>203.1</ele>
        <time>2019-11-10T10:39:45Z</time>
      </trkpt>
      <trkpt lat="50.13195" lon="4.09877">
        <ele>202.2</ele>
        <time>2019-11-10T10:39:54Z</time>
      </trkpt>
      <trkpt lat="50.13204" lon="4.09869">
        <ele>201.6</ele>
        <time>2019-11-10T10:40:02Z</time>
      </trkpt>
      <trkpt lat="50.13212" lon="4.09863">
        <ele>200.7</ele>
        <time>2019-11-10T10:40:10Z</time>
      </trkpt>
      <trkpt lat="50.13221" lon="4.09862">
        <ele>200</ele>
        <time>2019-11-10T10:40:18Z</time>
      </trkpt>
      <trkpt lat="50.1323" lon="4.09858">
        <ele>199.4</ele>
        <time>2019-11-10T10:40:27Z</time>
      </trkpt>
      <trkpt lat="50.13239" lon="4.09851">
        <ele>197.3</ele>
        <time>2019-11-10T10:40:38Z</time>
      </trkpt>
      <trkpt lat="50.13245" lon="4.09839">
        <ele>196.1</ele>
        <time>2019-11-10T10:40:47Z</time>
      </trkpt>
      <trkpt lat="50.13251" lon="4.09827">
        <ele>195.1</ele>
        <time>2019-11-10T10:40:55Z</time>
      </trkpt>
      <trkpt lat="50.13257" lon="4.09814">
        <ele>194.3</ele>
        <time>2019-11-10T10:41:01Z</time>
      </trkpt>
      <trkpt lat="50.1326" lon="4.098">
        <ele>193.6</ele>
        <time>2019-11-10T10:41:07Z</time>
      </trkpt>
      <trkpt lat="50.13264" lon="4.09787">
        <ele>193</ele>
        <time>2019-11-10T10:41:14Z</time>
      </trkpt>
      <trkpt lat="50.1327" lon="4.09776">
        <ele>192.4</ele>
        <time>2019-11-10T10:41:21Z</time>
      </trkpt>
      <trkpt lat="50.13272" lon="4.09762">
        <ele>191.8</ele>
        <time>2019-11-10T10:41:28Z</time>
      </trkpt>
      <trkpt lat="50.13277" lon="4.0975">
        <ele>191.2</ele>
        <time>2019-11-10T10:41:33Z</time>
      </trkpt>
      <trkpt lat="50.13285" lon="4.09743">
        <ele>190.6</ele>
        <time>2019-11-10T10:41:41Z</time>
      </trkpt>
      <trkpt lat="50.13294" lon="4.09734">
        <ele>190.5</ele>
        <time>2019-11-10T10:41:48Z</time>
      </trkpt>
      <trkpt lat="50.13298" lon="4.0972">
        <ele>190.8</ele>
        <time>2019-11-10T10:41:57Z</time>
      </trkpt>
      <trkpt lat="50.13293" lon="4.09706">
        <ele>191</ele>
        <time>2019-11-10T10:42:05Z</time>
      </trkpt>
      <trkpt lat="50.13289" lon="4.09693">
        <ele>191.1</ele>
        <time>2019-11-10T10:42:12Z</time>
      </trkpt>
      <trkpt lat="50.13288" lon="4.09679">
        <ele>193</ele>
        <time>2019-11-10T10:42:23Z</time>
      </trkpt>
      <trkpt lat="50.13284" lon="4.09665">
        <ele>193</ele>
        <time>2019-11-10T10:42:47Z</time>
      </trkpt>
      <trkpt lat="50.13279" lon="4.09652">
        <ele>192</ele>
        <time>2019-11-10T10:42:56Z</time>
      </trkpt>
      <trkpt lat="50.1328" lon="4.09638">
        <ele>191.5</ele>
        <time>2019-11-10T10:43:08Z</time>
      </trkpt>
      <trkpt lat="50.1328" lon="4.09623">
        <ele>190.9</ele>
        <time>2019-11-10T10:43:25Z</time>
      </trkpt>
      <trkpt lat="50.1328" lon="4.09608">
        <ele>189.8</ele>
        <time>2019-11-10T10:43:37Z</time>
      </trkpt>
      <trkpt lat="50.13278" lon="4.09593">
        <ele>190.1</ele>
        <time>2019-11-10T10:43:45Z</time>
      </trkpt>
      <trkpt lat="50.13278" lon="4.09579">
        <ele>189.5</ele>
        <time>2019-11-10T10:43:53Z</time>
      </trkpt>
      <trkpt lat="50.13275" lon="4.09564">
        <ele>189.5</ele>
        <time>2019-11-10T10:44:02Z</time>
      </trkpt>
      <trkpt lat="50.13272" lon="4.0955">
        <ele>189.2</ele>
        <time>2019-11-10T10:44:10Z</time>
      </trkpt>
      <trkpt lat="50.13267" lon="4.09537">
        <ele>189.2</ele>
        <time>2019-11-10T10:44:17Z</time>
      </trkpt>
      <trkpt lat="50.13263" lon="4.09524">
        <ele>189</ele>
        <time>2019-11-10T10:44:25Z</time>
      </trkpt>
      <trkpt lat="50.13256" lon="4.09514">
        <ele>189.1</ele>
        <time>2019-11-10T10:44:42Z</time>
      </trkpt>
      <trkpt lat="50.13252" lon="4.09502">
        <ele>188.6</ele>
        <time>2019-11-10T10:44:50Z</time>
      </trkpt>
      <trkpt lat="50.13247" lon="4.09489">
        <ele>188.9</ele>
        <time>2019-11-10T10:44:58Z</time>
      </trkpt>
      <trkpt lat="50.13239" lon="4.09481">
        <ele>188.1</ele>
        <time>2019-11-10T10:45:06Z</time>
      </trkpt>
      <trkpt lat="50.13233" lon="4.09469">
        <ele>187.4</ele>
        <time>2019-11-10T10:45:16Z</time>
      </trkpt>
      <trkpt lat="50.13227" lon="4.09458">
        <ele>187.2</ele>
        <time>2019-11-10T10:45:24Z</time>
      </trkpt>
      <trkpt lat="50.1322" lon="4.09446">
        <ele>186.6</ele>
        <time>2019-11-10T10:45:35Z</time>
      </trkpt>
      <trkpt lat="50.13213" lon="4.09435">
        <ele>186.2</ele>
        <time>2019-11-10T10:45:42Z</time>
      </trkpt>
      <trkpt lat="50.13208" lon="4.09423">
        <ele>186.9</ele>
        <time>2019-11-10T10:45:50Z</time>
      </trkpt>
      <trkpt lat="50.13202" lon="4.09412">
        <ele>186.8</ele>
        <time>2019-11-10T10:46:00Z</time>
      </trkpt>
      <trkpt lat="50.13195" lon="4.09401">
        <ele>186.7</ele>
        <time>2019-11-10T10:46:09Z</time>
      </trkpt>
      <trkpt lat="50.13188" lon="4.0939">
        <ele>186.9</ele>
        <time>2019-11-10T10:46:17Z</time>
      </trkpt>
      <trkpt lat="50.13182" lon="4.09378">
        <ele>186.4</ele>
        <time>2019-11-10T10:46:25Z</time>
      </trkpt>
      <trkpt lat="50.13178" lon="4.09364">
        <ele>186.5</ele>
        <time>2019-11-10T10:46:33Z</time>
      </trkpt>
      <trkpt lat="50.13172" lon="4.09352">
        <ele>186.3</ele>
        <time>2019-11-10T10:46:41Z</time>
      </trkpt>
      <trkpt lat="50.13169" lon="4.09338">
        <ele>186.4</ele>
        <time>2019-11-10T10:46:49Z</time>
      </trkpt>
      <trkpt lat="50.13164" lon="4.09326">
        <ele>186.2</ele>
        <time>2019-11-10T10:46:56Z</time>
      </trkpt>
      <trkpt lat="50.13159" lon="4.09313">
        <ele>186.5</ele>
        <time>2019-11-10T10:47:04Z</time>
      </trkpt>
      <trkpt lat="50.13153" lon="4.09301">
        <ele>186.6</ele>
        <time>2019-11-10T10:47:11Z</time>
      </trkpt>
      <trkpt lat="50.13148" lon="4.0929">
        <ele>186.2</ele>
        <time>2019-11-10T10:47:19Z</time>
      </trkpt>
      <trkpt lat="50.13144" lon="4.09277">
        <ele>186</ele>
        <time>2019-11-10T10:47:28Z</time>
      </trkpt>
      <trkpt lat="50.13139" lon="4.09264">
        <ele>185.7</ele>
        <time>2019-11-10T10:47:37Z</time>
      </trkpt>
      <trkpt lat="50.13134" lon="4.09251">
        <ele>185.1</ele>
        <time>2019-11-10T10:47:44Z</time>
      </trkpt>
      <trkpt lat="50.1313" lon="4.09237">
        <ele>185.2</ele>
        <time>2019-11-10T10:47:52Z</time>
      </trkpt>
      <trkpt lat="50.13126" lon="4.09223">
        <ele>185.6</ele>
        <time>2019-11-10T10:48:00Z</time>
      </trkpt>
      <trkpt lat="50.13119" lon="4.09213">
        <ele>185</ele>
        <time>2019-11-10T10:48:08Z</time>
      </trkpt>
      <trkpt lat="50.13115" lon="4.09199">
        <ele>184.5</ele>
        <time>2019-11-10T10:48:16Z</time>
      </trkpt>
      <trkpt lat="50.13112" lon="4.09184">
        <ele>184.7</ele>
        <time>2019-11-10T10:48:25Z</time>
      </trkpt>
      <trkpt lat="50.13109" lon="4.0917">
        <ele>184.5</ele>
        <time>2019-11-10T10:48:34Z</time>
      </trkpt>
      <trkpt lat="50.13107" lon="4.09155">
        <ele>183.8</ele>
        <time>2019-11-10T10:49:03Z</time>
      </trkpt>
      <trkpt lat="50.13106" lon="4.0914">
        <ele>184.9</ele>
        <time>2019-11-10T10:49:13Z</time>
      </trkpt>
      <trkpt lat="50.13106" lon="4.09125">
        <ele>185.1</ele>
        <time>2019-11-10T10:49:24Z</time>
      </trkpt>
      <trkpt lat="50.13103" lon="4.0911">
        <ele>185.7</ele>
        <time>2019-11-10T10:49:34Z</time>
      </trkpt>
      <trkpt lat="50.13099" lon="4.09097">
        <ele>185</ele>
        <time>2019-11-10T10:49:41Z</time>
      </trkpt>
      <trkpt lat="50.13104" lon="4.09109">
        <ele>185.6</ele>
        <time>2019-11-10T10:50:01Z</time>
      </trkpt>
      <trkpt lat="50.13098" lon="4.09096">
        <ele>184.9</ele>
        <time>2019-11-10T10:50:47Z</time>
      </trkpt>
      <trkpt lat="50.13093" lon="4.09083">
        <ele>183.2</ele>
        <time>2019-11-10T10:50:56Z</time>
      </trkpt>
      <trkpt lat="50.13087" lon="4.09071">
        <ele>182.4</ele>
        <time>2019-11-10T10:51:03Z</time>
      </trkpt>
      <trkpt lat="50.1308" lon="4.0906">
        <ele>182</ele>
        <time>2019-11-10T10:51:10Z</time>
      </trkpt>
      <trkpt lat="50.13076" lon="4.09046">
        <ele>181.6</ele>
        <time>2019-11-10T10:51:18Z</time>
      </trkpt>
      <trkpt lat="50.13082" lon="4.09034">
        <ele>181.4</ele>
        <time>2019-11-10T10:51:53Z</time>
      </trkpt>
      <trkpt lat="50.1308" lon="4.09049">
        <ele>181.6</ele>
        <time>2019-11-10T10:52:22Z</time>
      </trkpt>
      <trkpt lat="50.13071" lon="4.09047">
        <ele>180.3</ele>
        <time>2019-11-10T10:53:21Z</time>
      </trkpt>
      <trkpt lat="50.13062" lon="4.09051">
        <ele>179.3</ele>
        <time>2019-11-10T10:53:29Z</time>
      </trkpt>
      <trkpt lat="50.13052" lon="4.09055">
        <ele>179</ele>
        <time>2019-11-10T10:53:36Z</time>
      </trkpt>
      <trkpt lat="50.13043" lon="4.0906">
        <ele>178.2</ele>
        <time>2019-11-10T10:53:42Z</time>
      </trkpt>
      <trkpt lat="50.13035" lon="4.09066">
        <ele>178.6</ele>
        <time>2019-11-10T10:53:48Z</time>
      </trkpt>
      <trkpt lat="50.13025" lon="4.09066">
        <ele>178.3</ele>
        <time>2019-11-10T10:53:55Z</time>
      </trkpt>
      <trkpt lat="50.13016" lon="4.09062">
        <ele>177.9</ele>
        <time>2019-11-10T10:54:02Z</time>
      </trkpt>
      <trkpt lat="50.13006" lon="4.09059">
        <ele>178.2</ele>
        <time>2019-11-10T10:54:09Z</time>
      </trkpt>
      <trkpt lat="50.12997" lon="4.09058">
        <ele>178</ele>
        <time>2019-11-10T10:54:15Z</time>
      </trkpt>
      <trkpt lat="50.12987" lon="4.09055">
        <ele>178</ele>
        <time>2019-11-10T10:54:22Z</time>
      </trkpt>
      <trkpt lat="50.1298" lon="4.09046">
        <ele>178.2</ele>
        <time>2019-11-10T10:54:30Z</time>
      </trkpt>
      <trkpt lat="50.12972" lon="4.09039">
        <ele>178.2</ele>
        <time>2019-11-10T10:54:37Z</time>
      </trkpt>
      <trkpt lat="50.12963" lon="4.09037">
        <ele>178</ele>
        <time>2019-11-10T10:54:43Z</time>
      </trkpt>
      <trkpt lat="50.12954" lon="4.09032">
        <ele>178.2</ele>
        <time>2019-11-10T10:54:49Z</time>
      </trkpt>
      <trkpt lat="50.12944" lon="4.09024">
        <ele>178.5</ele>
        <time>2019-11-10T10:54:56Z</time>
      </trkpt>
      <trkpt lat="50.12936" lon="4.09016">
        <ele>178.5</ele>
        <time>2019-11-10T10:55:02Z</time>
      </trkpt>
      <trkpt lat="50.12928" lon="4.09009">
        <ele>178.6</ele>
        <time>2019-11-10T10:55:09Z</time>
      </trkpt>
      <trkpt lat="50.12919" lon="4.09003">
        <ele>179</ele>
        <time>2019-11-10T10:55:16Z</time>
      </trkpt>
      <trkpt lat="50.12911" lon="4.08995">
        <ele>179</ele>
        <time>2019-11-10T10:55:23Z</time>
      </trkpt>
      <trkpt lat="50.12902" lon="4.08989">
        <ele>179.7</ele>
        <time>2019-11-10T10:55:29Z</time>
      </trkpt>
      <trkpt lat="50.12893" lon="4.08983">
        <ele>180</ele>
        <time>2019-11-10T10:55:35Z</time>
      </trkpt>
      <trkpt lat="50.12883" lon="4.0898">
        <ele>180.4</ele>
        <time>2019-11-10T10:55:41Z</time>
      </trkpt>
      <trkpt lat="50.12874" lon="4.08978">
        <ele>180.6</ele>
        <time>2019-11-10T10:55:48Z</time>
      </trkpt>
      <trkpt lat="50.12865" lon="4.08973">
        <ele>181.2</ele>
        <time>2019-11-10T10:55:55Z</time>
      </trkpt>
      <trkpt lat="50.12855" lon="4.08969">
        <ele>181.4</ele>
        <time>2019-11-10T10:56:02Z</time>
      </trkpt>
      <trkpt lat="50.12846" lon="4.08962">
        <ele>181.3</ele>
        <time>2019-11-10T10:56:11Z</time>
      </trkpt>
      <trkpt lat="50.12837" lon="4.08954">
        <ele>181.7</ele>
        <time>2019-11-10T10:56:18Z</time>
      </trkpt>
      <trkpt lat="50.12827" lon="4.08948">
        <ele>181.5</ele>
        <time>2019-11-10T10:56:25Z</time>
      </trkpt>
      <trkpt lat="50.12819" lon="4.08939">
        <ele>181.8</ele>
        <time>2019-11-10T10:56:31Z</time>
      </trkpt>
      <trkpt lat="50.12812" lon="4.0893">
        <ele>182.2</ele>
        <time>2019-11-10T10:56:37Z</time>
      </trkpt>
      <trkpt lat="50.12805" lon="4.0892">
        <ele>182.3</ele>
        <time>2019-11-10T10:56:44Z</time>
      </trkpt>
      <trkpt lat="50.12798" lon="4.08912">
        <ele>183</ele>
        <time>2019-11-10T10:56:50Z</time>
      </trkpt>
      <trkpt lat="50.12788" lon="4.08905">
        <ele>183.1</ele>
        <time>2019-11-10T10:56:56Z</time>
      </trkpt>
      <trkpt lat="50.12781" lon="4.08894">
        <ele>183.9</ele>
        <time>2019-11-10T10:57:03Z</time>
      </trkpt>
      <trkpt lat="50.12775" lon="4.08884">
        <ele>184</ele>
        <time>2019-11-10T10:57:10Z</time>
      </trkpt>
      <trkpt lat="50.1277" lon="4.08872">
        <ele>185</ele>
        <time>2019-11-10T10:57:17Z</time>
      </trkpt>
      <trkpt lat="50.12766" lon="4.08858">
        <ele>184.8</ele>
        <time>2019-11-10T10:57:25Z</time>
      </trkpt>
      <trkpt lat="50.12761" lon="4.08844">
        <ele>184</ele>
        <time>2019-11-10T10:57:33Z</time>
      </trkpt>
      <trkpt lat="50.12757" lon="4.08831">
        <ele>182.9</ele>
        <time>2019-11-10T10:57:43Z</time>
      </trkpt>
      <trkpt lat="50.12755" lon="4.08816">
        <ele>181.8</ele>
        <time>2019-11-10T10:57:52Z</time>
      </trkpt>
      <trkpt lat="50.12753" lon="4.08801">
        <ele>181.4</ele>
        <time>2019-11-10T10:57:59Z</time>
      </trkpt>
      <trkpt lat="50.12753" lon="4.08786">
        <ele>181</ele>
        <time>2019-11-10T10:58:08Z</time>
      </trkpt>
      <trkpt lat="50.12755" lon="4.08772">
        <ele>180</ele>
        <time>2019-11-10T10:58:15Z</time>
      </trkpt>
      <trkpt lat="50.12759" lon="4.08758">
        <ele>179.9</ele>
        <time>2019-11-10T10:58:23Z</time>
      </trkpt>
      <trkpt lat="50.12761" lon="4.08744">
        <ele>179.5</ele>
        <time>2019-11-10T10:58:29Z</time>
      </trkpt>
      <trkpt lat="50.1276" lon="4.08728">
        <ele>179.3</ele>
        <time>2019-11-10T10:58:37Z</time>
      </trkpt>
      <trkpt lat="50.12759" lon="4.08712">
        <ele>178.6</ele>
        <time>2019-11-10T10:58:45Z</time>
      </trkpt>
      <trkpt lat="50.12759" lon="4.08698">
        <ele>177.8</ele>
        <time>2019-11-10T10:58:52Z</time>
      </trkpt>
      <trkpt lat="50.12759" lon="4.08684">
        <ele>176.9</ele>
        <time>2019-11-10T10:58:59Z</time>
      </trkpt>
      <trkpt lat="50.1276" lon="4.0867">
        <ele>175.9</ele>
        <time>2019-11-10T10:59:06Z</time>
      </trkpt>
      <trkpt lat="50.12762" lon="4.08656">
        <ele>175.7</ele>
        <time>2019-11-10T10:59:14Z</time>
      </trkpt>
      <trkpt lat="50.12764" lon="4.08642">
        <ele>175.5</ele>
        <time>2019-11-10T10:59:20Z</time>
      </trkpt>
      <trkpt lat="50.12763" lon="4.08627">
        <ele>175.4</ele>
        <time>2019-11-10T10:59:26Z</time>
      </trkpt>
      <trkpt lat="50.12759" lon="4.08613">
        <ele>175.3</ele>
        <time>2019-11-10T10:59:33Z</time>
      </trkpt>
      <trkpt lat="50.12752" lon="4.08603">
        <ele>175.4</ele>
        <time>2019-11-10T10:59:40Z</time>
      </trkpt>
      <trkpt lat="50.12745" lon="4.08594">
        <ele>175.2</ele>
        <time>2019-11-10T10:59:46Z</time>
      </trkpt>
      <trkpt lat="50.12736" lon="4.08587">
        <ele>175.5</ele>
        <time>2019-11-10T10:59:53Z</time>
      </trkpt>
      <trkpt lat="50.12727" lon="4.0858">
        <ele>175.7</ele>
        <time>2019-11-10T11:00:00Z</time>
      </trkpt>
      <trkpt lat="50.1272" lon="4.08571">
        <ele>176.1</ele>
        <time>2019-11-10T11:00:07Z</time>
      </trkpt>
      <trkpt lat="50.1271" lon="4.08564">
        <ele>176.7</ele>
        <time>2019-11-10T11:00:15Z</time>
      </trkpt>
      <trkpt lat="50.12703" lon="4.08554">
        <ele>176.8</ele>
        <time>2019-11-10T11:00:23Z</time>
      </trkpt>
      <trkpt lat="50.12698" lon="4.08542">
        <ele>177.3</ele>
        <time>2019-11-10T11:00:30Z</time>
      </trkpt>
      <trkpt lat="50.12692" lon="4.08529">
        <ele>177.4</ele>
        <time>2019-11-10T11:00:38Z</time>
      </trkpt>
      <trkpt lat="50.12687" lon="4.08517">
        <ele>176.7</ele>
        <time>2019-11-10T11:00:45Z</time>
      </trkpt>
      <trkpt lat="50.12681" lon="4.08507">
        <ele>176.4</ele>
        <time>2019-11-10T11:00:53Z</time>
      </trkpt>
      <trkpt lat="50.12676" lon="4.08494">
        <ele>176.2</ele>
        <time>2019-11-10T11:01:02Z</time>
      </trkpt>
      <trkpt lat="50.12671" lon="4.08483">
        <ele>176.3</ele>
        <time>2019-11-10T11:01:16Z</time>
      </trkpt>
      <trkpt lat="50.12665" lon="4.08471">
        <ele>175.6</ele>
        <time>2019-11-10T11:01:23Z</time>
      </trkpt>
      <trkpt lat="50.1266" lon="4.08458">
        <ele>175.8</ele>
        <time>2019-11-10T11:01:30Z</time>
      </trkpt>
      <trkpt lat="50.12656" lon="4.08444">
        <ele>176</ele>
        <time>2019-11-10T11:01:38Z</time>
      </trkpt>
      <trkpt lat="50.12649" lon="4.08433">
        <ele>175.6</ele>
        <time>2019-11-10T11:01:45Z</time>
      </trkpt>
      <trkpt lat="50.12642" lon="4.08424">
        <ele>175.7</ele>
        <time>2019-11-10T11:01:51Z</time>
      </trkpt>
      <trkpt lat="50.12635" lon="4.08414">
        <ele>175.5</ele>
        <time>2019-11-10T11:01:58Z</time>
      </trkpt>
      <trkpt lat="50.12627" lon="4.08405">
        <ele>175.5</ele>
        <time>2019-11-10T11:02:05Z</time>
      </trkpt>
      <trkpt lat="50.12619" lon="4.08398">
        <ele>175.9</ele>
        <time>2019-11-10T11:02:11Z</time>
      </trkpt>
      <trkpt lat="50.12611" lon="4.08389">
        <ele>175.8</ele>
        <time>2019-11-10T11:02:18Z</time>
      </trkpt>
      <trkpt lat="50.12603" lon="4.08381">
        <ele>176</ele>
        <time>2019-11-10T11:02:25Z</time>
      </trkpt>
      <trkpt lat="50.12595" lon="4.08373">
        <ele>176</ele>
        <time>2019-11-10T11:02:32Z</time>
      </trkpt>
      <trkpt lat="50.12587" lon="4.08364">
        <ele>176.5</ele>
        <time>2019-11-10T11:02:39Z</time>
      </trkpt>
      <trkpt lat="50.1258" lon="4.08354">
        <ele>176.6</ele>
        <time>2019-11-10T11:02:46Z</time>
      </trkpt>
      <trkpt lat="50.12572" lon="4.08344">
        <ele>177.1</ele>
        <time>2019-11-10T11:02:53Z</time>
      </trkpt>
      <trkpt lat="50.12564" lon="4.08335">
        <ele>177.1</ele>
        <time>2019-11-10T11:03:01Z</time>
      </trkpt>
      <trkpt lat="50.12555" lon="4.08326">
        <ele>177</ele>
        <time>2019-11-10T11:03:08Z</time>
      </trkpt>
      <trkpt lat="50.12548" lon="4.08315">
        <ele>176.6</ele>
        <time>2019-11-10T11:03:16Z</time>
      </trkpt>
      <trkpt lat="50.12546" lon="4.08301">
        <ele>176.5</ele>
        <time>2019-11-10T11:03:23Z</time>
      </trkpt>
      <trkpt lat="50.1254" lon="4.08288">
        <ele>176.6</ele>
        <time>2019-11-10T11:03:31Z</time>
      </trkpt>
      <trkpt lat="50.12532" lon="4.08281">
        <ele>176.7</ele>
        <time>2019-11-10T11:03:41Z</time>
      </trkpt>
      <trkpt lat="50.12524" lon="4.08273">
        <ele>177.2</ele>
        <time>2019-11-10T11:03:52Z</time>
      </trkpt>
      <trkpt lat="50.12517" lon="4.08263">
        <ele>177.2</ele>
        <time>2019-11-10T11:04:00Z</time>
      </trkpt>
      <trkpt lat="50.12508" lon="4.08258">
        <ele>178.2</ele>
        <time>2019-11-10T11:04:10Z</time>
      </trkpt>
      <trkpt lat="50.125" lon="4.08254">
        <ele>180.5</ele>
        <time>2019-11-10T11:04:21Z</time>
      </trkpt>
      <trkpt lat="50.12491" lon="4.08249">
        <ele>182.2</ele>
        <time>2019-11-10T11:04:30Z</time>
      </trkpt>
      <trkpt lat="50.12482" lon="4.08249">
        <ele>183.3</ele>
        <time>2019-11-10T11:04:40Z</time>
      </trkpt>
      <trkpt lat="50.12472" lon="4.08246">
        <ele>185</ele>
        <time>2019-11-10T11:04:48Z</time>
      </trkpt>
      <trkpt lat="50.12463" lon="4.08244">
        <ele>186.3</ele>
        <time>2019-11-10T11:04:56Z</time>
      </trkpt>
      <trkpt lat="50.12453" lon="4.08245">
        <ele>186.4</ele>
        <time>2019-11-10T11:05:04Z</time>
      </trkpt>
      <trkpt lat="50.12444" lon="4.08249">
        <ele>186.2</ele>
        <time>2019-11-10T11:05:12Z</time>
      </trkpt>
      <trkpt lat="50.12434" lon="4.08254">
        <ele>185.7</ele>
        <time>2019-11-10T11:05:20Z</time>
      </trkpt>
      <trkpt lat="50.12425" lon="4.08256">
        <ele>185.3</ele>
        <time>2019-11-10T11:05:27Z</time>
      </trkpt>
      <trkpt lat="50.12417" lon="4.08264">
        <ele>184.8</ele>
        <time>2019-11-10T11:05:35Z</time>
      </trkpt>
      <trkpt lat="50.12411" lon="4.08275">
        <ele>184.4</ele>
        <time>2019-11-10T11:05:43Z</time>
      </trkpt>
      <trkpt lat="50.12402" lon="4.0828">
        <ele>184.3</ele>
        <time>2019-11-10T11:05:51Z</time>
      </trkpt>
      <trkpt lat="50.12396" lon="4.08271">
        <ele>183.6</ele>
        <time>2019-11-10T11:05:58Z</time>
      </trkpt>
      <trkpt lat="50.1239" lon="4.0826">
        <ele>182.9</ele>
        <time>2019-11-10T11:06:05Z</time>
      </trkpt>
      <trkpt lat="50.12383" lon="4.08249">
        <ele>181.1</ele>
        <time>2019-11-10T11:06:13Z</time>
      </trkpt>
      <trkpt lat="50.12376" lon="4.08239">
        <ele>180.7</ele>
        <time>2019-11-10T11:06:21Z</time>
      </trkpt>
      <trkpt lat="50.12369" lon="4.08229">
        <ele>180.2</ele>
        <time>2019-11-10T11:06:29Z</time>
      </trkpt>
      <trkpt lat="50.12362" lon="4.08217">
        <ele>179.5</ele>
        <time>2019-11-10T11:06:37Z</time>
      </trkpt>
      <trkpt lat="50.12355" lon="4.08207">
        <ele>179.3</ele>
        <time>2019-11-10T11:06:45Z</time>
      </trkpt>
      <trkpt lat="50.12348" lon="4.08198">
        <ele>178.8</ele>
        <time>2019-11-10T11:06:53Z</time>
      </trkpt>
      <trkpt lat="50.1234" lon="4.08188">
        <ele>178.3</ele>
        <time>2019-11-10T11:07:01Z</time>
      </trkpt>
      <trkpt lat="50.12334" lon="4.08176">
        <ele>178.3</ele>
        <time>2019-11-10T11:07:09Z</time>
      </trkpt>
      <trkpt lat="50.12327" lon="4.08167">
        <ele>178.2</ele>
        <time>2019-11-10T11:07:16Z</time>
      </trkpt>
      <trkpt lat="50.1232" lon="4.08156">
        <ele>177.6</ele>
        <time>2019-11-10T11:07:24Z</time>
      </trkpt>
      <trkpt lat="50.12313" lon="4.08145">
        <ele>177</ele>
        <time>2019-11-10T11:07:32Z</time>
      </trkpt>
      <trkpt lat="50.12306" lon="4.08135">
        <ele>176.4</ele>
        <time>2019-11-10T11:07:39Z</time>
      </trkpt>
      <trkpt lat="50.12299" lon="4.08125">
        <ele>175.8</ele>
        <time>2019-11-10T11:07:46Z</time>
      </trkpt>
      <trkpt lat="50.12292" lon="4.08114">
        <ele>175.6</ele>
        <time>2019-11-10T11:07:55Z</time>
      </trkpt>
      <trkpt lat="50.12285" lon="4.08105">
        <ele>174.9</ele>
        <time>2019-11-10T11:08:03Z</time>
      </trkpt>
      <trkpt lat="50.12278" lon="4.08094">
        <ele>175</ele>
        <time>2019-11-10T11:08:11Z</time>
      </trkpt>
      <trkpt lat="50.12269" lon="4.08087">
        <ele>174.6</ele>
        <time>2019-11-10T11:08:19Z</time>
      </trkpt>
      <trkpt lat="50.12261" lon="4.08082">
        <ele>173.9</ele>
        <time>2019-11-10T11:08:26Z</time>
      </trkpt>
      <trkpt lat="50.12252" lon="4.08073">
        <ele>173.7</ele>
        <time>2019-11-10T11:08:35Z</time>
      </trkpt>
      <trkpt lat="50.12244" lon="4.08065">
        <ele>173.2</ele>
        <time>2019-11-10T11:08:42Z</time>
      </trkpt>
      <trkpt lat="50.12236" lon="4.08057">
        <ele>173.4</ele>
        <time>2019-11-10T11:08:49Z</time>
      </trkpt>
      <trkpt lat="50.12227" lon="4.08052">
        <ele>172.8</ele>
        <time>2019-11-10T11:08:56Z</time>
      </trkpt>
      <trkpt lat="50.12217" lon="4.08058">
        <ele>172.6</ele>
        <time>2019-11-10T11:09:04Z</time>
      </trkpt>
      <trkpt lat="50.12208" lon="4.08061">
        <ele>172</ele>
        <time>2019-11-10T11:09:19Z</time>
      </trkpt>
      <trkpt lat="50.12199" lon="4.08066">
        <ele>170.9</ele>
        <time>2019-11-10T11:09:29Z</time>
      </trkpt>
      <trkpt lat="50.1219" lon="4.08071">
        <ele>170.4</ele>
        <time>2019-11-10T11:09:36Z</time>
      </trkpt>
      <trkpt lat="50.12181" lon="4.08075">
        <ele>170</ele>
        <time>2019-11-10T11:09:44Z</time>
      </trkpt>
      <trkpt lat="50.12172" lon="4.08083">
        <ele>169.7</ele>
        <time>2019-11-10T11:09:52Z</time>
      </trkpt>
      <trkpt lat="50.12163" lon="4.08088">
        <ele>169</ele>
        <time>2019-11-10T11:09:58Z</time>
      </trkpt>
      <trkpt lat="50.12155" lon="4.08092">
        <ele>168.8</ele>
        <time>2019-11-10T11:10:05Z</time>
      </trkpt>
      <trkpt lat="50.12145" lon="4.08098">
        <ele>167.9</ele>
        <time>2019-11-10T11:10:13Z</time>
      </trkpt>
      <trkpt lat="50.12137" lon="4.08104">
        <ele>167.5</ele>
        <time>2019-11-10T11:10:20Z</time>
      </trkpt>
      <trkpt lat="50.12128" lon="4.08106">
        <ele>166.7</ele>
        <time>2019-11-10T11:10:28Z</time>
      </trkpt>
      <trkpt lat="50.12119" lon="4.08103">
        <ele>165.6</ele>
        <time>2019-11-10T11:10:35Z</time>
      </trkpt>
      <trkpt lat="50.1211" lon="4.08099">
        <ele>165.2</ele>
        <time>2019-11-10T11:10:42Z</time>
      </trkpt>
      <trkpt lat="50.12102" lon="4.0809">
        <ele>165.3</ele>
        <time>2019-11-10T11:10:50Z</time>
      </trkpt>
      <trkpt lat="50.12099" lon="4.08077">
        <ele>164.7</ele>
        <time>2019-11-10T11:10:58Z</time>
      </trkpt>
      <trkpt lat="50.121" lon="4.08062">
        <ele>164.6</ele>
        <time>2019-11-10T11:11:31Z</time>
      </trkpt>
      <trkpt lat="50.12102" lon="4.08046">
        <ele>164.6</ele>
        <time>2019-11-10T11:11:43Z</time>
      </trkpt>
      <trkpt lat="50.121" lon="4.08032">
        <ele>165</ele>
        <time>2019-11-10T11:11:51Z</time>
      </trkpt>
      <trkpt lat="50.12094" lon="4.08021">
        <ele>165</ele>
        <time>2019-11-10T11:12:09Z</time>
      </trkpt>
      <trkpt lat="50.12089" lon="4.08009">
        <ele>164.2</ele>
        <time>2019-11-10T11:12:16Z</time>
      </trkpt>
      <trkpt lat="50.12082" lon="4.07997">
        <ele>163.7</ele>
        <time>2019-11-10T11:12:32Z</time>
      </trkpt>
      <trkpt lat="50.12076" lon="4.07985">
        <ele>163.8</ele>
        <time>2019-11-10T11:12:39Z</time>
      </trkpt>
      <trkpt lat="50.12069" lon="4.07975">
        <ele>163.7</ele>
        <time>2019-11-10T11:12:46Z</time>
      </trkpt>
      <trkpt lat="50.12063" lon="4.07965">
        <ele>163.7</ele>
        <time>2019-11-10T11:12:53Z</time>
      </trkpt>
      <trkpt lat="50.12056" lon="4.07954">
        <ele>163.6</ele>
        <time>2019-11-10T11:13:01Z</time>
      </trkpt>
      <trkpt lat="50.12049" lon="4.07942">
        <ele>163.2</ele>
        <time>2019-11-10T11:13:27Z</time>
      </trkpt>
      <trkpt lat="50.12043" lon="4.07929">
        <ele>163.1</ele>
        <time>2019-11-10T11:13:34Z</time>
      </trkpt>
      <trkpt lat="50.12038" lon="4.07918">
        <ele>162.9</ele>
        <time>2019-11-10T11:13:41Z</time>
      </trkpt>
      <trkpt lat="50.12033" lon="4.07905">
        <ele>163.1</ele>
        <time>2019-11-10T11:13:48Z</time>
      </trkpt>
      <trkpt lat="50.12028" lon="4.07892">
        <ele>163.1</ele>
        <time>2019-11-10T11:13:56Z</time>
      </trkpt>
      <trkpt lat="50.12023" lon="4.07879">
        <ele>163</ele>
        <time>2019-11-10T11:14:03Z</time>
      </trkpt>
      <trkpt lat="50.12017" lon="4.07866">
        <ele>163.4</ele>
        <time>2019-11-10T11:14:10Z</time>
      </trkpt>
      <trkpt lat="50.12011" lon="4.07854">
        <ele>162.9</ele>
        <time>2019-11-10T11:14:17Z</time>
      </trkpt>
      <trkpt lat="50.12005" lon="4.07844">
        <ele>163.8</ele>
        <time>2019-11-10T11:14:23Z</time>
      </trkpt>
      <trkpt lat="50.11999" lon="4.07833">
        <ele>164.1</ele>
        <time>2019-11-10T11:14:30Z</time>
      </trkpt>
      <trkpt lat="50.11993" lon="4.07821">
        <ele>163.9</ele>
        <time>2019-11-10T11:14:45Z</time>
      </trkpt>
      <trkpt lat="50.11987" lon="4.07811">
        <ele>163.6</ele>
        <time>2019-11-10T11:14:56Z</time>
      </trkpt>
      <trkpt lat="50.11979" lon="4.07802">
        <ele>164.1</ele>
        <time>2019-11-10T11:15:06Z</time>
      </trkpt>
      <trkpt lat="50.1197" lon="4.07809">
        <ele>163.9</ele>
        <time>2019-11-10T11:15:14Z</time>
      </trkpt>
      <trkpt lat="50.11964" lon="4.07821">
        <ele>164.2</ele>
        <time>2019-11-10T11:15:22Z</time>
      </trkpt>
      <trkpt lat="50.11954" lon="4.07823">
        <ele>164</ele>
        <time>2019-11-10T11:15:30Z</time>
      </trkpt>
      <trkpt lat="50.11946" lon="4.0783">
        <ele>164.4</ele>
        <time>2019-11-10T11:15:49Z</time>
      </trkpt>
      <trkpt lat="50.11938" lon="4.0784">
        <ele>165.1</ele>
        <time>2019-11-10T11:15:57Z</time>
      </trkpt>
      <trkpt lat="50.1193" lon="4.07848">
        <ele>165.4</ele>
        <time>2019-11-10T11:16:05Z</time>
      </trkpt>
      <trkpt lat="50.11923" lon="4.07859">
        <ele>165.1</ele>
        <time>2019-11-10T11:16:26Z</time>
      </trkpt>
      <trkpt lat="50.11915" lon="4.07866">
        <ele>165.1</ele>
        <time>2019-11-10T11:16:33Z</time>
      </trkpt>
      <trkpt lat="50.11908" lon="4.07875">
        <ele>164.6</ele>
        <time>2019-11-10T11:16:40Z</time>
      </trkpt>
      <trkpt lat="50.11901" lon="4.07884">
        <ele>164.5</ele>
        <time>2019-11-10T11:16:47Z</time>
      </trkpt>
      <trkpt lat="50.11894" lon="4.07896">
        <ele>164.1</ele>
        <time>2019-11-10T11:16:55Z</time>
      </trkpt>
      <trkpt lat="50.11886" lon="4.07906">
        <ele>164.3</ele>
        <time>2019-11-10T11:17:03Z</time>
      </trkpt>
      <trkpt lat="50.1188" lon="4.07917">
        <ele>164</ele>
        <time>2019-11-10T11:17:10Z</time>
      </trkpt>
      <trkpt lat="50.11873" lon="4.07929">
        <ele>163.9</ele>
        <time>2019-11-10T11:17:18Z</time>
      </trkpt>
      <trkpt lat="50.11868" lon="4.07942">
        <ele>163.8</ele>
        <time>2019-11-10T11:17:26Z</time>
      </trkpt>
      <trkpt lat="50.11862" lon="4.07954">
        <ele>163.7</ele>
        <time>2019-11-10T11:17:34Z</time>
      </trkpt>
      <trkpt lat="50.11857" lon="4.07966">
        <ele>163.5</ele>
        <time>2019-11-10T11:17:50Z</time>
      </trkpt>
      <trkpt lat="50.11852" lon="4.07978">
        <ele>163.4</ele>
        <time>2019-11-10T11:17:58Z</time>
      </trkpt>
      <trkpt lat="50.11847" lon="4.0799">
        <ele>163.9</ele>
        <time>2019-11-10T11:18:05Z</time>
      </trkpt>
      <trkpt lat="50.11842" lon="4.08002">
        <ele>164</ele>
        <time>2019-11-10T11:18:12Z</time>
      </trkpt>
      <trkpt lat="50.11836" lon="4.08014">
        <ele>164</ele>
        <time>2019-11-10T11:18:19Z</time>
      </trkpt>
      <trkpt lat="50.11831" lon="4.08027">
        <ele>163.8</ele>
        <time>2019-11-10T11:18:26Z</time>
      </trkpt>
      <trkpt lat="50.11827" lon="4.08041">
        <ele>164.2</ele>
        <time>2019-11-10T11:18:33Z</time>
      </trkpt>
      <trkpt lat="50.11823" lon="4.08055">
        <ele>163.9</ele>
        <time>2019-11-10T11:18:40Z</time>
      </trkpt>
      <trkpt lat="50.1182" lon="4.08068">
        <ele>164.3</ele>
        <time>2019-11-10T11:18:47Z</time>
      </trkpt>
      <trkpt lat="50.11817" lon="4.08083">
        <ele>164.5</ele>
        <time>2019-11-10T11:18:55Z</time>
      </trkpt>
      <trkpt lat="50.11816" lon="4.08098">
        <ele>164.6</ele>
        <time>2019-11-10T11:19:02Z</time>
      </trkpt>
      <trkpt lat="50.11814" lon="4.08114">
        <ele>164.8</ele>
        <time>2019-11-10T11:19:10Z</time>
      </trkpt>
      <trkpt lat="50.11814" lon="4.08129">
        <ele>165.5</ele>
        <time>2019-11-10T11:19:17Z</time>
      </trkpt>
      <trkpt lat="50.11815" lon="4.08144">
        <ele>165.6</ele>
        <time>2019-11-10T11:19:24Z</time>
      </trkpt>
      <trkpt lat="50.11816" lon="4.08158">
        <ele>166</ele>
        <time>2019-11-10T11:19:31Z</time>
      </trkpt>
      <trkpt lat="50.11817" lon="4.08174">
        <ele>166.8</ele>
        <time>2019-11-10T11:19:39Z</time>
      </trkpt>
      <trkpt lat="50.11816" lon="4.0819">
        <ele>167</ele>
        <time>2019-11-10T11:19:47Z</time>
      </trkpt>
      <trkpt lat="50.11812" lon="4.08204">
        <ele>167.5</ele>
        <time>2019-11-10T11:19:55Z</time>
      </trkpt>
      <trkpt lat="50.11807" lon="4.08216">
        <ele>167.7</ele>
        <time>2019-11-10T11:20:03Z</time>
      </trkpt>
      <trkpt lat="50.11804" lon="4.08229">
        <ele>168</ele>
        <time>2019-11-10T11:20:13Z</time>
      </trkpt>
      <trkpt lat="50.11805" lon="4.08244">
        <ele>168.5</ele>
        <time>2019-11-10T11:20:21Z</time>
      </trkpt>
      <trkpt lat="50.11814" lon="4.08253">
        <ele>169.1</ele>
        <time>2019-11-10T11:20:33Z</time>
      </trkpt>
      <trkpt lat="50.11823" lon="4.08255">
        <ele>169</ele>
        <time>2019-11-10T11:20:40Z</time>
      </trkpt>
      <trkpt lat="50.11833" lon="4.08256">
        <ele>169.1</ele>
        <time>2019-11-10T11:20:49Z</time>
      </trkpt>
      <trkpt lat="50.11839" lon="4.08266">
        <ele>169.3</ele>
        <time>2019-11-10T11:21:23Z</time>
      </trkpt>
      <trkpt lat="50.11841" lon="4.08252">
        <ele>169.6</ele>
        <time>2019-11-10T11:21:55Z</time>
      </trkpt>
      <trkpt lat="50.1185" lon="4.0825">
        <ele>169.4</ele>
        <time>2019-11-10T11:22:16Z</time>
      </trkpt>
      <trkpt lat="50.11851" lon="4.08265">
        <ele>169.4</ele>
        <time>2019-11-10T11:22:51Z</time>
      </trkpt>
      <trkpt lat="50.11845" lon="4.08254">
        <ele>169.5</ele>
        <time>2019-11-10T11:24:12Z</time>
      </trkpt>
      <trkpt lat="50.11837" lon="4.08263">
        <ele>169.5</ele>
        <time>2019-11-10T11:24:28Z</time>
      </trkpt>
      <trkpt lat="50.11833" lon="4.08276">
        <ele>169.6</ele>
        <time>2019-11-10T11:25:09Z</time>
      </trkpt>
      <trkpt lat="50.11828" lon="4.08264">
        <ele>169.1</ele>
        <time>2019-11-10T11:25:48Z</time>
      </trkpt>
      <trkpt lat="50.11818" lon="4.08263">
        <ele>169.4</ele>
        <time>2019-11-10T11:26:25Z</time>
      </trkpt>
      <trkpt lat="50.11809" lon="4.08259">
        <ele>169.3</ele>
        <time>2019-11-10T11:26:43Z</time>
      </trkpt>
      <trkpt lat="50.118" lon="4.0825">
        <ele>169.2</ele>
        <time>2019-11-10T11:26:53Z</time>
      </trkpt>
      <trkpt lat="50.11791" lon="4.08249">
        <ele>169</ele>
        <time>2019-11-10T11:26:59Z</time>
      </trkpt>
      <trkpt lat="50.11783" lon="4.08245">
        <ele>168.7</ele>
        <time>2019-11-10T11:27:05Z</time>
      </trkpt>
      <trkpt lat="50.11774" lon="4.08241">
        <ele>169</ele>
        <time>2019-11-10T11:27:11Z</time>
      </trkpt>
      <trkpt lat="50.11764" lon="4.08235">
        <ele>169.6</ele>
        <time>2019-11-10T11:27:28Z</time>
      </trkpt>
      <trkpt lat="50.11755" lon="4.0823">
        <ele>169.6</ele>
        <time>2019-11-10T11:27:35Z</time>
      </trkpt>
      <trkpt lat="50.11745" lon="4.08226">
        <ele>169.7</ele>
        <time>2019-11-10T11:27:42Z</time>
      </trkpt>
      <trkpt lat="50.11736" lon="4.08223">
        <ele>169.9</ele>
        <time>2019-11-10T11:27:49Z</time>
      </trkpt>
      <trkpt lat="50.11727" lon="4.0822">
        <ele>170.1</ele>
        <time>2019-11-10T11:27:57Z</time>
      </trkpt>
      <trkpt lat="50.11717" lon="4.08217">
        <ele>169.8</ele>
        <time>2019-11-10T11:28:05Z</time>
      </trkpt>
      <trkpt lat="50.11708" lon="4.08216">
        <ele>170.1</ele>
        <time>2019-11-10T11:28:14Z</time>
      </trkpt>
      <trkpt lat="50.11698" lon="4.08214">
        <ele>170</ele>
        <time>2019-11-10T11:28:23Z</time>
      </trkpt>
      <trkpt lat="50.11688" lon="4.08213">
        <ele>169.9</ele>
        <time>2019-11-10T11:28:31Z</time>
      </trkpt>
      <trkpt lat="50.11678" lon="4.08212">
        <ele>169.5</ele>
        <time>2019-11-10T11:28:39Z</time>
      </trkpt>
      <trkpt lat="50.11669" lon="4.08212">
        <ele>170.2</ele>
        <time>2019-11-10T11:28:47Z</time>
      </trkpt>
      <trkpt lat="50.1166" lon="4.08213">
        <ele>169.9</ele>
        <time>2019-11-10T11:28:55Z</time>
      </trkpt>
      <trkpt lat="50.1165" lon="4.08217">
        <ele>170.4</ele>
        <time>2019-11-10T11:29:03Z</time>
      </trkpt>
      <trkpt lat="50.11641" lon="4.0822">
        <ele>170.4</ele>
        <time>2019-11-10T11:29:11Z</time>
      </trkpt>
      <trkpt lat="50.11632" lon="4.08223">
        <ele>170.7</ele>
        <time>2019-11-10T11:29:18Z</time>
      </trkpt>
      <trkpt lat="50.11622" lon="4.08221">
        <ele>170.4</ele>
        <time>2019-11-10T11:29:26Z</time>
      </trkpt>
      <trkpt lat="50.11614" lon="4.08212">
        <ele>169.8</ele>
        <time>2019-11-10T11:29:35Z</time>
      </trkpt>
      <trkpt lat="50.11606" lon="4.08203">
        <ele>169.4</ele>
        <time>2019-11-10T11:29:43Z</time>
      </trkpt>
      <trkpt lat="50.11601" lon="4.08191">
        <ele>168.5</ele>
        <time>2019-11-10T11:29:51Z</time>
      </trkpt>
      <trkpt lat="50.11597" lon="4.08176">
        <ele>168</ele>
        <time>2019-11-10T11:29:59Z</time>
      </trkpt>
      <trkpt lat="50.11596" lon="4.0816">
        <ele>167.7</ele>
        <time>2019-11-10T11:30:07Z</time>
      </trkpt>
      <trkpt lat="50.11597" lon="4.08145">
        <ele>167</ele>
        <time>2019-11-10T11:30:15Z</time>
      </trkpt>
      <trkpt lat="50.116" lon="4.08131">
        <ele>166.7</ele>
        <time>2019-11-10T11:30:23Z</time>
      </trkpt>
      <trkpt lat="50.11603" lon="4.08117">
        <ele>166.5</ele>
        <time>2019-11-10T11:30:30Z</time>
      </trkpt>
      <trkpt lat="50.11606" lon="4.08103">
        <ele>166.5</ele>
        <time>2019-11-10T11:30:38Z</time>
      </trkpt>
      <trkpt lat="50.11608" lon="4.08089">
        <ele>166</ele>
        <time>2019-11-10T11:30:45Z</time>
      </trkpt>
      <trkpt lat="50.11611" lon="4.08074">
        <ele>165.6</ele>
        <time>2019-11-10T11:30:53Z</time>
      </trkpt>
      <trkpt lat="50.11612" lon="4.08059">
        <ele>165.5</ele>
        <time>2019-11-10T11:31:01Z</time>
      </trkpt>
      <trkpt lat="50.11611" lon="4.08044">
        <ele>165.4</ele>
        <time>2019-11-10T11:31:09Z</time>
      </trkpt>
      <trkpt lat="50.11609" lon="4.08028">
        <ele>165</ele>
        <time>2019-11-10T11:31:17Z</time>
      </trkpt>
      <trkpt lat="50.11606" lon="4.08014">
        <ele>164.9</ele>
        <time>2019-11-10T11:31:24Z</time>
      </trkpt>
      <trkpt lat="50.11602" lon="4.08001">
        <ele>165.2</ele>
        <time>2019-11-10T11:31:31Z</time>
      </trkpt>
      <trkpt lat="50.11596" lon="4.0799">
        <ele>164.7</ele>
        <time>2019-11-10T11:31:38Z</time>
      </trkpt>
      <trkpt lat="50.11588" lon="4.07979">
        <ele>164.4</ele>
        <time>2019-11-10T11:31:46Z</time>
      </trkpt>
      <trkpt lat="50.11582" lon="4.07967">
        <ele>164.6</ele>
        <time>2019-11-10T11:31:54Z</time>
      </trkpt>
      <trkpt lat="50.11576" lon="4.07955">
        <ele>164.6</ele>
        <time>2019-11-10T11:32:01Z</time>
      </trkpt>
      <trkpt lat="50.1157" lon="4.07944">
        <ele>164.6</ele>
        <time>2019-11-10T11:32:08Z</time>
      </trkpt>
      <trkpt lat="50.11562" lon="4.07933">
        <ele>164.3</ele>
        <time>2019-11-10T11:32:15Z</time>
      </trkpt>
      <trkpt lat="50.11558" lon="4.0792">
        <ele>164.4</ele>
        <time>2019-11-10T11:32:22Z</time>
      </trkpt>
      <trkpt lat="50.11552" lon="4.07908">
        <ele>164.4</ele>
        <time>2019-11-10T11:32:29Z</time>
      </trkpt>
      <trkpt lat="50.11547" lon="4.07896">
        <ele>164.7</ele>
        <time>2019-11-10T11:32:36Z</time>
      </trkpt>
      <trkpt lat="50.11542" lon="4.07883">
        <ele>164.7</ele>
        <time>2019-11-10T11:32:44Z</time>
      </trkpt>
      <trkpt lat="50.11537" lon="4.0787">
        <ele>165</ele>
        <time>2019-11-10T11:32:51Z</time>
      </trkpt>
      <trkpt lat="50.11532" lon="4.07858">
        <ele>164.9</ele>
        <time>2019-11-10T11:32:58Z</time>
      </trkpt>
      <trkpt lat="50.11526" lon="4.07845">
        <ele>165</ele>
        <time>2019-11-10T11:33:06Z</time>
      </trkpt>
      <trkpt lat="50.1152" lon="4.07832">
        <ele>165.2</ele>
        <time>2019-11-10T11:33:14Z</time>
      </trkpt>
      <trkpt lat="50.11515" lon="4.07821">
        <ele>165.2</ele>
        <time>2019-11-10T11:33:21Z</time>
      </trkpt>
      <trkpt lat="50.11509" lon="4.07808">
        <ele>165.3</ele>
        <time>2019-11-10T11:33:28Z</time>
      </trkpt>
      <trkpt lat="50.11502" lon="4.07798">
        <ele>165.7</ele>
        <time>2019-11-10T11:33:34Z</time>
      </trkpt>
      <trkpt lat="50.11494" lon="4.07789">
        <ele>165.7</ele>
        <time>2019-11-10T11:33:41Z</time>
      </trkpt>
      <trkpt lat="50.11486" lon="4.07779">
        <ele>166.1</ele>
        <time>2019-11-10T11:33:49Z</time>
      </trkpt>
      <trkpt lat="50.11478" lon="4.07773">
        <ele>165.9</ele>
        <time>2019-11-10T11:33:55Z</time>
      </trkpt>
      <trkpt lat="50.11469" lon="4.07767">
        <ele>166</ele>
        <time>2019-11-10T11:34:02Z</time>
      </trkpt>
      <trkpt lat="50.11461" lon="4.07759">
        <ele>166.2</ele>
        <time>2019-11-10T11:34:10Z</time>
      </trkpt>
      <trkpt lat="50.11453" lon="4.07754">
        <ele>166.8</ele>
        <time>2019-11-10T11:34:16Z</time>
      </trkpt>
      <trkpt lat="50.11444" lon="4.07749">
        <ele>166.5</ele>
        <time>2019-11-10T11:34:31Z</time>
      </trkpt>
      <trkpt lat="50.11436" lon="4.07741">
        <ele>167</ele>
        <time>2019-11-10T11:34:39Z</time>
      </trkpt>
      <trkpt lat="50.11427" lon="4.07735">
        <ele>167</ele>
        <time>2019-11-10T11:34:47Z</time>
      </trkpt>
      <trkpt lat="50.11418" lon="4.07729">
        <ele>167.9</ele>
        <time>2019-11-10T11:34:55Z</time>
      </trkpt>
      <trkpt lat="50.11409" lon="4.07724">
        <ele>168.4</ele>
        <time>2019-11-10T11:35:02Z</time>
      </trkpt>
      <trkpt lat="50.114" lon="4.07717">
        <ele>168.8</ele>
        <time>2019-11-10T11:35:10Z</time>
      </trkpt>
      <trkpt lat="50.1139" lon="4.07713">
        <ele>169.1</ele>
        <time>2019-11-10T11:35:17Z</time>
      </trkpt>
      <trkpt lat="50.11381" lon="4.07709">
        <ele>168.8</ele>
        <time>2019-11-10T11:35:24Z</time>
      </trkpt>
      <trkpt lat="50.11372" lon="4.07704">
        <ele>168.9</ele>
        <time>2019-11-10T11:35:31Z</time>
      </trkpt>
      <trkpt lat="50.11363" lon="4.077">
        <ele>168.8</ele>
        <time>2019-11-10T11:35:38Z</time>
      </trkpt>
      <trkpt lat="50.11353" lon="4.07695">
        <ele>169.1</ele>
        <time>2019-11-10T11:35:45Z</time>
      </trkpt>
      <trkpt lat="50.11344" lon="4.0769">
        <ele>168.7</ele>
        <time>2019-11-10T11:35:52Z</time>
      </trkpt>
      <trkpt lat="50.11336" lon="4.07686">
        <ele>168.9</ele>
        <time>2019-11-10T11:35:59Z</time>
      </trkpt>
      <trkpt lat="50.11327" lon="4.0768">
        <ele>169</ele>
        <time>2019-11-10T11:36:06Z</time>
      </trkpt>
      <trkpt lat="50.11318" lon="4.07674">
        <ele>168.8</ele>
        <time>2019-11-10T11:36:13Z</time>
      </trkpt>
      <trkpt lat="50.1131" lon="4.07666">
        <ele>168.4</ele>
        <time>2019-11-10T11:36:21Z</time>
      </trkpt>
      <trkpt lat="50.11303" lon="4.07657">
        <ele>168.4</ele>
        <time>2019-11-10T11:36:29Z</time>
      </trkpt>
      <trkpt lat="50.11296" lon="4.07648">
        <ele>168.3</ele>
        <time>2019-11-10T11:36:37Z</time>
      </trkpt>
      <trkpt lat="50.11289" lon="4.07637">
        <ele>168.5</ele>
        <time>2019-11-10T11:36:45Z</time>
      </trkpt>
      <trkpt lat="50.11283" lon="4.07625">
        <ele>169</ele>
        <time>2019-11-10T11:36:52Z</time>
      </trkpt>
      <trkpt lat="50.11279" lon="4.07612">
        <ele>169</ele>
        <time>2019-11-10T11:37:01Z</time>
      </trkpt>
      <trkpt lat="50.11273" lon="4.07599">
        <ele>169.3</ele>
        <time>2019-11-10T11:37:10Z</time>
      </trkpt>
      <trkpt lat="50.11268" lon="4.07587">
        <ele>169.5</ele>
        <time>2019-11-10T11:37:17Z</time>
      </trkpt>
      <trkpt lat="50.11262" lon="4.07574">
        <ele>170.6</ele>
        <time>2019-11-10T11:37:25Z</time>
      </trkpt>
      <trkpt lat="50.11255" lon="4.07563">
        <ele>171.1</ele>
        <time>2019-11-10T11:37:33Z</time>
      </trkpt>
      <trkpt lat="50.11247" lon="4.07555">
        <ele>171.9</ele>
        <time>2019-11-10T11:37:41Z</time>
      </trkpt>
      <trkpt lat="50.11238" lon="4.07552">
        <ele>172</ele>
        <time>2019-11-10T11:37:48Z</time>
      </trkpt>
      <trkpt lat="50.11229" lon="4.07551">
        <ele>172.1</ele>
        <time>2019-11-10T11:37:56Z</time>
      </trkpt>
      <trkpt lat="50.11219" lon="4.07548">
        <ele>172.1</ele>
        <time>2019-11-10T11:38:30Z</time>
      </trkpt>
      <trkpt lat="50.11209" lon="4.07544">
        <ele>172.2</ele>
        <time>2019-11-10T11:38:37Z</time>
      </trkpt>
      <trkpt lat="50.112" lon="4.07541">
        <ele>172.1</ele>
        <time>2019-11-10T11:39:40Z</time>
      </trkpt>
      <trkpt lat="50.1119" lon="4.07539">
        <ele>172.4</ele>
        <time>2019-11-10T11:39:47Z</time>
      </trkpt>
      <trkpt lat="50.11181" lon="4.07537">
        <ele>172.2</ele>
        <time>2019-11-10T11:39:54Z</time>
      </trkpt>
      <trkpt lat="50.11171" lon="4.07535">
        <ele>171.8</ele>
        <time>2019-11-10T11:40:01Z</time>
      </trkpt>
      <trkpt lat="50.11162" lon="4.07533">
        <ele>172</ele>
        <time>2019-11-10T11:40:09Z</time>
      </trkpt>
      <trkpt lat="50.11172" lon="4.07534">
        <ele>171.8</ele>
        <time>2019-11-10T11:40:44Z</time>
      </trkpt>
      <trkpt lat="50.11182" lon="4.07536">
        <ele>171.9</ele>
        <time>2019-11-10T11:40:51Z</time>
      </trkpt>
      <trkpt lat="50.11192" lon="4.07538">
        <ele>171.9</ele>
        <time>2019-11-10T11:40:59Z</time>
      </trkpt>
      <trkpt lat="50.11201" lon="4.0754">
        <ele>171.7</ele>
        <time>2019-11-10T11:41:23Z</time>
      </trkpt>
      <trkpt lat="50.11212" lon="4.07542">
        <ele>171.9</ele>
        <time>2019-11-10T11:41:30Z</time>
      </trkpt>
      <trkpt lat="50.11222" lon="4.07544">
        <ele>171.7</ele>
        <time>2019-11-10T11:41:37Z</time>
      </trkpt>
      <trkpt lat="50.11231" lon="4.07547">
        <ele>171.6</ele>
        <time>2019-11-10T11:41:44Z</time>
      </trkpt>
      <trkpt lat="50.1124" lon="4.0755">
        <ele>171.3</ele>
        <time>2019-11-10T11:41:52Z</time>
      </trkpt>
      <trkpt lat="50.1125" lon="4.07556">
        <ele>170.9</ele>
        <time>2019-11-10T11:41:58Z</time>
      </trkpt>
      <trkpt lat="50.11257" lon="4.07564">
        <ele>170</ele>
        <time>2019-11-10T11:42:04Z</time>
      </trkpt>
      <trkpt lat="50.11263" lon="4.07574">
        <ele>169.6</ele>
        <time>2019-11-10T11:42:10Z</time>
      </trkpt>
      <trkpt lat="50.11268" lon="4.07587">
        <ele>168.9</ele>
        <time>2019-11-10T11:42:16Z</time>
      </trkpt>
      <trkpt lat="50.11274" lon="4.07598">
        <ele>168.4</ele>
        <time>2019-11-10T11:42:23Z</time>
      </trkpt>
      <trkpt lat="50.1128" lon="4.0761">
        <ele>168</ele>
        <time>2019-11-10T11:42:29Z</time>
      </trkpt>
      <trkpt lat="50.11286" lon="4.07622">
        <ele>167.7</ele>
        <time>2019-11-10T11:42:36Z</time>
      </trkpt>
      <trkpt lat="50.11292" lon="4.07635">
        <ele>167.4</ele>
        <time>2019-11-10T11:42:43Z</time>
      </trkpt>
      <trkpt lat="50.113" lon="4.07645">
        <ele>167.3</ele>
        <time>2019-11-10T11:42:50Z</time>
      </trkpt>
      <trkpt lat="50.11307" lon="4.07655">
        <ele>167.5</ele>
        <time>2019-11-10T11:42:56Z</time>
      </trkpt>
      <trkpt lat="50.11315" lon="4.07663">
        <ele>167.7</ele>
        <time>2019-11-10T11:43:02Z</time>
      </trkpt>
      <trkpt lat="50.11324" lon="4.0767">
        <ele>167.6</ele>
        <time>2019-11-10T11:43:09Z</time>
      </trkpt>
      <trkpt lat="50.11332" lon="4.07677">
        <ele>168.1</ele>
        <time>2019-11-10T11:43:16Z</time>
      </trkpt>
      <trkpt lat="50.11342" lon="4.07682">
        <ele>168.1</ele>
        <time>2019-11-10T11:43:23Z</time>
      </trkpt>
      <trkpt lat="50.11351" lon="4.07687">
        <ele>168</ele>
        <time>2019-11-10T11:43:29Z</time>
      </trkpt>
      <trkpt lat="50.1136" lon="4.07692">
        <ele>168.1</ele>
        <time>2019-11-10T11:43:36Z</time>
      </trkpt>
      <trkpt lat="50.11368" lon="4.07698">
        <ele>168.1</ele>
        <time>2019-11-10T11:43:43Z</time>
      </trkpt>
      <trkpt lat="50.11377" lon="4.07703">
        <ele>168.1</ele>
        <time>2019-11-10T11:43:50Z</time>
      </trkpt>
      <trkpt lat="50.11386" lon="4.07709">
        <ele>168.2</ele>
        <time>2019-11-10T11:43:57Z</time>
      </trkpt>
      <trkpt lat="50.11395" lon="4.07715">
        <ele>167.9</ele>
        <time>2019-11-10T11:44:03Z</time>
      </trkpt>
      <trkpt lat="50.11403" lon="4.07721">
        <ele>168</ele>
        <time>2019-11-10T11:44:10Z</time>
      </trkpt>
      <trkpt lat="50.11412" lon="4.07725">
        <ele>167.2</ele>
        <time>2019-11-10T11:44:18Z</time>
      </trkpt>
      <trkpt lat="50.11422" lon="4.07731">
        <ele>166.6</ele>
        <time>2019-11-10T11:44:26Z</time>
      </trkpt>
      <trkpt lat="50.11431" lon="4.07736">
        <ele>166.3</ele>
        <time>2019-11-10T11:44:33Z</time>
      </trkpt>
      <trkpt lat="50.1144" lon="4.07742">
        <ele>165.9</ele>
        <time>2019-11-10T11:44:40Z</time>
      </trkpt>
      <trkpt lat="50.11448" lon="4.0775">
        <ele>165.9</ele>
        <time>2019-11-10T11:45:17Z</time>
      </trkpt>
      <trkpt lat="50.11456" lon="4.07755">
        <ele>165.8</ele>
        <time>2019-11-10T11:45:24Z</time>
      </trkpt>
      <trkpt lat="50.11466" lon="4.07761">
        <ele>165.3</ele>
        <time>2019-11-10T11:45:32Z</time>
      </trkpt>
      <trkpt lat="50.11475" lon="4.07767">
        <ele>165.2</ele>
        <time>2019-11-10T11:45:39Z</time>
      </trkpt>
      <trkpt lat="50.11483" lon="4.07772">
        <ele>165.4</ele>
        <time>2019-11-10T11:45:46Z</time>
      </trkpt>
      <trkpt lat="50.11492" lon="4.07779">
        <ele>164.9</ele>
        <time>2019-11-10T11:45:54Z</time>
      </trkpt>
      <trkpt lat="50.11498" lon="4.0779">
        <ele>165</ele>
        <time>2019-11-10T11:46:01Z</time>
      </trkpt>
      <trkpt lat="50.11503" lon="4.07803">
        <ele>164.7</ele>
        <time>2019-11-10T11:46:09Z</time>
      </trkpt>
      <trkpt lat="50.11507" lon="4.07816">
        <ele>164.5</ele>
        <time>2019-11-10T11:46:16Z</time>
      </trkpt>
      <trkpt lat="50.11512" lon="4.07829">
        <ele>164.4</ele>
        <time>2019-11-10T11:46:23Z</time>
      </trkpt>
      <trkpt lat="50.11517" lon="4.07841">
        <ele>164</ele>
        <time>2019-11-10T11:46:30Z</time>
      </trkpt>
      <trkpt lat="50.11524" lon="4.07852">
        <ele>163.8</ele>
        <time>2019-11-10T11:46:37Z</time>
      </trkpt>
      <trkpt lat="50.11529" lon="4.07866">
        <ele>163.8</ele>
        <time>2019-11-10T11:46:45Z</time>
      </trkpt>
      <trkpt lat="50.11535" lon="4.07878">
        <ele>164</ele>
        <time>2019-11-10T11:46:52Z</time>
      </trkpt>
      <trkpt lat="50.11542" lon="4.0789">
        <ele>163.9</ele>
        <time>2019-11-10T11:46:59Z</time>
      </trkpt>
      <trkpt lat="50.11547" lon="4.07903">
        <ele>163.8</ele>
        <time>2019-11-10T11:47:06Z</time>
      </trkpt>
      <trkpt lat="50.11552" lon="4.07915">
        <ele>163.5</ele>
        <time>2019-11-10T11:47:13Z</time>
      </trkpt>
      <trkpt lat="50.11558" lon="4.07927">
        <ele>163.6</ele>
        <time>2019-11-10T11:47:20Z</time>
      </trkpt>
      <trkpt lat="50.11564" lon="4.0794">
        <ele>163.9</ele>
        <time>2019-11-10T11:47:27Z</time>
      </trkpt>
      <trkpt lat="50.1157" lon="4.07952">
        <ele>164</ele>
        <time>2019-11-10T11:47:34Z</time>
      </trkpt>
      <trkpt lat="50.11576" lon="4.07964">
        <ele>163.8</ele>
        <time>2019-11-10T11:47:41Z</time>
      </trkpt>
      <trkpt lat="50.11582" lon="4.07976">
        <ele>164</ele>
        <time>2019-11-10T11:47:49Z</time>
      </trkpt>
      <trkpt lat="50.11589" lon="4.07988">
        <ele>163.9</ele>
        <time>2019-11-10T11:47:57Z</time>
      </trkpt>
      <trkpt lat="50.11594" lon="4.08">
        <ele>164.2</ele>
        <time>2019-11-10T11:48:04Z</time>
      </trkpt>
      <trkpt lat="50.116" lon="4.08011">
        <ele>164.5</ele>
        <time>2019-11-10T11:48:10Z</time>
      </trkpt>
      <trkpt lat="50.11604" lon="4.08024">
        <ele>164.9</ele>
        <time>2019-11-10T11:48:16Z</time>
      </trkpt>
      <trkpt lat="50.11606" lon="4.0804">
        <ele>164.8</ele>
        <time>2019-11-10T11:48:23Z</time>
      </trkpt>
      <trkpt lat="50.11606" lon="4.08055">
        <ele>165</ele>
        <time>2019-11-10T11:48:30Z</time>
      </trkpt>
      <trkpt lat="50.11604" lon="4.0807">
        <ele>164.8</ele>
        <time>2019-11-10T11:48:37Z</time>
      </trkpt>
      <trkpt lat="50.116" lon="4.08084">
        <ele>165.1</ele>
        <time>2019-11-10T11:48:45Z</time>
      </trkpt>
      <trkpt lat="50.11599" lon="4.08099">
        <ele>165.6</ele>
        <time>2019-11-10T11:48:53Z</time>
      </trkpt>
      <trkpt lat="50.11596" lon="4.08114">
        <ele>165.7</ele>
        <time>2019-11-10T11:49:02Z</time>
      </trkpt>
      <trkpt lat="50.11593" lon="4.08128">
        <ele>166.2</ele>
        <time>2019-11-10T11:49:10Z</time>
      </trkpt>
      <trkpt lat="50.11591" lon="4.08143">
        <ele>166.7</ele>
        <time>2019-11-10T11:49:18Z</time>
      </trkpt>
      <trkpt lat="50.11593" lon="4.08158">
        <ele>167.1</ele>
        <time>2019-11-10T11:49:26Z</time>
      </trkpt>
      <trkpt lat="50.11596" lon="4.08172">
        <ele>167</ele>
        <time>2019-11-10T11:49:33Z</time>
      </trkpt>
      <trkpt lat="50.11599" lon="4.08188">
        <ele>167.3</ele>
        <time>2019-11-10T11:49:40Z</time>
      </trkpt>
      <trkpt lat="50.11602" lon="4.08203">
        <ele>167.7</ele>
        <time>2019-11-10T11:49:47Z</time>
      </trkpt>
      <trkpt lat="50.11606" lon="4.08216">
        <ele>168.2</ele>
        <time>2019-11-10T11:49:53Z</time>
      </trkpt>
      <trkpt lat="50.11607" lon="4.0823">
        <ele>168.7</ele>
        <time>2019-11-10T11:50:01Z</time>
      </trkpt>
      <trkpt lat="50.11604" lon="4.08244">
        <ele>169.5</ele>
        <time>2019-11-10T11:50:09Z</time>
      </trkpt>
      <trkpt lat="50.11595" lon="4.08249">
        <ele>169.7</ele>
        <time>2019-11-10T11:50:16Z</time>
      </trkpt>
      <trkpt lat="50.11585" lon="4.08254">
        <ele>169.7</ele>
        <time>2019-11-10T11:50:24Z</time>
      </trkpt>
      <trkpt lat="50.11576" lon="4.08259">
        <ele>170</ele>
        <time>2019-11-10T11:50:42Z</time>
      </trkpt>
      <trkpt lat="50.11578" lon="4.08275">
        <ele>169.7</ele>
        <time>2019-11-10T11:50:50Z</time>
      </trkpt>
      <trkpt lat="50.11579" lon="4.08289">
        <ele>169.7</ele>
        <time>2019-11-10T11:50:59Z</time>
      </trkpt>
      <trkpt lat="50.11582" lon="4.08305">
        <ele>169.9</ele>
        <time>2019-11-10T11:51:07Z</time>
      </trkpt>
      <trkpt lat="50.11586" lon="4.08319">
        <ele>170</ele>
        <time>2019-11-10T11:51:15Z</time>
      </trkpt>
      <trkpt lat="50.1159" lon="4.08333">
        <ele>169.7</ele>
        <time>2019-11-10T11:51:23Z</time>
      </trkpt>
      <trkpt lat="50.11594" lon="4.08347">
        <ele>169.7</ele>
        <time>2019-11-10T11:51:30Z</time>
      </trkpt>
      <trkpt lat="50.11596" lon="4.08361">
        <ele>169.8</ele>
        <time>2019-11-10T11:51:37Z</time>
      </trkpt>
      <trkpt lat="50.11598" lon="4.08376">
        <ele>170.2</ele>
        <time>2019-11-10T11:51:45Z</time>
      </trkpt>
      <trkpt lat="50.116" lon="4.08391">
        <ele>170.6</ele>
        <time>2019-11-10T11:51:53Z</time>
      </trkpt>
      <trkpt lat="50.11601" lon="4.08405">
        <ele>170.7</ele>
        <time>2019-11-10T11:52:00Z</time>
      </trkpt>
      <trkpt lat="50.11601" lon="4.0842">
        <ele>170.5</ele>
        <time>2019-11-10T11:52:09Z</time>
      </trkpt>
      <trkpt lat="50.11601" lon="4.08436">
        <ele>170.5</ele>
        <time>2019-11-10T11:52:18Z</time>
      </trkpt>
      <trkpt lat="50.116" lon="4.08452">
        <ele>170.6</ele>
        <time>2019-11-10T11:52:26Z</time>
      </trkpt>
      <trkpt lat="50.116" lon="4.08468">
        <ele>170.8</ele>
        <time>2019-11-10T11:52:34Z</time>
      </trkpt>
      <trkpt lat="50.11598" lon="4.08483">
        <ele>171</ele>
        <time>2019-11-10T11:52:42Z</time>
      </trkpt>
      <trkpt lat="50.11597" lon="4.08498">
        <ele>170.7</ele>
        <time>2019-11-10T11:52:50Z</time>
      </trkpt>
      <trkpt lat="50.11598" lon="4.08513">
        <ele>171</ele>
        <time>2019-11-10T11:52:57Z</time>
      </trkpt>
      <trkpt lat="50.11597" lon="4.08527">
        <ele>171.4</ele>
        <time>2019-11-10T11:53:04Z</time>
      </trkpt>
      <trkpt lat="50.11595" lon="4.08542">
        <ele>171.9</ele>
        <time>2019-11-10T11:53:12Z</time>
      </trkpt>
      <trkpt lat="50.11591" lon="4.08556">
        <ele>171.8</ele>
        <time>2019-11-10T11:53:19Z</time>
      </trkpt>
      <trkpt lat="50.11585" lon="4.08567">
        <ele>172.1</ele>
        <time>2019-11-10T11:53:26Z</time>
      </trkpt>
      <trkpt lat="50.11578" lon="4.08578">
        <ele>172.5</ele>
        <time>2019-11-10T11:53:33Z</time>
      </trkpt>
      <trkpt lat="50.11572" lon="4.0859">
        <ele>172.6</ele>
        <time>2019-11-10T11:53:40Z</time>
      </trkpt>
      <trkpt lat="50.11566" lon="4.08601">
        <ele>173</ele>
        <time>2019-11-10T11:53:47Z</time>
      </trkpt>
      <trkpt lat="50.1156" lon="4.08611">
        <ele>173</ele>
        <time>2019-11-10T11:53:54Z</time>
      </trkpt>
      <trkpt lat="50.11552" lon="4.08619">
        <ele>173.6</ele>
        <time>2019-11-10T11:54:01Z</time>
      </trkpt>
      <trkpt lat="50.11543" lon="4.08627">
        <ele>174.1</ele>
        <time>2019-11-10T11:54:09Z</time>
      </trkpt>
      <trkpt lat="50.11535" lon="4.08633">
        <ele>174.3</ele>
        <time>2019-11-10T11:54:17Z</time>
      </trkpt>
      <trkpt lat="50.11526" lon="4.0864">
        <ele>174.6</ele>
        <time>2019-11-10T11:54:25Z</time>
      </trkpt>
      <trkpt lat="50.11518" lon="4.08649">
        <ele>175</ele>
        <time>2019-11-10T11:54:33Z</time>
      </trkpt>
      <trkpt lat="50.1151" lon="4.08657">
        <ele>176</ele>
        <time>2019-11-10T11:54:41Z</time>
      </trkpt>
      <trkpt lat="50.11503" lon="4.08665">
        <ele>176.6</ele>
        <time>2019-11-10T11:54:50Z</time>
      </trkpt>
      <trkpt lat="50.11494" lon="4.08673">
        <ele>177.5</ele>
        <time>2019-11-10T11:55:00Z</time>
      </trkpt>
      <trkpt lat="50.11485" lon="4.08678">
        <ele>177.7</ele>
        <time>2019-11-10T11:55:08Z</time>
      </trkpt>
      <trkpt lat="50.11476" lon="4.08685">
        <ele>178.4</ele>
        <time>2019-11-10T11:55:15Z</time>
      </trkpt>
      <trkpt lat="50.11467" lon="4.08691">
        <ele>179.3</ele>
        <time>2019-11-10T11:55:25Z</time>
      </trkpt>
      <trkpt lat="50.11459" lon="4.08696">
        <ele>180.5</ele>
        <time>2019-11-10T11:55:32Z</time>
      </trkpt>
      <trkpt lat="50.1145" lon="4.08701">
        <ele>181.9</ele>
        <time>2019-11-10T11:55:42Z</time>
      </trkpt>
      <trkpt lat="50.1144" lon="4.08706">
        <ele>183.3</ele>
        <time>2019-11-10T11:55:51Z</time>
      </trkpt>
      <trkpt lat="50.11431" lon="4.0871">
        <ele>183.9</ele>
        <time>2019-11-10T11:55:58Z</time>
      </trkpt>
      <trkpt lat="50.11422" lon="4.08715">
        <ele>185</ele>
        <time>2019-11-10T11:56:06Z</time>
      </trkpt>
      <trkpt lat="50.11412" lon="4.08721">
        <ele>185.8</ele>
        <time>2019-11-10T11:56:15Z</time>
      </trkpt>
      <trkpt lat="50.11404" lon="4.08726">
        <ele>187.1</ele>
        <time>2019-11-10T11:56:24Z</time>
      </trkpt>
      <trkpt lat="50.11396" lon="4.08733">
        <ele>188</ele>
        <time>2019-11-10T11:56:32Z</time>
      </trkpt>
      <trkpt lat="50.11387" lon="4.08742">
        <ele>189.4</ele>
        <time>2019-11-10T11:56:41Z</time>
      </trkpt>
      <trkpt lat="50.1138" lon="4.08749">
        <ele>190.7</ele>
        <time>2019-11-10T11:56:49Z</time>
      </trkpt>
      <trkpt lat="50.11373" lon="4.08758">
        <ele>191.3</ele>
        <time>2019-11-10T11:56:55Z</time>
      </trkpt>
      <trkpt lat="50.11364" lon="4.08764">
        <ele>191.3</ele>
        <time>2019-11-10T11:57:02Z</time>
      </trkpt>
      <trkpt lat="50.11356" lon="4.08771">
        <ele>192.9</ele>
        <time>2019-11-10T11:57:10Z</time>
      </trkpt>
      <trkpt lat="50.11347" lon="4.08776">
        <ele>192.5</ele>
        <time>2019-11-10T11:57:17Z</time>
      </trkpt>
      <trkpt lat="50.11338" lon="4.08781">
        <ele>193.8</ele>
        <time>2019-11-10T11:57:24Z</time>
      </trkpt>
      <trkpt lat="50.11329" lon="4.08788">
        <ele>194.6</ele>
        <time>2019-11-10T11:57:33Z</time>
      </trkpt>
      <trkpt lat="50.1132" lon="4.08793">
        <ele>195.1</ele>
        <time>2019-11-10T11:57:41Z</time>
      </trkpt>
      <trkpt lat="50.11311" lon="4.088">
        <ele>195.3</ele>
        <time>2019-11-10T11:57:50Z</time>
      </trkpt>
      <trkpt lat="50.11303" lon="4.08806">
        <ele>195.6</ele>
        <time>2019-11-10T11:57:57Z</time>
      </trkpt>
      <trkpt lat="50.11294" lon="4.08813">
        <ele>196</ele>
        <time>2019-11-10T11:58:05Z</time>
      </trkpt>
      <trkpt lat="50.11288" lon="4.08825">
        <ele>196.2</ele>
        <time>2019-11-10T11:58:13Z</time>
      </trkpt>
      <trkpt lat="50.11283" lon="4.08838">
        <ele>195.9</ele>
        <time>2019-11-10T11:58:20Z</time>
      </trkpt>
      <trkpt lat="50.11279" lon="4.08851">
        <ele>195</ele>
        <time>2019-11-10T11:58:28Z</time>
      </trkpt>
      <trkpt lat="50.11275" lon="4.08866">
        <ele>194.6</ele>
        <time>2019-11-10T11:58:37Z</time>
      </trkpt>
      <trkpt lat="50.11274" lon="4.0888">
        <ele>194.3</ele>
        <time>2019-11-10T11:58:46Z</time>
      </trkpt>
      <trkpt lat="50.11273" lon="4.08895">
        <ele>193.7</ele>
        <time>2019-11-10T11:58:54Z</time>
      </trkpt>
      <trkpt lat="50.11272" lon="4.08909">
        <ele>193.4</ele>
        <time>2019-11-10T11:59:01Z</time>
      </trkpt>
      <trkpt lat="50.11269" lon="4.08924">
        <ele>192.9</ele>
        <time>2019-11-10T11:59:09Z</time>
      </trkpt>
      <trkpt lat="50.11264" lon="4.08938">
        <ele>192.4</ele>
        <time>2019-11-10T11:59:17Z</time>
      </trkpt>
      <trkpt lat="50.11258" lon="4.0895">
        <ele>191.7</ele>
        <time>2019-11-10T11:59:24Z</time>
      </trkpt>
      <trkpt lat="50.11251" lon="4.08961">
        <ele>190.9</ele>
        <time>2019-11-10T11:59:32Z</time>
      </trkpt>
      <trkpt lat="50.11245" lon="4.08972">
        <ele>190.2</ele>
        <time>2019-11-10T11:59:40Z</time>
      </trkpt>
      <trkpt lat="50.11239" lon="4.08985">
        <ele>189.2</ele>
        <time>2019-11-10T11:59:48Z</time>
      </trkpt>
      <trkpt lat="50.11236" lon="4.09">
        <ele>187.5</ele>
        <time>2019-11-10T11:59:59Z</time>
      </trkpt>
      <trkpt lat="50.11233" lon="4.09014">
        <ele>186.1</ele>
        <time>2019-11-10T12:00:08Z</time>
      </trkpt>
      <trkpt lat="50.11232" lon="4.09029">
        <ele>184.9</ele>
        <time>2019-11-10T12:00:16Z</time>
      </trkpt>
      <trkpt lat="50.11231" lon="4.09044">
        <ele>184</ele>
        <time>2019-11-10T12:00:24Z</time>
      </trkpt>
      <trkpt lat="50.11236" lon="4.09057">
        <ele>183.5</ele>
        <time>2019-11-10T12:00:32Z</time>
      </trkpt>
      <trkpt lat="50.11238" lon="4.09071">
        <ele>182.3</ele>
        <time>2019-11-10T12:00:39Z</time>
      </trkpt>
      <trkpt lat="50.1124" lon="4.09086">
        <ele>180.2</ele>
        <time>2019-11-10T12:00:47Z</time>
      </trkpt>
      <trkpt lat="50.11242" lon="4.09101">
        <ele>178.9</ele>
        <time>2019-11-10T12:00:55Z</time>
      </trkpt>
      <trkpt lat="50.11246" lon="4.09114">
        <ele>177.8</ele>
        <time>2019-11-10T12:01:07Z</time>
      </trkpt>
      <trkpt lat="50.11246" lon="4.0913">
        <ele>175.9</ele>
        <time>2019-11-10T12:01:15Z</time>
      </trkpt>
      <trkpt lat="50.11249" lon="4.09143">
        <ele>174.5</ele>
        <time>2019-11-10T12:01:23Z</time>
      </trkpt>
      <trkpt lat="50.11251" lon="4.09157">
        <ele>173.2</ele>
        <time>2019-11-10T12:01:31Z</time>
      </trkpt>
      <trkpt lat="50.11254" lon="4.09171">
        <ele>171.9</ele>
        <time>2019-11-10T12:01:39Z</time>
      </trkpt>
      <trkpt lat="50.11259" lon="4.09184">
        <ele>170.6</ele>
        <time>2019-11-10T12:01:46Z</time>
      </trkpt>
      <trkpt lat="50.11265" lon="4.09194">
        <ele>169.8</ele>
        <time>2019-11-10T12:01:51Z</time>
      </trkpt>
      <trkpt lat="50.1127" lon="4.09206">
        <ele>169.5</ele>
        <time>2019-11-10T12:01:56Z</time>
      </trkpt>
      <trkpt lat="50.11275" lon="4.09218">
        <ele>168.9</ele>
        <time>2019-11-10T12:02:03Z</time>
      </trkpt>
      <trkpt lat="50.11276" lon="4.09233">
        <ele>167.9</ele>
        <time>2019-11-10T12:02:14Z</time>
      </trkpt>
      <trkpt lat="50.11277" lon="4.09248">
        <ele>167.4</ele>
        <time>2019-11-10T12:02:24Z</time>
      </trkpt>
      <trkpt lat="50.11278" lon="4.09263">
        <ele>167.5</ele>
        <time>2019-11-10T12:02:35Z</time>
      </trkpt>
      <trkpt lat="50.11277" lon="4.09278">
        <ele>167.6</ele>
        <time>2019-11-10T12:02:46Z</time>
      </trkpt>
      <trkpt lat="50.11272" lon="4.09292">
        <ele>167.9</ele>
        <time>2019-11-10T12:02:54Z</time>
      </trkpt>
      <trkpt lat="50.11268" lon="4.09305">
        <ele>168.1</ele>
        <time>2019-11-10T12:03:00Z</time>
      </trkpt>
      <trkpt lat="50.11264" lon="4.0932">
        <ele>168.5</ele>
        <time>2019-11-10T12:03:07Z</time>
      </trkpt>
      <trkpt lat="50.11259" lon="4.09333">
        <ele>169.2</ele>
        <time>2019-11-10T12:03:14Z</time>
      </trkpt>
      <trkpt lat="50.11257" lon="4.09347">
        <ele>169.8</ele>
        <time>2019-11-10T12:03:21Z</time>
      </trkpt>
      <trkpt lat="50.11255" lon="4.09362">
        <ele>170.8</ele>
        <time>2019-11-10T12:03:30Z</time>
      </trkpt>
      <trkpt lat="50.11249" lon="4.09373">
        <ele>172.1</ele>
        <time>2019-11-10T12:03:42Z</time>
      </trkpt>
      <trkpt lat="50.11245" lon="4.09386">
        <ele>174.5</ele>
        <time>2019-11-10T12:03:52Z</time>
      </trkpt>
      <trkpt lat="50.11241" lon="4.094">
        <ele>176.1</ele>
        <time>2019-11-10T12:04:08Z</time>
      </trkpt>
      <trkpt lat="50.11234" lon="4.09413">
        <ele>177.2</ele>
        <time>2019-11-10T12:04:15Z</time>
      </trkpt>
      <trkpt lat="50.11229" lon="4.09425">
        <ele>180</ele>
        <time>2019-11-10T12:04:24Z</time>
      </trkpt>
      <trkpt lat="50.11224" lon="4.09438">
        <ele>181.1</ele>
        <time>2019-11-10T12:04:33Z</time>
      </trkpt>
      <trkpt lat="50.11219" lon="4.0945">
        <ele>182</ele>
        <time>2019-11-10T12:04:41Z</time>
      </trkpt>
      <trkpt lat="50.11214" lon="4.09465">
        <ele>183.9</ele>
        <time>2019-11-10T12:04:54Z</time>
      </trkpt>
      <trkpt lat="50.11211" lon="4.09478">
        <ele>185.5</ele>
        <time>2019-11-10T12:05:05Z</time>
      </trkpt>
      <trkpt lat="50.11208" lon="4.09492">
        <ele>188</ele>
        <time>2019-11-10T12:05:14Z</time>
      </trkpt>
      <trkpt lat="50.112" lon="4.09503">
        <ele>188.7</ele>
        <time>2019-11-10T12:05:21Z</time>
      </trkpt>
      <trkpt lat="50.11199" lon="4.09518">
        <ele>190.7</ele>
        <time>2019-11-10T12:05:30Z</time>
      </trkpt>
      <trkpt lat="50.11199" lon="4.09532">
        <ele>191.9</ele>
        <time>2019-11-10T12:05:39Z</time>
      </trkpt>
      <trkpt lat="50.11195" lon="4.09545">
        <ele>192.6</ele>
        <time>2019-11-10T12:05:46Z</time>
      </trkpt>
      <trkpt lat="50.11192" lon="4.09559">
        <ele>194.7</ele>
        <time>2019-11-10T12:05:55Z</time>
      </trkpt>
      <trkpt lat="50.11188" lon="4.09573">
        <ele>195.7</ele>
        <time>2019-11-10T12:06:02Z</time>
      </trkpt>
      <trkpt lat="50.11185" lon="4.09588">
        <ele>197.1</ele>
        <time>2019-11-10T12:06:11Z</time>
      </trkpt>
      <trkpt lat="50.11182" lon="4.09602">
        <ele>198.4</ele>
        <time>2019-11-10T12:06:22Z</time>
      </trkpt>
      <trkpt lat="50.11181" lon="4.09616">
        <ele>199.1</ele>
        <time>2019-11-10T12:06:31Z</time>
      </trkpt>
      <trkpt lat="50.11185" lon="4.0963">
        <ele>199.9</ele>
        <time>2019-11-10T12:06:44Z</time>
      </trkpt>
      <trkpt lat="50.11184" lon="4.09645">
        <ele>200.9</ele>
        <time>2019-11-10T12:06:52Z</time>
      </trkpt>
      <trkpt lat="50.11183" lon="4.0966">
        <ele>201.6</ele>
        <time>2019-11-10T12:07:02Z</time>
      </trkpt>
      <trkpt lat="50.11178" lon="4.09673">
        <ele>202.3</ele>
        <time>2019-11-10T12:07:11Z</time>
      </trkpt>
      <trkpt lat="50.11174" lon="4.09685">
        <ele>203.5</ele>
        <time>2019-11-10T12:07:19Z</time>
      </trkpt>
      <trkpt lat="50.11169" lon="4.09698">
        <ele>204.4</ele>
        <time>2019-11-10T12:07:28Z</time>
      </trkpt>
      <trkpt lat="50.11167" lon="4.09713">
        <ele>205</ele>
        <time>2019-11-10T12:07:37Z</time>
      </trkpt>
      <trkpt lat="50.11165" lon="4.09728">
        <ele>205.3</ele>
        <time>2019-11-10T12:07:46Z</time>
      </trkpt>
      <trkpt lat="50.1116" lon="4.09739">
        <ele>205.8</ele>
        <time>2019-11-10T12:07:55Z</time>
      </trkpt>
      <trkpt lat="50.11157" lon="4.09753">
        <ele>206.2</ele>
        <time>2019-11-10T12:08:04Z</time>
      </trkpt>
      <trkpt lat="50.11151" lon="4.09764">
        <ele>206.1</ele>
        <time>2019-11-10T12:08:16Z</time>
      </trkpt>
      <trkpt lat="50.11145" lon="4.09776">
        <ele>206.2</ele>
        <time>2019-11-10T12:08:56Z</time>
      </trkpt>
      <trkpt lat="50.11139" lon="4.09765">
        <ele>206.3</ele>
        <time>2019-11-10T12:10:42Z</time>
      </trkpt>
      <trkpt lat="50.11136" lon="4.0978">
        <ele>206.3</ele>
        <time>2019-11-10T12:12:12Z</time>
      </trkpt>
      <trkpt lat="50.11133" lon="4.09793">
        <ele>205.7</ele>
        <time>2019-11-10T12:12:17Z</time>
      </trkpt>
      <trkpt lat="50.11131" lon="4.09808">
        <ele>205.5</ele>
        <time>2019-11-10T12:12:25Z</time>
      </trkpt>
      <trkpt lat="50.11126" lon="4.0982">
        <ele>205.1</ele>
        <time>2019-11-10T12:12:33Z</time>
      </trkpt>
      <trkpt lat="50.11121" lon="4.09834">
        <ele>204.1</ele>
        <time>2019-11-10T12:12:43Z</time>
      </trkpt>
      <trkpt lat="50.11114" lon="4.09847">
        <ele>203</ele>
        <time>2019-11-10T12:12:51Z</time>
      </trkpt>
      <trkpt lat="50.11111" lon="4.09861">
        <ele>201.7</ele>
        <time>2019-11-10T12:12:58Z</time>
      </trkpt>
      <trkpt lat="50.11109" lon="4.09874">
        <ele>200.7</ele>
        <time>2019-11-10T12:13:06Z</time>
      </trkpt>
      <trkpt lat="50.11104" lon="4.09887">
        <ele>199.8</ele>
        <time>2019-11-10T12:13:13Z</time>
      </trkpt>
      <trkpt lat="50.11098" lon="4.09897">
        <ele>199.1</ele>
        <time>2019-11-10T12:13:20Z</time>
      </trkpt>
      <trkpt lat="50.1109" lon="4.09908">
        <ele>198.2</ele>
        <time>2019-11-10T12:13:27Z</time>
      </trkpt>
      <trkpt lat="50.11083" lon="4.09917">
        <ele>196.5</ele>
        <time>2019-11-10T12:13:35Z</time>
      </trkpt>
      <trkpt lat="50.11076" lon="4.09927">
        <ele>195.8</ele>
        <time>2019-11-10T12:13:43Z</time>
      </trkpt>
      <trkpt lat="50.11068" lon="4.09936">
        <ele>194.8</ele>
        <time>2019-11-10T12:13:50Z</time>
      </trkpt>
      <trkpt lat="50.11062" lon="4.09947">
        <ele>194</ele>
        <time>2019-11-10T12:13:55Z</time>
      </trkpt>
      <trkpt lat="50.11054" lon="4.09955">
        <ele>192.7</ele>
        <time>2019-11-10T12:14:01Z</time>
      </trkpt>
      <trkpt lat="50.11046" lon="4.09964">
        <ele>191.8</ele>
        <time>2019-11-10T12:14:09Z</time>
      </trkpt>
      <trkpt lat="50.11038" lon="4.09971">
        <ele>189.9</ele>
        <time>2019-11-10T12:14:18Z</time>
      </trkpt>
      <trkpt lat="50.11029" lon="4.09979">
        <ele>188.1</ele>
        <time>2019-11-10T12:14:27Z</time>
      </trkpt>
      <trkpt lat="50.11025" lon="4.09991">
        <ele>186.7</ele>
        <time>2019-11-10T12:14:34Z</time>
      </trkpt>
      <trkpt lat="50.11017" lon="4.1">
        <ele>185</ele>
        <time>2019-11-10T12:14:43Z</time>
      </trkpt>
      <trkpt lat="50.1101" lon="4.10009">
        <ele>183.9</ele>
        <time>2019-11-10T12:14:50Z</time>
      </trkpt>
      <trkpt lat="50.11001" lon="4.10016">
        <ele>182.2</ele>
        <time>2019-11-10T12:14:58Z</time>
      </trkpt>
      <trkpt lat="50.10993" lon="4.10021">
        <ele>180</ele>
        <time>2019-11-10T12:15:06Z</time>
      </trkpt>
      <trkpt lat="50.10983" lon="4.10019">
        <ele>178</ele>
        <time>2019-11-10T12:15:13Z</time>
      </trkpt>
      <trkpt lat="50.10977" lon="4.10031">
        <ele>175.2</ele>
        <time>2019-11-10T12:15:25Z</time>
      </trkpt>
      <trkpt lat="50.10978" lon="4.10046">
        <ele>173.3</ele>
        <time>2019-11-10T12:15:35Z</time>
      </trkpt>
      <trkpt lat="50.10973" lon="4.10061">
        <ele>172.3</ele>
        <time>2019-11-10T12:15:44Z</time>
      </trkpt>
      <trkpt lat="50.10966" lon="4.10069">
        <ele>171.8</ele>
        <time>2019-11-10T12:15:50Z</time>
      </trkpt>
      <trkpt lat="50.10959" lon="4.1008">
        <ele>171.4</ele>
        <time>2019-11-10T12:15:57Z</time>
      </trkpt>
      <trkpt lat="50.10952" lon="4.10091">
        <ele>170.9</ele>
        <time>2019-11-10T12:16:06Z</time>
      </trkpt>
      <trkpt lat="50.10943" lon="4.10097">
        <ele>170.4</ele>
        <time>2019-11-10T12:16:15Z</time>
      </trkpt>
      <trkpt lat="50.10934" lon="4.10096">
        <ele>171</ele>
        <time>2019-11-10T12:16:23Z</time>
      </trkpt>
      <trkpt lat="50.10925" lon="4.10103">
        <ele>171</ele>
        <time>2019-11-10T12:16:32Z</time>
      </trkpt>
      <trkpt lat="50.1092" lon="4.10115">
        <ele>170.4</ele>
        <time>2019-11-10T12:16:47Z</time>
      </trkpt>
      <trkpt lat="50.10919" lon="4.1013">
        <ele>171</ele>
        <time>2019-11-10T12:16:57Z</time>
      </trkpt>
      <trkpt lat="50.10926" lon="4.10142">
        <ele>171.1</ele>
        <time>2019-11-10T12:17:05Z</time>
      </trkpt>
      <trkpt lat="50.10931" lon="4.10154">
        <ele>174.3</ele>
        <time>2019-11-10T12:17:19Z</time>
      </trkpt>
      <trkpt lat="50.10929" lon="4.10168">
        <ele>176.3</ele>
        <time>2019-11-10T12:17:34Z</time>
      </trkpt>
      <trkpt lat="50.10922" lon="4.10177">
        <ele>178.3</ele>
        <time>2019-11-10T12:17:44Z</time>
      </trkpt>
      <trkpt lat="50.10916" lon="4.10188">
        <ele>178.8</ele>
        <time>2019-11-10T12:17:50Z</time>
      </trkpt>
      <trkpt lat="50.1091" lon="4.102">
        <ele>180.6</ele>
        <time>2019-11-10T12:17:59Z</time>
      </trkpt>
      <trkpt lat="50.10905" lon="4.10213">
        <ele>181.8</ele>
        <time>2019-11-10T12:18:12Z</time>
      </trkpt>
      <trkpt lat="50.10901" lon="4.10227">
        <ele>183.6</ele>
        <time>2019-11-10T12:18:25Z</time>
      </trkpt>
      <trkpt lat="50.10898" lon="4.10242">
        <ele>184.6</ele>
        <time>2019-11-10T12:18:33Z</time>
      </trkpt>
      <trkpt lat="50.10897" lon="4.10257">
        <ele>185.3</ele>
        <time>2019-11-10T12:18:40Z</time>
      </trkpt>
      <trkpt lat="50.10896" lon="4.10271">
        <ele>186.4</ele>
        <time>2019-11-10T12:18:50Z</time>
      </trkpt>
      <trkpt lat="50.10901" lon="4.10286">
        <ele>186.9</ele>
        <time>2019-11-10T12:18:57Z</time>
      </trkpt>
      <trkpt lat="50.10904" lon="4.103">
        <ele>187.7</ele>
        <time>2019-11-10T12:19:05Z</time>
      </trkpt>
      <trkpt lat="50.10906" lon="4.10315">
        <ele>188.5</ele>
        <time>2019-11-10T12:19:15Z</time>
      </trkpt>
      <trkpt lat="50.10914" lon="4.10325">
        <ele>188.9</ele>
        <time>2019-11-10T12:19:27Z</time>
      </trkpt>
      <trkpt lat="50.10918" lon="4.10338">
        <ele>189.2</ele>
        <time>2019-11-10T12:19:35Z</time>
      </trkpt>
      <trkpt lat="50.10925" lon="4.10351">
        <ele>189.5</ele>
        <time>2019-11-10T12:19:43Z</time>
      </trkpt>
      <trkpt lat="50.1093" lon="4.10362">
        <ele>190.1</ele>
        <time>2019-11-10T12:19:50Z</time>
      </trkpt>
      <trkpt lat="50.10934" lon="4.10376">
        <ele>190.3</ele>
        <time>2019-11-10T12:19:58Z</time>
      </trkpt>
      <trkpt lat="50.10937" lon="4.1039">
        <ele>190.5</ele>
        <time>2019-11-10T12:20:07Z</time>
      </trkpt>
      <trkpt lat="50.10944" lon="4.10398">
        <ele>190</ele>
        <time>2019-11-10T12:20:15Z</time>
      </trkpt>
      <trkpt lat="50.10944" lon="4.10412">
        <ele>190.5</ele>
        <time>2019-11-10T12:20:52Z</time>
      </trkpt>
      <trkpt lat="50.10951" lon="4.10422">
        <ele>190.2</ele>
        <time>2019-11-10T12:21:14Z</time>
      </trkpt>
      <trkpt lat="50.10955" lon="4.10434">
        <ele>189.4</ele>
        <time>2019-11-10T12:21:29Z</time>
      </trkpt>
      <trkpt lat="50.10962" lon="4.10442">
        <ele>188.2</ele>
        <time>2019-11-10T12:21:40Z</time>
      </trkpt>
      <trkpt lat="50.10959" lon="4.10455">
        <ele>185.6</ele>
        <time>2019-11-10T12:22:10Z</time>
      </trkpt>
      <trkpt lat="50.10953" lon="4.10467">
        <ele>187.7</ele>
        <time>2019-11-10T12:22:27Z</time>
      </trkpt>
      <trkpt lat="50.10948" lon="4.10454">
        <ele>188.2</ele>
        <time>2019-11-10T12:22:45Z</time>
      </trkpt>
      <trkpt lat="50.10958" lon="4.10455">
        <ele>188.5</ele>
        <time>2019-11-10T12:23:33Z</time>
      </trkpt>
      <trkpt lat="50.10952" lon="4.10444">
        <ele>188.6</ele>
        <time>2019-11-10T12:23:55Z</time>
      </trkpt>
      <trkpt lat="50.10955" lon="4.10459">
        <ele>188.2</ele>
        <time>2019-11-10T12:24:21Z</time>
      </trkpt>
      <trkpt lat="50.10964" lon="4.10464">
        <ele>188.2</ele>
        <time>2019-11-10T12:24:24Z</time>
      </trkpt>
      <trkpt lat="50.10973" lon="4.10468">
        <ele>188.3</ele>
        <time>2019-11-10T12:24:32Z</time>
      </trkpt>
      <trkpt lat="50.10983" lon="4.10468">
        <ele>188.2</ele>
        <time>2019-11-10T12:24:44Z</time>
      </trkpt>
      <trkpt lat="50.10972" lon="4.10466">
        <ele>188.6</ele>
        <time>2019-11-10T12:27:10Z</time>
      </trkpt>
      <trkpt lat="50.10962" lon="4.10465">
        <ele>188.1</ele>
        <time>2019-11-10T12:27:17Z</time>
      </trkpt>
      <trkpt lat="50.10955" lon="4.10454">
        <ele>188.2</ele>
        <time>2019-11-10T12:27:27Z</time>
      </trkpt>
      <trkpt lat="50.10963" lon="4.10457">
        <ele>188</ele>
        <time>2019-11-10T12:29:31Z</time>
      </trkpt>
      <trkpt lat="50.10955" lon="4.10451">
        <ele>188.4</ele>
        <time>2019-11-10T12:30:50Z</time>
      </trkpt>
      <trkpt lat="50.10961" lon="4.10462">
        <ele>188.4</ele>
        <time>2019-11-10T12:31:03Z</time>
      </trkpt>
      <trkpt lat="50.10952" lon="4.10456">
        <ele>188.7</ele>
        <time>2019-11-10T12:34:04Z</time>
      </trkpt>
      <trkpt lat="50.10962" lon="4.10454">
        <ele>188.8</ele>
        <time>2019-11-10T12:35:49Z</time>
      </trkpt>
      <trkpt lat="50.10954" lon="4.10445">
        <ele>188.6</ele>
        <time>2019-11-10T12:36:21Z</time>
      </trkpt>
      <trkpt lat="50.10952" lon="4.10459">
        <ele>188.5</ele>
        <time>2019-11-10T12:36:56Z</time>
      </trkpt>
      <trkpt lat="50.10944" lon="4.10468">
        <ele>188.5</ele>
        <time>2019-11-10T12:37:10Z</time>
      </trkpt>
      <trkpt lat="50.1095" lon="4.10456">
        <ele>188.5</ele>
        <time>2019-11-10T12:38:01Z</time>
      </trkpt>
      <trkpt lat="50.10958" lon="4.10448">
        <ele>188.5</ele>
        <time>2019-11-10T12:38:07Z</time>
      </trkpt>
      <trkpt lat="50.10949" lon="4.10454">
        <ele>188.5</ele>
        <time>2019-11-10T12:39:35Z</time>
      </trkpt>
      <trkpt lat="50.10954" lon="4.10467">
        <ele>186.3</ele>
        <time>2019-11-10T12:54:03Z</time>
      </trkpt>
      <trkpt lat="50.10957" lon="4.10452">
        <ele>186.4</ele>
        <time>2019-11-10T12:54:14Z</time>
      </trkpt>
      <trkpt lat="50.10954" lon="4.10437">
        <ele>186.4</ele>
        <time>2019-11-10T12:54:24Z</time>
      </trkpt>
      <trkpt lat="50.10947" lon="4.10445">
        <ele>186.4</ele>
        <time>2019-11-10T12:54:36Z</time>
      </trkpt>
      <trkpt lat="50.10946" lon="4.1046">
        <ele>186.4</ele>
        <time>2019-11-10T13:00:26Z</time>
      </trkpt>
      <trkpt lat="50.10949" lon="4.10447">
        <ele>186.7</ele>
        <time>2019-11-10T13:01:25Z</time>
      </trkpt>
      <trkpt lat="50.10943" lon="4.10435">
        <ele>187.9</ele>
        <time>2019-11-10T13:02:16Z</time>
      </trkpt>
      <trkpt lat="50.10935" lon="4.10439">
        <ele>190.2</ele>
        <time>2019-11-10T13:02:34Z</time>
      </trkpt>
      <trkpt lat="50.10932" lon="4.10453">
        <ele>191.6</ele>
        <time>2019-11-10T13:02:51Z</time>
      </trkpt>
      <trkpt lat="50.10934" lon="4.10467">
        <ele>192.6</ele>
        <time>2019-11-10T13:03:01Z</time>
      </trkpt>
      <trkpt lat="50.10935" lon="4.10483">
        <ele>192.9</ele>
        <time>2019-11-10T13:03:09Z</time>
      </trkpt>
      <trkpt lat="50.10936" lon="4.10498">
        <ele>194.3</ele>
        <time>2019-11-10T13:03:20Z</time>
      </trkpt>
      <trkpt lat="50.10937" lon="4.10512">
        <ele>195</ele>
        <time>2019-11-10T13:03:30Z</time>
      </trkpt>
      <trkpt lat="50.10937" lon="4.10526">
        <ele>196.3</ele>
        <time>2019-11-10T13:03:42Z</time>
      </trkpt>
      <trkpt lat="50.1094" lon="4.10541">
        <ele>197</ele>
        <time>2019-11-10T13:03:51Z</time>
      </trkpt>
      <trkpt lat="50.10942" lon="4.10555">
        <ele>197.6</ele>
        <time>2019-11-10T13:03:58Z</time>
      </trkpt>
      <trkpt lat="50.10944" lon="4.1057">
        <ele>198.2</ele>
        <time>2019-11-10T13:04:06Z</time>
      </trkpt>
      <trkpt lat="50.10944" lon="4.10585">
        <ele>199.7</ele>
        <time>2019-11-10T13:04:17Z</time>
      </trkpt>
      <trkpt lat="50.10943" lon="4.10601">
        <ele>200.7</ele>
        <time>2019-11-10T13:04:25Z</time>
      </trkpt>
      <trkpt lat="50.10942" lon="4.10615">
        <ele>201.4</ele>
        <time>2019-11-10T13:04:34Z</time>
      </trkpt>
      <trkpt lat="50.10942" lon="4.10631">
        <ele>202.1</ele>
        <time>2019-11-10T13:04:44Z</time>
      </trkpt>
      <trkpt lat="50.10941" lon="4.10645">
        <ele>203.3</ele>
        <time>2019-11-10T13:04:53Z</time>
      </trkpt>
      <trkpt lat="50.1094" lon="4.1066">
        <ele>204.6</ele>
        <time>2019-11-10T13:05:02Z</time>
      </trkpt>
      <trkpt lat="50.1094" lon="4.10676">
        <ele>205.7</ele>
        <time>2019-11-10T13:05:14Z</time>
      </trkpt>
      <trkpt lat="50.10939" lon="4.1069">
        <ele>206.3</ele>
        <time>2019-11-10T13:05:21Z</time>
      </trkpt>
      <trkpt lat="50.10937" lon="4.10705">
        <ele>207.5</ele>
        <time>2019-11-10T13:05:29Z</time>
      </trkpt>
      <trkpt lat="50.10934" lon="4.1072">
        <ele>207.9</ele>
        <time>2019-11-10T13:05:35Z</time>
      </trkpt>
      <trkpt lat="50.10931" lon="4.10734">
        <ele>208.7</ele>
        <time>2019-11-10T13:05:43Z</time>
      </trkpt>
      <trkpt lat="50.10932" lon="4.1075">
        <ele>210.1</ele>
        <time>2019-11-10T13:05:53Z</time>
      </trkpt>
      <trkpt lat="50.1093" lon="4.10763">
        <ele>211.2</ele>
        <time>2019-11-10T13:06:01Z</time>
      </trkpt>
      <trkpt lat="50.10928" lon="4.10778">
        <ele>211.8</ele>
        <time>2019-11-10T13:06:09Z</time>
      </trkpt>
      <trkpt lat="50.10925" lon="4.10791">
        <ele>211.9</ele>
        <time>2019-11-10T13:06:16Z</time>
      </trkpt>
      <trkpt lat="50.10925" lon="4.10806">
        <ele>212.7</ele>
        <time>2019-11-10T13:06:23Z</time>
      </trkpt>
      <trkpt lat="50.10925" lon="4.1082">
        <ele>213.6</ele>
        <time>2019-11-10T13:06:31Z</time>
      </trkpt>
      <trkpt lat="50.10926" lon="4.10836">
        <ele>213.6</ele>
        <time>2019-11-10T13:06:39Z</time>
      </trkpt>
      <trkpt lat="50.10925" lon="4.10852">
        <ele>214.3</ele>
        <time>2019-11-10T13:06:46Z</time>
      </trkpt>
      <trkpt lat="50.10921" lon="4.10864">
        <ele>213.9</ele>
        <time>2019-11-10T13:06:52Z</time>
      </trkpt>
      <trkpt lat="50.10918" lon="4.10879">
        <ele>214.3</ele>
        <time>2019-11-10T13:07:01Z</time>
      </trkpt>
      <trkpt lat="50.10918" lon="4.10894">
        <ele>214.1</ele>
        <time>2019-11-10T13:07:07Z</time>
      </trkpt>
      <trkpt lat="50.10916" lon="4.10907">
        <ele>214.2</ele>
        <time>2019-11-10T13:07:14Z</time>
      </trkpt>
      <trkpt lat="50.10916" lon="4.10923">
        <ele>214.3</ele>
        <time>2019-11-10T13:07:27Z</time>
      </trkpt>
      <trkpt lat="50.10915" lon="4.10938">
        <ele>214.5</ele>
        <time>2019-11-10T13:07:34Z</time>
      </trkpt>
      <trkpt lat="50.10914" lon="4.10952">
        <ele>214</ele>
        <time>2019-11-10T13:07:40Z</time>
      </trkpt>
      <trkpt lat="50.10912" lon="4.10968">
        <ele>214.4</ele>
        <time>2019-11-10T13:07:46Z</time>
      </trkpt>
      <trkpt lat="50.1091" lon="4.10984">
        <ele>214.7</ele>
        <time>2019-11-10T13:07:53Z</time>
      </trkpt>
      <trkpt lat="50.10908" lon="4.10999">
        <ele>214.5</ele>
        <time>2019-11-10T13:08:01Z</time>
      </trkpt>
      <trkpt lat="50.10906" lon="4.11013">
        <ele>214.2</ele>
        <time>2019-11-10T13:08:09Z</time>
      </trkpt>
      <trkpt lat="50.10904" lon="4.11027">
        <ele>214.1</ele>
        <time>2019-11-10T13:08:16Z</time>
      </trkpt>
      <trkpt lat="50.10902" lon="4.11042">
        <ele>214.4</ele>
        <time>2019-11-10T13:08:24Z</time>
      </trkpt>
      <trkpt lat="50.10902" lon="4.11057">
        <ele>214.4</ele>
        <time>2019-11-10T13:08:31Z</time>
      </trkpt>
      <trkpt lat="50.109" lon="4.11072">
        <ele>213.9</ele>
        <time>2019-11-10T13:08:39Z</time>
      </trkpt>
      <trkpt lat="50.10898" lon="4.11086">
        <ele>213.8</ele>
        <time>2019-11-10T13:08:46Z</time>
      </trkpt>
      <trkpt lat="50.10896" lon="4.11101">
        <ele>213.3</ele>
        <time>2019-11-10T13:08:53Z</time>
      </trkpt>
      <trkpt lat="50.10893" lon="4.11115">
        <ele>213.1</ele>
        <time>2019-11-10T13:08:59Z</time>
      </trkpt>
      <trkpt lat="50.1089" lon="4.11128">
        <ele>213.1</ele>
        <time>2019-11-10T13:09:07Z</time>
      </trkpt>
      <trkpt lat="50.1089" lon="4.11143">
        <ele>212.9</ele>
        <time>2019-11-10T13:09:29Z</time>
      </trkpt>
      <trkpt lat="50.1089" lon="4.11157">
        <ele>212.8</ele>
        <time>2019-11-10T13:09:36Z</time>
      </trkpt>
      <trkpt lat="50.1089" lon="4.11172">
        <ele>212</ele>
        <time>2019-11-10T13:09:43Z</time>
      </trkpt>
      <trkpt lat="50.10887" lon="4.11186">
        <ele>212</ele>
        <time>2019-11-10T13:09:51Z</time>
      </trkpt>
      <trkpt lat="50.10883" lon="4.11199">
        <ele>212.5</ele>
        <time>2019-11-10T13:10:00Z</time>
      </trkpt>
      <trkpt lat="50.10879" lon="4.11214">
        <ele>212.4</ele>
        <time>2019-11-10T13:10:10Z</time>
      </trkpt>
      <trkpt lat="50.10876" lon="4.11227">
        <ele>212.2</ele>
        <time>2019-11-10T13:10:17Z</time>
      </trkpt>
      <trkpt lat="50.10871" lon="4.1124">
        <ele>212.3</ele>
        <time>2019-11-10T13:10:24Z</time>
      </trkpt>
      <trkpt lat="50.10867" lon="4.11253">
        <ele>212.9</ele>
        <time>2019-11-10T13:10:33Z</time>
      </trkpt>
      <trkpt lat="50.1086" lon="4.11265">
        <ele>213.7</ele>
        <time>2019-11-10T13:10:40Z</time>
      </trkpt>
      <trkpt lat="50.10854" lon="4.11277">
        <ele>213.9</ele>
        <time>2019-11-10T13:10:49Z</time>
      </trkpt>
      <trkpt lat="50.10849" lon="4.1129">
        <ele>214</ele>
        <time>2019-11-10T13:10:56Z</time>
      </trkpt>
      <trkpt lat="50.10843" lon="4.11301">
        <ele>213.9</ele>
        <time>2019-11-10T13:11:04Z</time>
      </trkpt>
      <trkpt lat="50.10838" lon="4.11312">
        <ele>213.8</ele>
        <time>2019-11-10T13:11:11Z</time>
      </trkpt>
      <trkpt lat="50.10833" lon="4.11325">
        <ele>214.1</ele>
        <time>2019-11-10T13:11:17Z</time>
      </trkpt>
      <trkpt lat="50.10831" lon="4.1134">
        <ele>215.1</ele>
        <time>2019-11-10T13:11:25Z</time>
      </trkpt>
      <trkpt lat="50.10841" lon="4.11337">
        <ele>215.4</ele>
        <time>2019-11-10T13:11:44Z</time>
      </trkpt>
      <trkpt lat="50.10849" lon="4.11331">
        <ele>215.7</ele>
        <time>2019-11-10T13:11:53Z</time>
      </trkpt>
      <trkpt lat="50.10859" lon="4.1133">
        <ele>215.4</ele>
        <time>2019-11-10T13:12:04Z</time>
      </trkpt>
      <trkpt lat="50.10868" lon="4.11329">
        <ele>215.7</ele>
        <time>2019-11-10T13:12:12Z</time>
      </trkpt>
      <trkpt lat="50.10877" lon="4.11329">
        <ele>215.5</ele>
        <time>2019-11-10T13:12:17Z</time>
      </trkpt>
      <trkpt lat="50.10886" lon="4.1133">
        <ele>215.6</ele>
        <time>2019-11-10T13:12:22Z</time>
      </trkpt>
      <trkpt lat="50.10896" lon="4.11331">
        <ele>215.6</ele>
        <time>2019-11-10T13:12:27Z</time>
      </trkpt>
      <trkpt lat="50.10905" lon="4.11334">
        <ele>215.6</ele>
        <time>2019-11-10T13:12:34Z</time>
      </trkpt>
      <trkpt lat="50.10915" lon="4.11337">
        <ele>215.7</ele>
        <time>2019-11-10T13:12:42Z</time>
      </trkpt>
      <trkpt lat="50.10924" lon="4.1134">
        <ele>215.7</ele>
        <time>2019-11-10T13:12:51Z</time>
      </trkpt>
      <trkpt lat="50.10934" lon="4.11342">
        <ele>215.9</ele>
        <time>2019-11-10T13:12:58Z</time>
      </trkpt>
      <trkpt lat="50.10943" lon="4.11343">
        <ele>215.9</ele>
        <time>2019-11-10T13:13:05Z</time>
      </trkpt>
      <trkpt lat="50.10953" lon="4.11341">
        <ele>215.6</ele>
        <time>2019-11-10T13:13:13Z</time>
      </trkpt>
      <trkpt lat="50.10963" lon="4.11339">
        <ele>215.6</ele>
        <time>2019-11-10T13:13:20Z</time>
      </trkpt>
      <trkpt lat="50.10973" lon="4.11334">
        <ele>215.7</ele>
        <time>2019-11-10T13:13:30Z</time>
      </trkpt>
      <trkpt lat="50.10982" lon="4.11329">
        <ele>215.9</ele>
        <time>2019-11-10T13:13:38Z</time>
      </trkpt>
      <trkpt lat="50.10992" lon="4.11326">
        <ele>214.5</ele>
        <time>2019-11-10T13:14:09Z</time>
      </trkpt>
      <trkpt lat="50.11001" lon="4.11322">
        <ele>214.6</ele>
        <time>2019-11-10T13:14:17Z</time>
      </trkpt>
      <trkpt lat="50.11011" lon="4.11318">
        <ele>214.4</ele>
        <time>2019-11-10T13:14:24Z</time>
      </trkpt>
      <trkpt lat="50.11021" lon="4.11315">
        <ele>214.4</ele>
        <time>2019-11-10T13:14:30Z</time>
      </trkpt>
      <trkpt lat="50.1103" lon="4.11311">
        <ele>214.4</ele>
        <time>2019-11-10T13:14:39Z</time>
      </trkpt>
      <trkpt lat="50.11038" lon="4.11304">
        <ele>214.7</ele>
        <time>2019-11-10T13:14:49Z</time>
      </trkpt>
      <trkpt lat="50.11048" lon="4.11302">
        <ele>214.8</ele>
        <time>2019-11-10T13:14:55Z</time>
      </trkpt>
      <trkpt lat="50.11057" lon="4.113">
        <ele>214.7</ele>
        <time>2019-11-10T13:15:02Z</time>
      </trkpt>
      <trkpt lat="50.11066" lon="4.113">
        <ele>214.7</ele>
        <time>2019-11-10T13:15:08Z</time>
      </trkpt>
      <trkpt lat="50.11075" lon="4.11296">
        <ele>215.6</ele>
        <time>2019-11-10T13:15:16Z</time>
      </trkpt>
      <trkpt lat="50.11084" lon="4.11292">
        <ele>215.3</ele>
        <time>2019-11-10T13:15:23Z</time>
      </trkpt>
      <trkpt lat="50.11093" lon="4.11288">
        <ele>215.3</ele>
        <time>2019-11-10T13:15:33Z</time>
      </trkpt>
      <trkpt lat="50.11102" lon="4.11285">
        <ele>215.1</ele>
        <time>2019-11-10T13:15:45Z</time>
      </trkpt>
      <trkpt lat="50.11113" lon="4.11277">
        <ele>215.1</ele>
        <time>2019-11-10T13:15:57Z</time>
      </trkpt>
      <trkpt lat="50.1112" lon="4.11288">
        <ele>214.6</ele>
        <time>2019-11-10T13:16:13Z</time>
      </trkpt>
      <trkpt lat="50.11125" lon="4.113">
        <ele>214.3</ele>
        <time>2019-11-10T13:16:20Z</time>
      </trkpt>
      <trkpt lat="50.11128" lon="4.11314">
        <ele>214.3</ele>
        <time>2019-11-10T13:16:27Z</time>
      </trkpt>
      <trkpt lat="50.1113" lon="4.11328">
        <ele>214.2</ele>
        <time>2019-11-10T13:16:34Z</time>
      </trkpt>
      <trkpt lat="50.11132" lon="4.11343">
        <ele>214.2</ele>
        <time>2019-11-10T13:16:41Z</time>
      </trkpt>
      <trkpt lat="50.11134" lon="4.11359">
        <ele>214.1</ele>
        <time>2019-11-10T13:16:49Z</time>
      </trkpt>
      <trkpt lat="50.11139" lon="4.11372">
        <ele>213.6</ele>
        <time>2019-11-10T13:16:59Z</time>
      </trkpt>
      <trkpt lat="50.11146" lon="4.11382">
        <ele>213.4</ele>
        <time>2019-11-10T13:18:10Z</time>
      </trkpt>
      <trkpt lat="50.11152" lon="4.11392">
        <ele>213</ele>
        <time>2019-11-10T13:18:25Z</time>
      </trkpt>
      <trkpt lat="50.1116" lon="4.11401">
        <ele>212.5</ele>
        <time>2019-11-10T13:18:33Z</time>
      </trkpt>
      <trkpt lat="50.11167" lon="4.11413">
        <ele>212.1</ele>
        <time>2019-11-10T13:18:40Z</time>
      </trkpt>
      <trkpt lat="50.11173" lon="4.11424">
        <ele>211.7</ele>
        <time>2019-11-10T13:18:46Z</time>
      </trkpt>
      <trkpt lat="50.11175" lon="4.11438">
        <ele>211.4</ele>
        <time>2019-11-10T13:18:53Z</time>
      </trkpt>
      <trkpt lat="50.11182" lon="4.11449">
        <ele>210.8</ele>
        <time>2019-11-10T13:19:01Z</time>
      </trkpt>
      <trkpt lat="50.11188" lon="4.11461">
        <ele>210.5</ele>
        <time>2019-11-10T13:19:09Z</time>
      </trkpt>
      <trkpt lat="50.11192" lon="4.11474">
        <ele>209.7</ele>
        <time>2019-11-10T13:19:21Z</time>
      </trkpt>
      <trkpt lat="50.11198" lon="4.11487">
        <ele>209.3</ele>
        <time>2019-11-10T13:19:29Z</time>
      </trkpt>
      <trkpt lat="50.11203" lon="4.11501">
        <ele>208.9</ele>
        <time>2019-11-10T13:19:36Z</time>
      </trkpt>
      <trkpt lat="50.1121" lon="4.11509">
        <ele>207.9</ele>
        <time>2019-11-10T13:19:41Z</time>
      </trkpt>
      <trkpt lat="50.11217" lon="4.11519">
        <ele>207.4</ele>
        <time>2019-11-10T13:19:48Z</time>
      </trkpt>
      <trkpt lat="50.11224" lon="4.11529">
        <ele>206.7</ele>
        <time>2019-11-10T13:19:55Z</time>
      </trkpt>
      <trkpt lat="50.1123" lon="4.1154">
        <ele>205.7</ele>
        <time>2019-11-10T13:20:04Z</time>
      </trkpt>
      <trkpt lat="50.11232" lon="4.11554">
        <ele>205.2</ele>
        <time>2019-11-10T13:20:12Z</time>
      </trkpt>
      <trkpt lat="50.11235" lon="4.11569">
        <ele>204.3</ele>
        <time>2019-11-10T13:20:20Z</time>
      </trkpt>
      <trkpt lat="50.11242" lon="4.1158">
        <ele>203.6</ele>
        <time>2019-11-10T13:20:29Z</time>
      </trkpt>
      <trkpt lat="50.11246" lon="4.11593">
        <ele>203.1</ele>
        <time>2019-11-10T13:20:37Z</time>
      </trkpt>
      <trkpt lat="50.11252" lon="4.11604">
        <ele>202.1</ele>
        <time>2019-11-10T13:20:44Z</time>
      </trkpt>
      <trkpt lat="50.11257" lon="4.11617">
        <ele>201.2</ele>
        <time>2019-11-10T13:20:52Z</time>
      </trkpt>
      <trkpt lat="50.11265" lon="4.11626">
        <ele>200.5</ele>
        <time>2019-11-10T13:20:59Z</time>
      </trkpt>
      <trkpt lat="50.11268" lon="4.11641">
        <ele>199.7</ele>
        <time>2019-11-10T13:21:06Z</time>
      </trkpt>
      <trkpt lat="50.11273" lon="4.11653">
        <ele>199</ele>
        <time>2019-11-10T13:21:12Z</time>
      </trkpt>
      <trkpt lat="50.11276" lon="4.11667">
        <ele>198.5</ele>
        <time>2019-11-10T13:21:18Z</time>
      </trkpt>
      <trkpt lat="50.11282" lon="4.11677">
        <ele>198</ele>
        <time>2019-11-10T13:21:25Z</time>
      </trkpt>
      <trkpt lat="50.11289" lon="4.11687">
        <ele>197.1</ele>
        <time>2019-11-10T13:21:32Z</time>
      </trkpt>
      <trkpt lat="50.11298" lon="4.11697">
        <ele>195.9</ele>
        <time>2019-11-10T13:21:41Z</time>
      </trkpt>
      <trkpt lat="50.11306" lon="4.11706">
        <ele>195.3</ele>
        <time>2019-11-10T13:21:47Z</time>
      </trkpt>
      <trkpt lat="50.11314" lon="4.11717">
        <ele>194.3</ele>
        <time>2019-11-10T13:21:54Z</time>
      </trkpt>
      <trkpt lat="50.1132" lon="4.11729">
        <ele>193.3</ele>
        <time>2019-11-10T13:22:02Z</time>
      </trkpt>
      <trkpt lat="50.11328" lon="4.11736">
        <ele>192</ele>
        <time>2019-11-10T13:22:09Z</time>
      </trkpt>
      <trkpt lat="50.11338" lon="4.11741">
        <ele>190.8</ele>
        <time>2019-11-10T13:22:16Z</time>
      </trkpt>
      <trkpt lat="50.11346" lon="4.11749">
        <ele>189.4</ele>
        <time>2019-11-10T13:22:22Z</time>
      </trkpt>
      <trkpt lat="50.11352" lon="4.1176">
        <ele>187.6</ele>
        <time>2019-11-10T13:22:32Z</time>
      </trkpt>
      <trkpt lat="50.11359" lon="4.1177">
        <ele>185.4</ele>
        <time>2019-11-10T13:22:41Z</time>
      </trkpt>
      <trkpt lat="50.11362" lon="4.11785">
        <ele>182.6</ele>
        <time>2019-11-10T13:22:51Z</time>
      </trkpt>
      <trkpt lat="50.11371" lon="4.11792">
        <ele>180.5</ele>
        <time>2019-11-10T13:22:58Z</time>
      </trkpt>
      <trkpt lat="50.11379" lon="4.11799">
        <ele>179.7</ele>
        <time>2019-11-10T13:23:05Z</time>
      </trkpt>
      <trkpt lat="50.11388" lon="4.11805">
        <ele>179.6</ele>
        <time>2019-11-10T13:23:12Z</time>
      </trkpt>
      <trkpt lat="50.11397" lon="4.11807">
        <ele>180</ele>
        <time>2019-11-10T13:23:20Z</time>
      </trkpt>
      <trkpt lat="50.11401" lon="4.1182">
        <ele>181.5</ele>
        <time>2019-11-10T13:23:32Z</time>
      </trkpt>
      <trkpt lat="50.11411" lon="4.11817">
        <ele>181.1</ele>
        <time>2019-11-10T13:23:40Z</time>
      </trkpt>
      <trkpt lat="50.11418" lon="4.11825">
        <ele>180.7</ele>
        <time>2019-11-10T13:23:56Z</time>
      </trkpt>
      <trkpt lat="50.11427" lon="4.11826">
        <ele>180.1</ele>
        <time>2019-11-10T13:24:05Z</time>
      </trkpt>
      <trkpt lat="50.11437" lon="4.11827">
        <ele>179.6</ele>
        <time>2019-11-10T13:24:13Z</time>
      </trkpt>
      <trkpt lat="50.11447" lon="4.1183">
        <ele>179.1</ele>
        <time>2019-11-10T13:24:20Z</time>
      </trkpt>
      <trkpt lat="50.11441" lon="4.11843">
        <ele>176.9</ele>
        <time>2019-11-10T13:24:30Z</time>
      </trkpt>
      <trkpt lat="50.11433" lon="4.11851">
        <ele>176.3</ele>
        <time>2019-11-10T13:24:36Z</time>
      </trkpt>
      <trkpt lat="50.11428" lon="4.11864">
        <ele>176</ele>
        <time>2019-11-10T13:24:44Z</time>
      </trkpt>
      <trkpt lat="50.11425" lon="4.11877">
        <ele>175.5</ele>
        <time>2019-11-10T13:24:50Z</time>
      </trkpt>
      <trkpt lat="50.11422" lon="4.11891">
        <ele>176.3</ele>
        <time>2019-11-10T13:24:57Z</time>
      </trkpt>
      <trkpt lat="50.11431" lon="4.11895">
        <ele>176.2</ele>
        <time>2019-11-10T13:25:03Z</time>
      </trkpt>
      <trkpt lat="50.11439" lon="4.11904">
        <ele>177.9</ele>
        <time>2019-11-10T13:25:10Z</time>
      </trkpt>
      <trkpt lat="50.11449" lon="4.11905">
        <ele>179.6</ele>
        <time>2019-11-10T13:25:18Z</time>
      </trkpt>
      <trkpt lat="50.11458" lon="4.11904">
        <ele>179.6</ele>
        <time>2019-11-10T13:25:25Z</time>
      </trkpt>
      <trkpt lat="50.11467" lon="4.11903">
        <ele>179.6</ele>
        <time>2019-11-10T13:25:37Z</time>
      </trkpt>
      <trkpt lat="50.11476" lon="4.11907">
        <ele>179.5</ele>
        <time>2019-11-10T13:25:42Z</time>
      </trkpt>
      <trkpt lat="50.11485" lon="4.11909">
        <ele>179.9</ele>
        <time>2019-11-10T13:25:47Z</time>
      </trkpt>
      <trkpt lat="50.11495" lon="4.1191">
        <ele>180</ele>
        <time>2019-11-10T13:25:55Z</time>
      </trkpt>
      <trkpt lat="50.11504" lon="4.11912">
        <ele>179.8</ele>
        <time>2019-11-10T13:26:05Z</time>
      </trkpt>
      <trkpt lat="50.11514" lon="4.11914">
        <ele>179.2</ele>
        <time>2019-11-10T13:26:11Z</time>
      </trkpt>
      <trkpt lat="50.11523" lon="4.11917">
        <ele>179.3</ele>
        <time>2019-11-10T13:26:18Z</time>
      </trkpt>
      <trkpt lat="50.11533" lon="4.11921">
        <ele>178.9</ele>
        <time>2019-11-10T13:26:26Z</time>
      </trkpt>
      <trkpt lat="50.11542" lon="4.11925">
        <ele>178.5</ele>
        <time>2019-11-10T13:26:35Z</time>
      </trkpt>
      <trkpt lat="50.11552" lon="4.11923">
        <ele>178.1</ele>
        <time>2019-11-10T13:26:41Z</time>
      </trkpt>
      <trkpt lat="50.11561" lon="4.11922">
        <ele>177.8</ele>
        <time>2019-11-10T13:26:46Z</time>
      </trkpt>
      <trkpt lat="50.1157" lon="4.11918">
        <ele>174.7</ele>
        <time>2019-11-10T13:26:56Z</time>
      </trkpt>
      <trkpt lat="50.11579" lon="4.11914">
        <ele>171.7</ele>
        <time>2019-11-10T13:27:00Z</time>
      </trkpt>
      <trkpt lat="50.11589" lon="4.11909">
        <ele>175.5</ele>
        <time>2019-11-10T13:27:10Z</time>
      </trkpt>
      <trkpt lat="50.11598" lon="4.11904">
        <ele>176.4</ele>
        <time>2019-11-10T13:27:18Z</time>
      </trkpt>
      <trkpt lat="50.11607" lon="4.11899">
        <ele>176.1</ele>
        <time>2019-11-10T13:27:27Z</time>
      </trkpt>
      <trkpt lat="50.11615" lon="4.11894">
        <ele>175.2</ele>
        <time>2019-11-10T13:27:34Z</time>
      </trkpt>
      <trkpt lat="50.11624" lon="4.11884">
        <ele>174.7</ele>
        <time>2019-11-10T13:27:41Z</time>
      </trkpt>
      <trkpt lat="50.11633" lon="4.1188">
        <ele>175.3</ele>
        <time>2019-11-10T13:27:47Z</time>
      </trkpt>
      <trkpt lat="50.11643" lon="4.11876">
        <ele>175.8</ele>
        <time>2019-11-10T13:27:55Z</time>
      </trkpt>
      <trkpt lat="50.11652" lon="4.11871">
        <ele>175.3</ele>
        <time>2019-11-10T13:28:03Z</time>
      </trkpt>
      <trkpt lat="50.11659" lon="4.1186">
        <ele>174.7</ele>
        <time>2019-11-10T13:28:11Z</time>
      </trkpt>
      <trkpt lat="50.11668" lon="4.11853">
        <ele>174.8</ele>
        <time>2019-11-10T13:28:19Z</time>
      </trkpt>
      <trkpt lat="50.11676" lon="4.11848">
        <ele>175.1</ele>
        <time>2019-11-10T13:28:28Z</time>
      </trkpt>
      <trkpt lat="50.11686" lon="4.1185">
        <ele>174.8</ele>
        <time>2019-11-10T13:28:36Z</time>
      </trkpt>
      <trkpt lat="50.11694" lon="4.11842">
        <ele>174.3</ele>
        <time>2019-11-10T13:28:42Z</time>
      </trkpt>
      <trkpt lat="50.11703" lon="4.11835">
        <ele>173.7</ele>
        <time>2019-11-10T13:28:50Z</time>
      </trkpt>
      <trkpt lat="50.1171" lon="4.11826">
        <ele>173.8</ele>
        <time>2019-11-10T13:28:58Z</time>
      </trkpt>
      <trkpt lat="50.11719" lon="4.1182">
        <ele>173.1</ele>
        <time>2019-11-10T13:29:04Z</time>
      </trkpt>
      <trkpt lat="50.11728" lon="4.11817">
        <ele>173.7</ele>
        <time>2019-11-10T13:29:11Z</time>
      </trkpt>
      <trkpt lat="50.11737" lon="4.11814">
        <ele>173.6</ele>
        <time>2019-11-10T13:29:17Z</time>
      </trkpt>
      <trkpt lat="50.11747" lon="4.11814">
        <ele>174.5</ele>
        <time>2019-11-10T13:29:25Z</time>
      </trkpt>
      <trkpt lat="50.11745" lon="4.11828">
        <ele>176.3</ele>
        <time>2019-11-10T13:29:41Z</time>
      </trkpt>
      <trkpt lat="50.1174" lon="4.11841">
        <ele>178.9</ele>
        <time>2019-11-10T13:29:53Z</time>
      </trkpt>
      <trkpt lat="50.11737" lon="4.11854">
        <ele>180.2</ele>
        <time>2019-11-10T13:30:03Z</time>
      </trkpt>
      <trkpt lat="50.11734" lon="4.11869">
        <ele>181.7</ele>
        <time>2019-11-10T13:30:11Z</time>
      </trkpt>
      <trkpt lat="50.11732" lon="4.11883">
        <ele>182.4</ele>
        <time>2019-11-10T13:30:19Z</time>
      </trkpt>
      <trkpt lat="50.11729" lon="4.11896">
        <ele>183.3</ele>
        <time>2019-11-10T13:30:29Z</time>
      </trkpt>
      <trkpt lat="50.11728" lon="4.11912">
        <ele>185</ele>
        <time>2019-11-10T13:30:39Z</time>
      </trkpt>
      <trkpt lat="50.11726" lon="4.11926">
        <ele>186.1</ele>
        <time>2019-11-10T13:30:47Z</time>
      </trkpt>
      <trkpt lat="50.11724" lon="4.1194">
        <ele>186.8</ele>
        <time>2019-11-10T13:30:55Z</time>
      </trkpt>
      <trkpt lat="50.11722" lon="4.11954">
        <ele>187.6</ele>
        <time>2019-11-10T13:31:11Z</time>
      </trkpt>
      <trkpt lat="50.11722" lon="4.11969">
        <ele>189.5</ele>
        <time>2019-11-10T13:31:37Z</time>
      </trkpt>
      <trkpt lat="50.11719" lon="4.11983">
        <ele>189.7</ele>
        <time>2019-11-10T13:32:11Z</time>
      </trkpt>
      <trkpt lat="50.11717" lon="4.11997">
        <ele>190.5</ele>
        <time>2019-11-10T13:32:24Z</time>
      </trkpt>
      <trkpt lat="50.11715" lon="4.12013">
        <ele>190.8</ele>
        <time>2019-11-10T13:32:43Z</time>
      </trkpt>
      <trkpt lat="50.11714" lon="4.12027">
        <ele>191.3</ele>
        <time>2019-11-10T13:32:52Z</time>
      </trkpt>
      <trkpt lat="50.11718" lon="4.12041">
        <ele>191.7</ele>
        <time>2019-11-10T13:33:01Z</time>
      </trkpt>
      <trkpt lat="50.11719" lon="4.12055">
        <ele>191.6</ele>
        <time>2019-11-10T13:33:09Z</time>
      </trkpt>
      <trkpt lat="50.11722" lon="4.12069">
        <ele>192</ele>
        <time>2019-11-10T13:33:20Z</time>
      </trkpt>
      <trkpt lat="50.11723" lon="4.12083">
        <ele>192.5</ele>
        <time>2019-11-10T13:33:31Z</time>
      </trkpt>
      <trkpt lat="50.11723" lon="4.12097">
        <ele>193.6</ele>
        <time>2019-11-10T13:33:41Z</time>
      </trkpt>
      <trkpt lat="50.11725" lon="4.12112">
        <ele>194.3</ele>
        <time>2019-11-10T13:33:52Z</time>
      </trkpt>
      <trkpt lat="50.11725" lon="4.12128">
        <ele>195.6</ele>
        <time>2019-11-10T13:34:01Z</time>
      </trkpt>
      <trkpt lat="50.11726" lon="4.12143">
        <ele>196.4</ele>
        <time>2019-11-10T13:34:11Z</time>
      </trkpt>
      <trkpt lat="50.11726" lon="4.12158">
        <ele>196.8</ele>
        <time>2019-11-10T13:34:18Z</time>
      </trkpt>
      <trkpt lat="50.11725" lon="4.12172">
        <ele>196.7</ele>
        <time>2019-11-10T13:34:24Z</time>
      </trkpt>
      <trkpt lat="50.11732" lon="4.12182">
        <ele>195.9</ele>
        <time>2019-11-10T13:34:34Z</time>
      </trkpt>
      <trkpt lat="50.11737" lon="4.12196">
        <ele>195.2</ele>
        <time>2019-11-10T13:35:13Z</time>
      </trkpt>
      <trkpt lat="50.11739" lon="4.1221">
        <ele>194.3</ele>
        <time>2019-11-10T13:35:20Z</time>
      </trkpt>
      <trkpt lat="50.11742" lon="4.12225">
        <ele>193.2</ele>
        <time>2019-11-10T13:35:28Z</time>
      </trkpt>
      <trkpt lat="50.11747" lon="4.12238">
        <ele>192.2</ele>
        <time>2019-11-10T13:35:36Z</time>
      </trkpt>
      <trkpt lat="50.11752" lon="4.1225">
        <ele>191.8</ele>
        <time>2019-11-10T13:35:44Z</time>
      </trkpt>
      <trkpt lat="50.11755" lon="4.12264">
        <ele>191.3</ele>
        <time>2019-11-10T13:35:50Z</time>
      </trkpt>
      <trkpt lat="50.11759" lon="4.12279">
        <ele>191.1</ele>
        <time>2019-11-10T13:35:57Z</time>
      </trkpt>
      <trkpt lat="50.11763" lon="4.12293">
        <ele>190.8</ele>
        <time>2019-11-10T13:36:04Z</time>
      </trkpt>
      <trkpt lat="50.11767" lon="4.12307">
        <ele>190.3</ele>
        <time>2019-11-10T13:36:12Z</time>
      </trkpt>
      <trkpt lat="50.11768" lon="4.12323">
        <ele>189.9</ele>
        <time>2019-11-10T13:36:19Z</time>
      </trkpt>
      <trkpt lat="50.1177" lon="4.12337">
        <ele>189.1</ele>
        <time>2019-11-10T13:36:27Z</time>
      </trkpt>
      <trkpt lat="50.11774" lon="4.12351">
        <ele>188.3</ele>
        <time>2019-11-10T13:36:36Z</time>
      </trkpt>
      <trkpt lat="50.11782" lon="4.12361">
        <ele>187.1</ele>
        <time>2019-11-10T13:36:43Z</time>
      </trkpt>
      <trkpt lat="50.1179" lon="4.1237">
        <ele>185.9</ele>
        <time>2019-11-10T13:36:48Z</time>
      </trkpt>
      <trkpt lat="50.11798" lon="4.12378">
        <ele>184.7</ele>
        <time>2019-11-10T13:36:54Z</time>
      </trkpt>
      <trkpt lat="50.11805" lon="4.12389">
        <ele>183.4</ele>
        <time>2019-11-10T13:37:01Z</time>
      </trkpt>
      <trkpt lat="50.1181" lon="4.12401">
        <ele>181.4</ele>
        <time>2019-11-10T13:37:12Z</time>
      </trkpt>
      <trkpt lat="50.11817" lon="4.12412">
        <ele>180.7</ele>
        <time>2019-11-10T13:37:19Z</time>
      </trkpt>
      <trkpt lat="50.11824" lon="4.12424">
        <ele>179.2</ele>
        <time>2019-11-10T13:37:29Z</time>
      </trkpt>
      <trkpt lat="50.11828" lon="4.12438">
        <ele>178</ele>
        <time>2019-11-10T13:37:38Z</time>
      </trkpt>
      <trkpt lat="50.11828" lon="4.12452">
        <ele>177</ele>
        <time>2019-11-10T13:37:45Z</time>
      </trkpt>
      <trkpt lat="50.11827" lon="4.12468">
        <ele>176.3</ele>
        <time>2019-11-10T13:37:52Z</time>
      </trkpt>
      <trkpt lat="50.11824" lon="4.12481">
        <ele>176.7</ele>
        <time>2019-11-10T13:38:00Z</time>
      </trkpt>
      <trkpt lat="50.11819" lon="4.12493">
        <ele>177.6</ele>
        <time>2019-11-10T13:38:06Z</time>
      </trkpt>
      <trkpt lat="50.11816" lon="4.12509">
        <ele>178</ele>
        <time>2019-11-10T13:38:13Z</time>
      </trkpt>
      <trkpt lat="50.11812" lon="4.12524">
        <ele>178.8</ele>
        <time>2019-11-10T13:38:19Z</time>
      </trkpt>
      <trkpt lat="50.11808" lon="4.12538">
        <ele>178.9</ele>
        <time>2019-11-10T13:38:26Z</time>
      </trkpt>
      <trkpt lat="50.11805" lon="4.12551">
        <ele>179.6</ele>
        <time>2019-11-10T13:38:33Z</time>
      </trkpt>
      <trkpt lat="50.11801" lon="4.12567">
        <ele>180.1</ele>
        <time>2019-11-10T13:38:40Z</time>
      </trkpt>
      <trkpt lat="50.11799" lon="4.12582">
        <ele>180.2</ele>
        <time>2019-11-10T13:38:47Z</time>
      </trkpt>
      <trkpt lat="50.11796" lon="4.12596">
        <ele>180.3</ele>
        <time>2019-11-10T13:38:54Z</time>
      </trkpt>
      <trkpt lat="50.11792" lon="4.12612">
        <ele>180.6</ele>
        <time>2019-11-10T13:39:00Z</time>
      </trkpt>
      <trkpt lat="50.11789" lon="4.12626">
        <ele>181</ele>
        <time>2019-11-10T13:39:07Z</time>
      </trkpt>
      <trkpt lat="50.11786" lon="4.1264">
        <ele>181</ele>
        <time>2019-11-10T13:39:12Z</time>
      </trkpt>
      <trkpt lat="50.11782" lon="4.12654">
        <ele>181.2</ele>
        <time>2019-11-10T13:39:20Z</time>
      </trkpt>
      <trkpt lat="50.11779" lon="4.12669">
        <ele>181.3</ele>
        <time>2019-11-10T13:39:28Z</time>
      </trkpt>
      <trkpt lat="50.11777" lon="4.12684">
        <ele>181.2</ele>
        <time>2019-11-10T13:39:39Z</time>
      </trkpt>
      <trkpt lat="50.11775" lon="4.12698">
        <ele>181.5</ele>
        <time>2019-11-10T13:39:46Z</time>
      </trkpt>
      <trkpt lat="50.11772" lon="4.12711">
        <ele>181.1</ele>
        <time>2019-11-10T13:39:52Z</time>
      </trkpt>
      <trkpt lat="50.11768" lon="4.12725">
        <ele>180.7</ele>
        <time>2019-11-10T13:39:58Z</time>
      </trkpt>
      <trkpt lat="50.11767" lon="4.1274">
        <ele>180.1</ele>
        <time>2019-11-10T13:40:06Z</time>
      </trkpt>
      <trkpt lat="50.1176" lon="4.12752">
        <ele>179.2</ele>
        <time>2019-11-10T13:40:13Z</time>
      </trkpt>
      <trkpt lat="50.11752" lon="4.12761">
        <ele>179.3</ele>
        <time>2019-11-10T13:40:20Z</time>
      </trkpt>
      <trkpt lat="50.11744" lon="4.1277">
        <ele>179</ele>
        <time>2019-11-10T13:40:28Z</time>
      </trkpt>
      <trkpt lat="50.11736" lon="4.12779">
        <ele>178.7</ele>
        <time>2019-11-10T13:40:36Z</time>
      </trkpt>
      <trkpt lat="50.11728" lon="4.12787">
        <ele>177.9</ele>
        <time>2019-11-10T13:40:46Z</time>
      </trkpt>
      <trkpt lat="50.11719" lon="4.12785">
        <ele>176.7</ele>
        <time>2019-11-10T13:40:54Z</time>
      </trkpt>
      <trkpt lat="50.1171" lon="4.12778">
        <ele>175</ele>
        <time>2019-11-10T13:41:03Z</time>
      </trkpt>
      <trkpt lat="50.11702" lon="4.12769">
        <ele>173</ele>
        <time>2019-11-10T13:41:12Z</time>
      </trkpt>
      <trkpt lat="50.11695" lon="4.1276">
        <ele>172.3</ele>
        <time>2019-11-10T13:41:20Z</time>
      </trkpt>
      <trkpt lat="50.11687" lon="4.1275">
        <ele>171.7</ele>
        <time>2019-11-10T13:41:28Z</time>
      </trkpt>
      <trkpt lat="50.11679" lon="4.12744">
        <ele>172</ele>
        <time>2019-11-10T13:41:35Z</time>
      </trkpt>
      <trkpt lat="50.11671" lon="4.12736">
        <ele>172.5</ele>
        <time>2019-11-10T13:41:41Z</time>
      </trkpt>
      <trkpt lat="50.11664" lon="4.12726">
        <ele>173.1</ele>
        <time>2019-11-10T13:41:48Z</time>
      </trkpt>
      <trkpt lat="50.11656" lon="4.12718">
        <ele>174.1</ele>
        <time>2019-11-10T13:41:57Z</time>
      </trkpt>
      <trkpt lat="50.11655" lon="4.12733">
        <ele>173.6</ele>
        <time>2019-11-10T13:42:15Z</time>
      </trkpt>
      <trkpt lat="50.1166" lon="4.12746">
        <ele>174.5</ele>
        <time>2019-11-10T13:42:22Z</time>
      </trkpt>
      <trkpt lat="50.11662" lon="4.12762">
        <ele>174.7</ele>
        <time>2019-11-10T13:42:29Z</time>
      </trkpt>
      <trkpt lat="50.11662" lon="4.12777">
        <ele>175</ele>
        <time>2019-11-10T13:42:36Z</time>
      </trkpt>
      <trkpt lat="50.11666" lon="4.12791">
        <ele>176.6</ele>
        <time>2019-11-10T13:42:47Z</time>
      </trkpt>
      <trkpt lat="50.11668" lon="4.12805">
        <ele>178.4</ele>
        <time>2019-11-10T13:42:57Z</time>
      </trkpt>
      <trkpt lat="50.1166" lon="4.12814">
        <ele>179.6</ele>
        <time>2019-11-10T13:43:08Z</time>
      </trkpt>
      <trkpt lat="50.11651" lon="4.1282">
        <ele>181.2</ele>
        <time>2019-11-10T13:43:15Z</time>
      </trkpt>
      <trkpt lat="50.11642" lon="4.12822">
        <ele>182.2</ele>
        <time>2019-11-10T13:43:24Z</time>
      </trkpt>
      <trkpt lat="50.11633" lon="4.12827">
        <ele>183.7</ele>
        <time>2019-11-10T13:43:32Z</time>
      </trkpt>
      <trkpt lat="50.11624" lon="4.12829">
        <ele>184.1</ele>
        <time>2019-11-10T13:43:41Z</time>
      </trkpt>
      <trkpt lat="50.11614" lon="4.12829">
        <ele>186</ele>
        <time>2019-11-10T13:43:52Z</time>
      </trkpt>
      <trkpt lat="50.11605" lon="4.12831">
        <ele>187.3</ele>
        <time>2019-11-10T13:44:01Z</time>
      </trkpt>
      <trkpt lat="50.11595" lon="4.12832">
        <ele>188.8</ele>
        <time>2019-11-10T13:44:13Z</time>
      </trkpt>
      <trkpt lat="50.11586" lon="4.12833">
        <ele>189.9</ele>
        <time>2019-11-10T13:44:22Z</time>
      </trkpt>
      <trkpt lat="50.11577" lon="4.12838">
        <ele>190.9</ele>
        <time>2019-11-10T13:44:28Z</time>
      </trkpt>
      <trkpt lat="50.11567" lon="4.12841">
        <ele>191.4</ele>
        <time>2019-11-10T13:44:35Z</time>
      </trkpt>
      <trkpt lat="50.11558" lon="4.12844">
        <ele>191.7</ele>
        <time>2019-11-10T13:44:41Z</time>
      </trkpt>
      <trkpt lat="50.11548" lon="4.12846">
        <ele>192.8</ele>
        <time>2019-11-10T13:44:49Z</time>
      </trkpt>
      <trkpt lat="50.1154" lon="4.12852">
        <ele>192.6</ele>
        <time>2019-11-10T13:44:56Z</time>
      </trkpt>
      <trkpt lat="50.11533" lon="4.12861">
        <ele>191.7</ele>
        <time>2019-11-10T13:45:02Z</time>
      </trkpt>
      <trkpt lat="50.11527" lon="4.12872">
        <ele>190.6</ele>
        <time>2019-11-10T13:45:08Z</time>
      </trkpt>
      <trkpt lat="50.11523" lon="4.12884">
        <ele>189.2</ele>
        <time>2019-11-10T13:45:15Z</time>
      </trkpt>
      <trkpt lat="50.11517" lon="4.12897">
        <ele>188.2</ele>
        <time>2019-11-10T13:45:22Z</time>
      </trkpt>
      <trkpt lat="50.1151" lon="4.12907">
        <ele>186.3</ele>
        <time>2019-11-10T13:45:29Z</time>
      </trkpt>
      <trkpt lat="50.11504" lon="4.1292">
        <ele>184</ele>
        <time>2019-11-10T13:45:37Z</time>
      </trkpt>
      <trkpt lat="50.115" lon="4.12934">
        <ele>181</ele>
        <time>2019-11-10T13:45:46Z</time>
      </trkpt>
      <trkpt lat="50.11498" lon="4.12949">
        <ele>177</ele>
        <time>2019-11-10T13:45:54Z</time>
      </trkpt>
      <trkpt lat="50.11496" lon="4.12963">
        <ele>174.9</ele>
        <time>2019-11-10T13:46:00Z</time>
      </trkpt>
      <trkpt lat="50.11495" lon="4.12948">
        <ele>174.6</ele>
        <time>2019-11-10T13:46:41Z</time>
      </trkpt>
      <trkpt lat="50.1149" lon="4.1296">
        <ele>173.8</ele>
        <time>2019-11-10T13:46:50Z</time>
      </trkpt>
      <trkpt lat="50.11485" lon="4.12975">
        <ele>173.7</ele>
        <time>2019-11-10T13:46:56Z</time>
      </trkpt>
      <trkpt lat="50.1148" lon="4.12988">
        <ele>173.4</ele>
        <time>2019-11-10T13:47:02Z</time>
      </trkpt>
      <trkpt lat="50.11476" lon="4.13001">
        <ele>173.5</ele>
        <time>2019-11-10T13:47:09Z</time>
      </trkpt>
      <trkpt lat="50.11471" lon="4.13013">
        <ele>173</ele>
        <time>2019-11-10T13:47:15Z</time>
      </trkpt>
      <trkpt lat="50.11466" lon="4.13026">
        <ele>172.6</ele>
        <time>2019-11-10T13:47:21Z</time>
      </trkpt>
      <trkpt lat="50.11465" lon="4.1304">
        <ele>172.3</ele>
        <time>2019-11-10T13:47:28Z</time>
      </trkpt>
      <trkpt lat="50.11458" lon="4.1305">
        <ele>171.8</ele>
        <time>2019-11-10T13:47:35Z</time>
      </trkpt>
      <trkpt lat="50.11451" lon="4.13061">
        <ele>172.1</ele>
        <time>2019-11-10T13:47:42Z</time>
      </trkpt>
      <trkpt lat="50.11445" lon="4.13072">
        <ele>171.9</ele>
        <time>2019-11-10T13:47:49Z</time>
      </trkpt>
      <trkpt lat="50.11439" lon="4.13085">
        <ele>172.1</ele>
        <time>2019-11-10T13:47:58Z</time>
      </trkpt>
      <trkpt lat="50.11432" lon="4.13096">
        <ele>172</ele>
        <time>2019-11-10T13:48:08Z</time>
      </trkpt>
      <trkpt lat="50.11425" lon="4.13108">
        <ele>171.7</ele>
        <time>2019-11-10T13:48:18Z</time>
      </trkpt>
      <trkpt lat="50.11418" lon="4.13117">
        <ele>172.2</ele>
        <time>2019-11-10T13:48:26Z</time>
      </trkpt>
      <trkpt lat="50.1141" lon="4.13125">
        <ele>172.2</ele>
        <time>2019-11-10T13:48:34Z</time>
      </trkpt>
      <trkpt lat="50.11403" lon="4.13134">
        <ele>172.5</ele>
        <time>2019-11-10T13:48:41Z</time>
      </trkpt>
      <trkpt lat="50.11398" lon="4.13146">
        <ele>171.7</ele>
        <time>2019-11-10T13:48:49Z</time>
      </trkpt>
      <trkpt lat="50.1139" lon="4.13152">
        <ele>171.9</ele>
        <time>2019-11-10T13:48:57Z</time>
      </trkpt>
      <trkpt lat="50.11382" lon="4.13161">
        <ele>171.7</ele>
        <time>2019-11-10T13:49:08Z</time>
      </trkpt>
      <trkpt lat="50.11374" lon="4.1317">
        <ele>171.7</ele>
        <time>2019-11-10T13:49:15Z</time>
      </trkpt>
      <trkpt lat="50.11366" lon="4.13179">
        <ele>171.9</ele>
        <time>2019-11-10T13:49:21Z</time>
      </trkpt>
      <trkpt lat="50.11359" lon="4.13188">
        <ele>171.9</ele>
        <time>2019-11-10T13:49:28Z</time>
      </trkpt>
      <trkpt lat="50.11351" lon="4.13197">
        <ele>172.9</ele>
        <time>2019-11-10T13:49:36Z</time>
      </trkpt>
      <trkpt lat="50.11342" lon="4.13205">
        <ele>173.5</ele>
        <time>2019-11-10T13:49:44Z</time>
      </trkpt>
      <trkpt lat="50.11333" lon="4.13212">
        <ele>174.2</ele>
        <time>2019-11-10T13:49:50Z</time>
      </trkpt>
      <trkpt lat="50.11323" lon="4.1321">
        <ele>174</ele>
        <time>2019-11-10T13:49:56Z</time>
      </trkpt>
      <trkpt lat="50.11316" lon="4.132">
        <ele>173.1</ele>
        <time>2019-11-10T13:50:03Z</time>
      </trkpt>
      <trkpt lat="50.11309" lon="4.13191">
        <ele>172</ele>
        <time>2019-11-10T13:50:10Z</time>
      </trkpt>
      <trkpt lat="50.113" lon="4.13183">
        <ele>171.5</ele>
        <time>2019-11-10T13:50:18Z</time>
      </trkpt>
      <trkpt lat="50.11293" lon="4.13174">
        <ele>171.2</ele>
        <time>2019-11-10T13:50:25Z</time>
      </trkpt>
      <trkpt lat="50.11285" lon="4.13164">
        <ele>171.2</ele>
        <time>2019-11-10T13:50:33Z</time>
      </trkpt>
      <trkpt lat="50.1128" lon="4.13152">
        <ele>171.3</ele>
        <time>2019-11-10T13:50:41Z</time>
      </trkpt>
      <trkpt lat="50.11279" lon="4.13136">
        <ele>171.4</ele>
        <time>2019-11-10T13:50:50Z</time>
      </trkpt>
      <trkpt lat="50.11273" lon="4.13124">
        <ele>171.7</ele>
        <time>2019-11-10T13:50:58Z</time>
      </trkpt>
      <trkpt lat="50.1127" lon="4.13108">
        <ele>172.2</ele>
        <time>2019-11-10T13:51:06Z</time>
      </trkpt>
      <trkpt lat="50.11268" lon="4.13094">
        <ele>172.5</ele>
        <time>2019-11-10T13:51:14Z</time>
      </trkpt>
      <trkpt lat="50.11265" lon="4.1308">
        <ele>172.9</ele>
        <time>2019-11-10T13:51:20Z</time>
      </trkpt>
      <trkpt lat="50.11266" lon="4.13066">
        <ele>172.6</ele>
        <time>2019-11-10T13:51:29Z</time>
      </trkpt>
      <trkpt lat="50.11258" lon="4.13059">
        <ele>172.8</ele>
        <time>2019-11-10T13:51:41Z</time>
      </trkpt>
      <trkpt lat="50.11253" lon="4.13073">
        <ele>173.4</ele>
        <time>2019-11-10T13:51:51Z</time>
      </trkpt>
      <trkpt lat="50.11249" lon="4.13086">
        <ele>173.7</ele>
        <time>2019-11-10T13:51:57Z</time>
      </trkpt>
      <trkpt lat="50.11246" lon="4.13101">
        <ele>175.1</ele>
        <time>2019-11-10T13:52:05Z</time>
      </trkpt>
      <trkpt lat="50.11241" lon="4.13114">
        <ele>176</ele>
        <time>2019-11-10T13:52:12Z</time>
      </trkpt>
      <trkpt lat="50.11238" lon="4.13127">
        <ele>176.8</ele>
        <time>2019-11-10T13:52:19Z</time>
      </trkpt>
      <trkpt lat="50.11238" lon="4.13143">
        <ele>177.2</ele>
        <time>2019-11-10T13:52:30Z</time>
      </trkpt>
      <trkpt lat="50.11238" lon="4.13158">
        <ele>176.8</ele>
        <time>2019-11-10T13:52:37Z</time>
      </trkpt>
      <trkpt lat="50.11242" lon="4.13171">
        <ele>176.5</ele>
        <time>2019-11-10T13:52:44Z</time>
      </trkpt>
      <trkpt lat="50.1125" lon="4.13182">
        <ele>175.5</ele>
        <time>2019-11-10T13:52:52Z</time>
      </trkpt>
      <trkpt lat="50.11258" lon="4.13189">
        <ele>174.2</ele>
        <time>2019-11-10T13:53:01Z</time>
      </trkpt>
      <trkpt lat="50.11266" lon="4.13196">
        <ele>173</ele>
        <time>2019-11-10T13:53:09Z</time>
      </trkpt>
      <trkpt lat="50.11273" lon="4.13209">
        <ele>173.1</ele>
        <time>2019-11-10T13:53:17Z</time>
      </trkpt>
      <trkpt lat="50.11276" lon="4.13222">
        <ele>172.8</ele>
        <time>2019-11-10T13:53:24Z</time>
      </trkpt>
      <trkpt lat="50.1128" lon="4.13237">
        <ele>172.3</ele>
        <time>2019-11-10T13:53:32Z</time>
      </trkpt>
      <trkpt lat="50.11281" lon="4.13251">
        <ele>171.9</ele>
        <time>2019-11-10T13:53:39Z</time>
      </trkpt>
      <trkpt lat="50.11277" lon="4.13266">
        <ele>171.6</ele>
        <time>2019-11-10T13:53:52Z</time>
      </trkpt>
      <trkpt lat="50.11273" lon="4.13279">
        <ele>171.3</ele>
        <time>2019-11-10T13:53:59Z</time>
      </trkpt>
      <trkpt lat="50.11267" lon="4.13291">
        <ele>170.8</ele>
        <time>2019-11-10T13:54:08Z</time>
      </trkpt>
      <trkpt lat="50.11262" lon="4.13303">
        <ele>170.3</ele>
        <time>2019-11-10T13:54:16Z</time>
      </trkpt>
      <trkpt lat="50.11253" lon="4.1331">
        <ele>170.6</ele>
        <time>2019-11-10T13:54:25Z</time>
      </trkpt>
      <trkpt lat="50.11245" lon="4.13317">
        <ele>170.6</ele>
        <time>2019-11-10T13:54:33Z</time>
      </trkpt>
      <trkpt lat="50.11237" lon="4.13325">
        <ele>170.3</ele>
        <time>2019-11-10T13:54:43Z</time>
      </trkpt>
      <trkpt lat="50.11239" lon="4.13339">
        <ele>169.8</ele>
        <time>2019-11-10T13:54:57Z</time>
      </trkpt>
      <trkpt lat="50.11245" lon="4.13352">
        <ele>169.7</ele>
        <time>2019-11-10T13:55:06Z</time>
      </trkpt>
      <trkpt lat="50.11251" lon="4.13364">
        <ele>169.9</ele>
        <time>2019-11-10T13:55:15Z</time>
      </trkpt>
      <trkpt lat="50.11255" lon="4.13379">
        <ele>169.9</ele>
        <time>2019-11-10T13:55:23Z</time>
      </trkpt>
      <trkpt lat="50.11261" lon="4.1339">
        <ele>170.1</ele>
        <time>2019-11-10T13:55:31Z</time>
      </trkpt>
      <trkpt lat="50.11265" lon="4.13404">
        <ele>170.1</ele>
        <time>2019-11-10T13:55:40Z</time>
      </trkpt>
      <trkpt lat="50.1127" lon="4.13418">
        <ele>173.8</ele>
        <time>2019-11-10T13:55:48Z</time>
      </trkpt>
      <trkpt lat="50.11273" lon="4.13431">
        <ele>174</ele>
        <time>2019-11-10T13:55:55Z</time>
      </trkpt>
      <trkpt lat="50.11277" lon="4.13444">
        <ele>173.8</ele>
        <time>2019-11-10T13:56:03Z</time>
      </trkpt>
      <trkpt lat="50.1128" lon="4.13458">
        <ele>173.8</ele>
        <time>2019-11-10T13:56:13Z</time>
      </trkpt>
      <trkpt lat="50.1128" lon="4.13472">
        <ele>174</ele>
        <time>2019-11-10T13:56:21Z</time>
      </trkpt>
      <trkpt lat="50.11283" lon="4.13487">
        <ele>175.4</ele>
        <time>2019-11-10T13:56:30Z</time>
      </trkpt>
      <trkpt lat="50.11287" lon="4.135">
        <ele>176.6</ele>
        <time>2019-11-10T13:56:39Z</time>
      </trkpt>
      <trkpt lat="50.11288" lon="4.13514">
        <ele>179</ele>
        <time>2019-11-10T13:56:52Z</time>
      </trkpt>
      <trkpt lat="50.11287" lon="4.13529">
        <ele>179.8</ele>
        <time>2019-11-10T13:57:01Z</time>
      </trkpt>
      <trkpt lat="50.11287" lon="4.13544">
        <ele>181.9</ele>
        <time>2019-11-10T13:57:12Z</time>
      </trkpt>
      <trkpt lat="50.11287" lon="4.1356">
        <ele>182</ele>
        <time>2019-11-10T13:57:20Z</time>
      </trkpt>
      <trkpt lat="50.11286" lon="4.13575">
        <ele>182.2</ele>
        <time>2019-11-10T13:57:27Z</time>
      </trkpt>
      <trkpt lat="50.11288" lon="4.1359">
        <ele>181.5</ele>
        <time>2019-11-10T13:57:35Z</time>
      </trkpt>
      <trkpt lat="50.11289" lon="4.13604">
        <ele>181.9</ele>
        <time>2019-11-10T13:57:43Z</time>
      </trkpt>
      <trkpt lat="50.11287" lon="4.13619">
        <ele>181.9</ele>
        <time>2019-11-10T13:57:51Z</time>
      </trkpt>
      <trkpt lat="50.11285" lon="4.13633">
        <ele>182.8</ele>
        <time>2019-11-10T13:57:59Z</time>
      </trkpt>
      <trkpt lat="50.11282" lon="4.13648">
        <ele>183.3</ele>
        <time>2019-11-10T13:58:06Z</time>
      </trkpt>
      <trkpt lat="50.1128" lon="4.13662">
        <ele>183.6</ele>
        <time>2019-11-10T13:58:13Z</time>
      </trkpt>
      <trkpt lat="50.11277" lon="4.13676">
        <ele>184.2</ele>
        <time>2019-11-10T13:58:21Z</time>
      </trkpt>
      <trkpt lat="50.11275" lon="4.1369">
        <ele>184.5</ele>
        <time>2019-11-10T13:58:30Z</time>
      </trkpt>
      <trkpt lat="50.11273" lon="4.13704">
        <ele>185.2</ele>
        <time>2019-11-10T13:58:39Z</time>
      </trkpt>
      <trkpt lat="50.11272" lon="4.1372">
        <ele>185.4</ele>
        <time>2019-11-10T13:58:47Z</time>
      </trkpt>
      <trkpt lat="50.1127" lon="4.13734">
        <ele>186</ele>
        <time>2019-11-10T13:58:56Z</time>
      </trkpt>
      <trkpt lat="50.11267" lon="4.13749">
        <ele>188.2</ele>
        <time>2019-11-10T13:59:08Z</time>
      </trkpt>
      <trkpt lat="50.11267" lon="4.13763">
        <ele>187.9</ele>
        <time>2019-11-10T13:59:17Z</time>
      </trkpt>
      <trkpt lat="50.11268" lon="4.13778">
        <ele>187.1</ele>
        <time>2019-11-10T13:59:25Z</time>
      </trkpt>
      <trkpt lat="50.11262" lon="4.1379">
        <ele>187.1</ele>
        <time>2019-11-10T13:59:34Z</time>
      </trkpt>
      <trkpt lat="50.11259" lon="4.13803">
        <ele>188.4</ele>
        <time>2019-11-10T13:59:43Z</time>
      </trkpt>
      <trkpt lat="50.11256" lon="4.13817">
        <ele>190.4</ele>
        <time>2019-11-10T13:59:52Z</time>
      </trkpt>
      <trkpt lat="50.11253" lon="4.13832">
        <ele>192</ele>
        <time>2019-11-10T14:00:03Z</time>
      </trkpt>
      <trkpt lat="50.11252" lon="4.13846">
        <ele>193.7</ele>
        <time>2019-11-10T14:00:13Z</time>
      </trkpt>
      <trkpt lat="50.1125" lon="4.13862">
        <ele>194.2</ele>
        <time>2019-11-10T14:00:20Z</time>
      </trkpt>
      <trkpt lat="50.11247" lon="4.13875">
        <ele>194.6</ele>
        <time>2019-11-10T14:00:27Z</time>
      </trkpt>
      <trkpt lat="50.11244" lon="4.13889">
        <ele>194.8</ele>
        <time>2019-11-10T14:00:35Z</time>
      </trkpt>
      <trkpt lat="50.11244" lon="4.13903">
        <ele>195.8</ele>
        <time>2019-11-10T14:00:44Z</time>
      </trkpt>
      <trkpt lat="50.11248" lon="4.13917">
        <ele>195</ele>
        <time>2019-11-10T14:00:52Z</time>
      </trkpt>
      <trkpt lat="50.11248" lon="4.13932">
        <ele>195.5</ele>
        <time>2019-11-10T14:00:59Z</time>
      </trkpt>
      <trkpt lat="50.11249" lon="4.13946">
        <ele>196</ele>
        <time>2019-11-10T14:01:07Z</time>
      </trkpt>
      <trkpt lat="50.11246" lon="4.13959">
        <ele>196.4</ele>
        <time>2019-11-10T14:01:14Z</time>
      </trkpt>
      <trkpt lat="50.11242" lon="4.13974">
        <ele>197.2</ele>
        <time>2019-11-10T14:01:23Z</time>
      </trkpt>
      <trkpt lat="50.11239" lon="4.1399">
        <ele>196.7</ele>
        <time>2019-11-10T14:01:31Z</time>
      </trkpt>
      <trkpt lat="50.11239" lon="4.14005">
        <ele>195.8</ele>
        <time>2019-11-10T14:01:40Z</time>
      </trkpt>
      <trkpt lat="50.11245" lon="4.14017">
        <ele>194.7</ele>
        <time>2019-11-10T14:01:48Z</time>
      </trkpt>
      <trkpt lat="50.1125" lon="4.14029">
        <ele>194.3</ele>
        <time>2019-11-10T14:01:56Z</time>
      </trkpt>
      <trkpt lat="50.11258" lon="4.14039">
        <ele>194.5</ele>
        <time>2019-11-10T14:02:04Z</time>
      </trkpt>
      <trkpt lat="50.11263" lon="4.14051">
        <ele>194.4</ele>
        <time>2019-11-10T14:02:10Z</time>
      </trkpt>
      <trkpt lat="50.11271" lon="4.14058">
        <ele>193</ele>
        <time>2019-11-10T14:02:17Z</time>
      </trkpt>
      <trkpt lat="50.1128" lon="4.14062">
        <ele>191.8</ele>
        <time>2019-11-10T14:02:26Z</time>
      </trkpt>
      <trkpt lat="50.11288" lon="4.14071">
        <ele>190.5</ele>
        <time>2019-11-10T14:02:34Z</time>
      </trkpt>
      <trkpt lat="50.11294" lon="4.14082">
        <ele>188.8</ele>
        <time>2019-11-10T14:02:44Z</time>
      </trkpt>
      <trkpt lat="50.113" lon="4.14093">
        <ele>185.7</ele>
        <time>2019-11-10T14:02:55Z</time>
      </trkpt>
      <trkpt lat="50.11303" lon="4.14106">
        <ele>184.9</ele>
        <time>2019-11-10T14:03:03Z</time>
      </trkpt>
      <trkpt lat="50.11302" lon="4.14121">
        <ele>184.8</ele>
        <time>2019-11-10T14:03:10Z</time>
      </trkpt>
      <trkpt lat="50.11301" lon="4.14135">
        <ele>184.8</ele>
        <time>2019-11-10T14:03:17Z</time>
      </trkpt>
      <trkpt lat="50.113" lon="4.1415">
        <ele>184.6</ele>
        <time>2019-11-10T14:03:24Z</time>
      </trkpt>
      <trkpt lat="50.11302" lon="4.14164">
        <ele>183.3</ele>
        <time>2019-11-10T14:03:34Z</time>
      </trkpt>
      <trkpt lat="50.11301" lon="4.14179">
        <ele>182.7</ele>
        <time>2019-11-10T14:03:43Z</time>
      </trkpt>
      <trkpt lat="50.11302" lon="4.14193">
        <ele>182.3</ele>
        <time>2019-11-10T14:03:51Z</time>
      </trkpt>
      <trkpt lat="50.11304" lon="4.14208">
        <ele>182</ele>
        <time>2019-11-10T14:04:00Z</time>
      </trkpt>
      <trkpt lat="50.11301" lon="4.14221">
        <ele>182.3</ele>
        <time>2019-11-10T14:04:07Z</time>
      </trkpt>
      <trkpt lat="50.11299" lon="4.14236">
        <ele>182.5</ele>
        <time>2019-11-10T14:04:15Z</time>
      </trkpt>
      <trkpt lat="50.11298" lon="4.14251">
        <ele>182.4</ele>
        <time>2019-11-10T14:04:23Z</time>
      </trkpt>
      <trkpt lat="50.11299" lon="4.14266">
        <ele>181.7</ele>
        <time>2019-11-10T14:04:34Z</time>
      </trkpt>
      <trkpt lat="50.11299" lon="4.14282">
        <ele>181.4</ele>
        <time>2019-11-10T14:04:45Z</time>
      </trkpt>
      <trkpt lat="50.11299" lon="4.14297">
        <ele>181.5</ele>
        <time>2019-11-10T14:04:54Z</time>
      </trkpt>
      <trkpt lat="50.113" lon="4.14311">
        <ele>181.8</ele>
        <time>2019-11-10T14:05:38Z</time>
      </trkpt>
      <trkpt lat="50.11297" lon="4.14326">
        <ele>181.6</ele>
        <time>2019-11-10T14:06:43Z</time>
      </trkpt>
      <trkpt lat="50.11299" lon="4.14341">
        <ele>181.9</ele>
        <time>2019-11-10T14:06:56Z</time>
      </trkpt>
      <trkpt lat="50.11298" lon="4.14357">
        <ele>181.4</ele>
        <time>2019-11-10T14:07:04Z</time>
      </trkpt>
      <trkpt lat="50.11302" lon="4.14369">
        <ele>179.4</ele>
        <time>2019-11-10T14:07:15Z</time>
      </trkpt>
      <trkpt lat="50.11307" lon="4.14381">
        <ele>178.9</ele>
        <time>2019-11-10T14:07:23Z</time>
      </trkpt>
      <trkpt lat="50.11315" lon="4.14391">
        <ele>178.3</ele>
        <time>2019-11-10T14:07:31Z</time>
      </trkpt>
      <trkpt lat="50.1132" lon="4.14404">
        <ele>177.8</ele>
        <time>2019-11-10T14:07:40Z</time>
      </trkpt>
      <trkpt lat="50.11324" lon="4.14418">
        <ele>177.3</ele>
        <time>2019-11-10T14:07:50Z</time>
      </trkpt>
      <trkpt lat="50.11326" lon="4.14432">
        <ele>176.8</ele>
        <time>2019-11-10T14:07:58Z</time>
      </trkpt>
      <trkpt lat="50.1133" lon="4.14445">
        <ele>176.2</ele>
        <time>2019-11-10T14:08:23Z</time>
      </trkpt>
      <trkpt lat="50.11326" lon="4.14459">
        <ele>175.9</ele>
        <time>2019-11-10T14:08:55Z</time>
      </trkpt>
      <trkpt lat="50.11327" lon="4.14473">
        <ele>176.1</ele>
        <time>2019-11-10T14:09:02Z</time>
      </trkpt>
      <trkpt lat="50.11326" lon="4.14488">
        <ele>175.7</ele>
        <time>2019-11-10T14:09:09Z</time>
      </trkpt>
      <trkpt lat="50.11327" lon="4.14504">
        <ele>175.4</ele>
        <time>2019-11-10T14:09:17Z</time>
      </trkpt>
      <trkpt lat="50.11329" lon="4.14519">
        <ele>175.1</ele>
        <time>2019-11-10T14:09:28Z</time>
      </trkpt>
      <trkpt lat="50.11338" lon="4.14525">
        <ele>175</ele>
        <time>2019-11-10T14:09:35Z</time>
      </trkpt>
      <trkpt lat="50.11343" lon="4.14539">
        <ele>174.1</ele>
        <time>2019-11-10T14:09:56Z</time>
      </trkpt>
      <trkpt lat="50.11342" lon="4.14553">
        <ele>173.9</ele>
        <time>2019-11-10T14:10:02Z</time>
      </trkpt>
      <trkpt lat="50.11343" lon="4.14567">
        <ele>173.6</ele>
        <time>2019-11-10T14:10:10Z</time>
      </trkpt>
      <trkpt lat="50.11345" lon="4.14582">
        <ele>173</ele>
        <time>2019-11-10T14:10:24Z</time>
      </trkpt>
      <trkpt lat="50.11348" lon="4.14597">
        <ele>172.9</ele>
        <time>2019-11-10T14:10:32Z</time>
      </trkpt>
      <trkpt lat="50.11346" lon="4.14613">
        <ele>173.2</ele>
        <time>2019-11-10T14:10:39Z</time>
      </trkpt>
      <trkpt lat="50.11343" lon="4.14627">
        <ele>172.8</ele>
        <time>2019-11-10T14:10:44Z</time>
      </trkpt>
      <trkpt lat="50.11349" lon="4.14639">
        <ele>172.6</ele>
        <time>2019-11-10T14:10:52Z</time>
      </trkpt>
      <trkpt lat="50.11353" lon="4.14652">
        <ele>171.6</ele>
        <time>2019-11-10T14:11:01Z</time>
      </trkpt>
      <trkpt lat="50.11361" lon="4.14661">
        <ele>170.4</ele>
        <time>2019-11-10T14:11:09Z</time>
      </trkpt>
      <trkpt lat="50.1136" lon="4.14675">
        <ele>170.3</ele>
        <time>2019-11-10T14:11:21Z</time>
      </trkpt>
      <trkpt lat="50.11363" lon="4.14689">
        <ele>170.5</ele>
        <time>2019-11-10T14:12:25Z</time>
      </trkpt>
      <trkpt lat="50.11367" lon="4.14703">
        <ele>171.3</ele>
        <time>2019-11-10T14:12:34Z</time>
      </trkpt>
      <trkpt lat="50.1136" lon="4.14715">
        <ele>173.6</ele>
        <time>2019-11-10T14:12:50Z</time>
      </trkpt>
      <trkpt lat="50.11353" lon="4.14723">
        <ele>174.8</ele>
        <time>2019-11-10T14:12:59Z</time>
      </trkpt>
      <trkpt lat="50.11345" lon="4.14731">
        <ele>176.6</ele>
        <time>2019-11-10T14:13:10Z</time>
      </trkpt>
      <trkpt lat="50.11338" lon="4.14741">
        <ele>179.4</ele>
        <time>2019-11-10T14:13:21Z</time>
      </trkpt>
      <trkpt lat="50.11329" lon="4.14747">
        <ele>181.4</ele>
        <time>2019-11-10T14:13:32Z</time>
      </trkpt>
      <trkpt lat="50.11322" lon="4.14759">
        <ele>184.5</ele>
        <time>2019-11-10T14:13:46Z</time>
      </trkpt>
      <trkpt lat="50.11318" lon="4.14772">
        <ele>186.7</ele>
        <time>2019-11-10T14:13:57Z</time>
      </trkpt>
      <trkpt lat="50.11319" lon="4.14787">
        <ele>190.1</ele>
        <time>2019-11-10T14:14:08Z</time>
      </trkpt>
      <trkpt lat="50.1132" lon="4.14801">
        <ele>191.8</ele>
        <time>2019-11-10T14:14:19Z</time>
      </trkpt>
      <trkpt lat="50.11326" lon="4.14811">
        <ele>193.9</ele>
        <time>2019-11-10T14:14:29Z</time>
      </trkpt>
      <trkpt lat="50.11331" lon="4.14824">
        <ele>195.4</ele>
        <time>2019-11-10T14:14:39Z</time>
      </trkpt>
      <trkpt lat="50.11334" lon="4.14839">
        <ele>195.9</ele>
        <time>2019-11-10T14:14:49Z</time>
      </trkpt>
      <trkpt lat="50.11333" lon="4.14853">
        <ele>196.5</ele>
        <time>2019-11-10T14:14:56Z</time>
      </trkpt>
      <trkpt lat="50.11333" lon="4.14868">
        <ele>197.5</ele>
        <time>2019-11-10T14:15:03Z</time>
      </trkpt>
      <trkpt lat="50.11334" lon="4.14882">
        <ele>198.2</ele>
        <time>2019-11-10T14:15:11Z</time>
      </trkpt>
      <trkpt lat="50.11333" lon="4.14896">
        <ele>199.1</ele>
        <time>2019-11-10T14:15:19Z</time>
      </trkpt>
      <trkpt lat="50.11332" lon="4.14911">
        <ele>199.5</ele>
        <time>2019-11-10T14:15:28Z</time>
      </trkpt>
      <trkpt lat="50.11331" lon="4.14925">
        <ele>200.7</ele>
        <time>2019-11-10T14:15:37Z</time>
      </trkpt>
      <trkpt lat="50.11333" lon="4.1494">
        <ele>202.8</ele>
        <time>2019-11-10T14:15:47Z</time>
      </trkpt>
      <trkpt lat="50.11333" lon="4.14955">
        <ele>204</ele>
        <time>2019-11-10T14:15:57Z</time>
      </trkpt>
      <trkpt lat="50.11334" lon="4.14969">
        <ele>204.8</ele>
        <time>2019-11-10T14:16:06Z</time>
      </trkpt>
      <trkpt lat="50.11335" lon="4.14983">
        <ele>205.4</ele>
        <time>2019-11-10T14:16:15Z</time>
      </trkpt>
      <trkpt lat="50.11336" lon="4.14998">
        <ele>206.5</ele>
        <time>2019-11-10T14:16:26Z</time>
      </trkpt>
      <trkpt lat="50.11335" lon="4.15013">
        <ele>208</ele>
        <time>2019-11-10T14:16:36Z</time>
      </trkpt>
      <trkpt lat="50.11335" lon="4.15028">
        <ele>208.6</ele>
        <time>2019-11-10T14:16:45Z</time>
      </trkpt>
      <trkpt lat="50.11335" lon="4.15043">
        <ele>209.3</ele>
        <time>2019-11-10T14:16:54Z</time>
      </trkpt>
      <trkpt lat="50.11334" lon="4.15057">
        <ele>209.2</ele>
        <time>2019-11-10T14:17:02Z</time>
      </trkpt>
      <trkpt lat="50.11332" lon="4.15071">
        <ele>209.8</ele>
        <time>2019-11-10T14:17:10Z</time>
      </trkpt>
      <trkpt lat="50.11331" lon="4.15086">
        <ele>210.2</ele>
        <time>2019-11-10T14:17:18Z</time>
      </trkpt>
      <trkpt lat="50.1133" lon="4.15101">
        <ele>210.2</ele>
        <time>2019-11-10T14:17:27Z</time>
      </trkpt>
      <trkpt lat="50.11327" lon="4.15115">
        <ele>210.9</ele>
        <time>2019-11-10T14:17:35Z</time>
      </trkpt>
      <trkpt lat="50.1133" lon="4.15129">
        <ele>211.1</ele>
        <time>2019-11-10T14:17:48Z</time>
      </trkpt>
      <trkpt lat="50.11329" lon="4.15143">
        <ele>211.7</ele>
        <time>2019-11-10T14:17:56Z</time>
      </trkpt>
      <trkpt lat="50.11328" lon="4.15158">
        <ele>212.7</ele>
        <time>2019-11-10T14:18:05Z</time>
      </trkpt>
      <trkpt lat="50.11325" lon="4.15172">
        <ele>213</ele>
        <time>2019-11-10T14:18:14Z</time>
      </trkpt>
      <trkpt lat="50.11322" lon="4.15188">
        <ele>213.4</ele>
        <time>2019-11-10T14:18:22Z</time>
      </trkpt>
      <trkpt lat="50.1132" lon="4.15202">
        <ele>214</ele>
        <time>2019-11-10T14:18:30Z</time>
      </trkpt>
      <trkpt lat="50.11317" lon="4.15217">
        <ele>214.5</ele>
        <time>2019-11-10T14:18:38Z</time>
      </trkpt>
      <trkpt lat="50.1132" lon="4.15232">
        <ele>214.7</ele>
        <time>2019-11-10T14:18:49Z</time>
      </trkpt>
      <trkpt lat="50.11317" lon="4.15247">
        <ele>215.2</ele>
        <time>2019-11-10T14:18:57Z</time>
      </trkpt>
      <trkpt lat="50.11316" lon="4.15262">
        <ele>215.5</ele>
        <time>2019-11-10T14:19:07Z</time>
      </trkpt>
      <trkpt lat="50.11314" lon="4.15277">
        <ele>215.5</ele>
        <time>2019-11-10T14:19:15Z</time>
      </trkpt>
      <trkpt lat="50.11313" lon="4.15292">
        <ele>216.2</ele>
        <time>2019-11-10T14:19:25Z</time>
      </trkpt>
      <trkpt lat="50.11314" lon="4.15307">
        <ele>216.6</ele>
        <time>2019-11-10T14:19:35Z</time>
      </trkpt>
      <trkpt lat="50.11314" lon="4.15323">
        <ele>216.9</ele>
        <time>2019-11-10T14:19:44Z</time>
      </trkpt>
      <trkpt lat="50.11317" lon="4.15337">
        <ele>217.2</ele>
        <time>2019-11-10T14:19:55Z</time>
      </trkpt>
      <trkpt lat="50.11326" lon="4.15337">
        <ele>217.3</ele>
        <time>2019-11-10T14:24:02Z</time>
      </trkpt>
      <trkpt lat="50.11316" lon="4.1534">
        <ele>217.3</ele>
        <time>2019-11-10T14:24:27Z</time>
      </trkpt>
      <trkpt lat="50.11308" lon="4.15346">
        <ele>217.5</ele>
        <time>2019-11-10T14:24:34Z</time>
      </trkpt>
      <trkpt lat="50.11298" lon="4.15352">
        <ele>217.9</ele>
        <time>2019-11-10T14:24:41Z</time>
      </trkpt>
      <trkpt lat="50.11291" lon="4.15361">
        <ele>218.4</ele>
        <time>2019-11-10T14:24:48Z</time>
      </trkpt>
      <trkpt lat="50.11282" lon="4.15368">
        <ele>218.7</ele>
        <time>2019-11-10T14:24:56Z</time>
      </trkpt>
      <trkpt lat="50.11274" lon="4.15378">
        <ele>219.5</ele>
        <time>2019-11-10T14:25:02Z</time>
      </trkpt>
      <trkpt lat="50.11267" lon="4.15385">
        <ele>219.8</ele>
        <time>2019-11-10T14:25:07Z</time>
      </trkpt>
      <trkpt lat="50.11258" lon="4.15395">
        <ele>220.4</ele>
        <time>2019-11-10T14:25:14Z</time>
      </trkpt>
      <trkpt lat="50.1125" lon="4.15404">
        <ele>220.9</ele>
        <time>2019-11-10T14:25:20Z</time>
      </trkpt>
      <trkpt lat="50.11243" lon="4.15414">
        <ele>220.6</ele>
        <time>2019-11-10T14:25:26Z</time>
      </trkpt>
      <trkpt lat="50.11238" lon="4.15427">
        <ele>221.6</ele>
        <time>2019-11-10T14:25:35Z</time>
      </trkpt>
      <trkpt lat="50.11232" lon="4.1544">
        <ele>221.8</ele>
        <time>2019-11-10T14:25:44Z</time>
      </trkpt>
      <trkpt lat="50.11226" lon="4.15451">
        <ele>222.4</ele>
        <time>2019-11-10T14:25:51Z</time>
      </trkpt>
      <trkpt lat="50.11221" lon="4.15464">
        <ele>222.3</ele>
        <time>2019-11-10T14:26:02Z</time>
      </trkpt>
      <trkpt lat="50.11217" lon="4.15478">
        <ele>222.8</ele>
        <time>2019-11-10T14:26:11Z</time>
      </trkpt>
      <trkpt lat="50.11212" lon="4.1549">
        <ele>223</ele>
        <time>2019-11-10T14:26:19Z</time>
      </trkpt>
      <trkpt lat="50.11205" lon="4.15502">
        <ele>223.2</ele>
        <time>2019-11-10T14:26:27Z</time>
      </trkpt>
      <trkpt lat="50.11199" lon="4.15516">
        <ele>223</ele>
        <time>2019-11-10T14:26:34Z</time>
      </trkpt>
      <trkpt lat="50.11193" lon="4.15529">
        <ele>223.3</ele>
        <time>2019-11-10T14:26:40Z</time>
      </trkpt>
      <trkpt lat="50.11187" lon="4.1554">
        <ele>223.5</ele>
        <time>2019-11-10T14:26:46Z</time>
      </trkpt>
      <trkpt lat="50.11182" lon="4.15554">
        <ele>223.7</ele>
        <time>2019-11-10T14:26:55Z</time>
      </trkpt>
      <trkpt lat="50.11177" lon="4.15567">
        <ele>223.6</ele>
        <time>2019-11-10T14:27:02Z</time>
      </trkpt>
      <trkpt lat="50.11172" lon="4.15579">
        <ele>224</ele>
        <time>2019-11-10T14:27:08Z</time>
      </trkpt>
      <trkpt lat="50.11167" lon="4.15592">
        <ele>223.9</ele>
        <time>2019-11-10T14:27:16Z</time>
      </trkpt>
      <trkpt lat="50.11165" lon="4.15606">
        <ele>223.5</ele>
        <time>2019-11-10T14:27:26Z</time>
      </trkpt>
      <trkpt lat="50.11158" lon="4.15618">
        <ele>223.9</ele>
        <time>2019-11-10T14:27:34Z</time>
      </trkpt>
      <trkpt lat="50.11151" lon="4.1563">
        <ele>223.6</ele>
        <time>2019-11-10T14:27:42Z</time>
      </trkpt>
      <trkpt lat="50.11145" lon="4.15642">
        <ele>223.3</ele>
        <time>2019-11-10T14:27:48Z</time>
      </trkpt>
      <trkpt lat="50.1114" lon="4.15656">
        <ele>223.3</ele>
        <time>2019-11-10T14:27:55Z</time>
      </trkpt>
      <trkpt lat="50.11136" lon="4.15668">
        <ele>222.9</ele>
        <time>2019-11-10T14:28:02Z</time>
      </trkpt>
      <trkpt lat="50.1113" lon="4.15681">
        <ele>223.1</ele>
        <time>2019-11-10T14:28:09Z</time>
      </trkpt>
      <trkpt lat="50.11124" lon="4.15694">
        <ele>223.2</ele>
        <time>2019-11-10T14:28:17Z</time>
      </trkpt>
      <trkpt lat="50.11121" lon="4.15707">
        <ele>223.3</ele>
        <time>2019-11-10T14:28:26Z</time>
      </trkpt>
      <trkpt lat="50.11116" lon="4.1572">
        <ele>223.2</ele>
        <time>2019-11-10T14:28:34Z</time>
      </trkpt>
      <trkpt lat="50.11111" lon="4.15731">
        <ele>223.2</ele>
        <time>2019-11-10T14:28:41Z</time>
      </trkpt>
      <trkpt lat="50.11106" lon="4.15744">
        <ele>223.3</ele>
        <time>2019-11-10T14:28:49Z</time>
      </trkpt>
      <trkpt lat="50.11099" lon="4.15755">
        <ele>223</ele>
        <time>2019-11-10T14:28:57Z</time>
      </trkpt>
      <trkpt lat="50.11093" lon="4.15766">
        <ele>223.2</ele>
        <time>2019-11-10T14:29:05Z</time>
      </trkpt>
      <trkpt lat="50.11087" lon="4.15777">
        <ele>223.3</ele>
        <time>2019-11-10T14:29:13Z</time>
      </trkpt>
      <trkpt lat="50.11081" lon="4.15789">
        <ele>223.1</ele>
        <time>2019-11-10T14:29:21Z</time>
      </trkpt>
      <trkpt lat="50.11076" lon="4.15802">
        <ele>223.2</ele>
        <time>2019-11-10T14:29:33Z</time>
      </trkpt>
      <trkpt lat="50.11073" lon="4.15817">
        <ele>223.7</ele>
        <time>2019-11-10T14:29:41Z</time>
      </trkpt>
      <trkpt lat="50.11069" lon="4.15831">
        <ele>224</ele>
        <time>2019-11-10T14:29:49Z</time>
      </trkpt>
      <trkpt lat="50.11064" lon="4.15843">
        <ele>224.1</ele>
        <time>2019-11-10T14:29:56Z</time>
      </trkpt>
      <trkpt lat="50.11059" lon="4.15856">
        <ele>223.9</ele>
        <time>2019-11-10T14:30:03Z</time>
      </trkpt>
      <trkpt lat="50.11054" lon="4.1587">
        <ele>224.1</ele>
        <time>2019-11-10T14:30:11Z</time>
      </trkpt>
      <trkpt lat="50.11048" lon="4.15881">
        <ele>224.3</ele>
        <time>2019-11-10T14:30:18Z</time>
      </trkpt>
      <trkpt lat="50.11043" lon="4.15894">
        <ele>224.1</ele>
        <time>2019-11-10T14:30:26Z</time>
      </trkpt>
      <trkpt lat="50.11038" lon="4.15907">
        <ele>224.4</ele>
        <time>2019-11-10T14:30:34Z</time>
      </trkpt>
      <trkpt lat="50.11033" lon="4.15921">
        <ele>224.5</ele>
        <time>2019-11-10T14:30:42Z</time>
      </trkpt>
      <trkpt lat="50.11028" lon="4.15933">
        <ele>224.9</ele>
        <time>2019-11-10T14:30:50Z</time>
      </trkpt>
      <trkpt lat="50.11023" lon="4.15945">
        <ele>224.8</ele>
        <time>2019-11-10T14:30:58Z</time>
      </trkpt>
      <trkpt lat="50.11018" lon="4.15959">
        <ele>224.8</ele>
        <time>2019-11-10T14:31:06Z</time>
      </trkpt>
      <trkpt lat="50.11013" lon="4.15971">
        <ele>225.3</ele>
        <time>2019-11-10T14:31:14Z</time>
      </trkpt>
      <trkpt lat="50.11007" lon="4.15984">
        <ele>225</ele>
        <time>2019-11-10T14:31:22Z</time>
      </trkpt>
      <trkpt lat="50.11008" lon="4.15998">
        <ele>225.2</ele>
        <time>2019-11-10T14:31:34Z</time>
      </trkpt>
      <trkpt lat="50.11014" lon="4.16011">
        <ele>225.8</ele>
        <time>2019-11-10T14:31:42Z</time>
      </trkpt>
      <trkpt lat="50.11016" lon="4.16026">
        <ele>225.6</ele>
        <time>2019-11-10T14:31:50Z</time>
      </trkpt>
      <trkpt lat="50.1102" lon="4.16038">
        <ele>226.4</ele>
        <time>2019-11-10T14:31:58Z</time>
      </trkpt>
      <trkpt lat="50.11021" lon="4.16052">
        <ele>226.9</ele>
        <time>2019-11-10T14:32:05Z</time>
      </trkpt>
      <trkpt lat="50.11015" lon="4.16064">
        <ele>226.8</ele>
        <time>2019-11-10T14:32:16Z</time>
      </trkpt>
      <trkpt lat="50.11013" lon="4.16078">
        <ele>227.6</ele>
        <time>2019-11-10T14:32:29Z</time>
      </trkpt>
      <trkpt lat="50.11012" lon="4.16093">
        <ele>227.8</ele>
        <time>2019-11-10T14:32:38Z</time>
      </trkpt>
      <trkpt lat="50.11009" lon="4.16106">
        <ele>227.7</ele>
        <time>2019-11-10T14:32:45Z</time>
      </trkpt>
      <trkpt lat="50.11009" lon="4.16121">
        <ele>227.9</ele>
        <time>2019-11-10T14:32:53Z</time>
      </trkpt>
      <trkpt lat="50.11006" lon="4.16135">
        <ele>228.1</ele>
        <time>2019-11-10T14:33:00Z</time>
      </trkpt>
      <trkpt lat="50.11007" lon="4.1615">
        <ele>228.6</ele>
        <time>2019-11-10T14:33:10Z</time>
      </trkpt>
      <trkpt lat="50.11005" lon="4.16164">
        <ele>228.7</ele>
        <time>2019-11-10T14:33:19Z</time>
      </trkpt>
      <trkpt lat="50.11011" lon="4.16176">
        <ele>229.1</ele>
        <time>2019-11-10T14:33:25Z</time>
      </trkpt>
      <trkpt lat="50.11016" lon="4.16188">
        <ele>228.9</ele>
        <time>2019-11-10T14:33:31Z</time>
      </trkpt>
      <trkpt lat="50.11016" lon="4.16202">
        <ele>229</ele>
        <time>2019-11-10T14:33:38Z</time>
      </trkpt>
      <trkpt lat="50.11026" lon="4.16206">
        <ele>229</ele>
        <time>2019-11-10T14:33:47Z</time>
      </trkpt>
      <trkpt lat="50.11033" lon="4.16217">
        <ele>229.1</ele>
        <time>2019-11-10T14:34:13Z</time>
      </trkpt>
      <trkpt lat="50.11034" lon="4.16232">
        <ele>229.4</ele>
        <time>2019-11-10T14:34:24Z</time>
      </trkpt>
      <trkpt lat="50.1103" lon="4.16247">
        <ele>229.3</ele>
        <time>2019-11-10T14:34:33Z</time>
      </trkpt>
      <trkpt lat="50.11027" lon="4.16261">
        <ele>229.4</ele>
        <time>2019-11-10T14:34:41Z</time>
      </trkpt>
      <trkpt lat="50.11029" lon="4.16276">
        <ele>229.5</ele>
        <time>2019-11-10T14:34:56Z</time>
      </trkpt>
      <trkpt lat="50.11029" lon="4.16291">
        <ele>229.4</ele>
        <time>2019-11-10T14:35:02Z</time>
      </trkpt>
      <trkpt lat="50.11035" lon="4.16303">
        <ele>229.4</ele>
        <time>2019-11-10T14:35:07Z</time>
      </trkpt>
      <trkpt lat="50.11044" lon="4.16314">
        <ele>229.4</ele>
        <time>2019-11-10T14:35:11Z</time>
      </trkpt>
      <trkpt lat="50.1105" lon="4.16325">
        <ele>229.6</ele>
        <time>2019-11-10T14:35:18Z</time>
      </trkpt>
      <trkpt lat="50.11056" lon="4.16337">
        <ele>229.2</ele>
        <time>2019-11-10T14:35:25Z</time>
      </trkpt>
      <trkpt lat="50.11059" lon="4.16351">
        <ele>229.2</ele>
        <time>2019-11-10T14:35:30Z</time>
      </trkpt>
      <trkpt lat="50.11057" lon="4.16365">
        <ele>229.2</ele>
        <time>2019-11-10T14:35:38Z</time>
      </trkpt>
      <trkpt lat="50.11054" lon="4.16378">
        <ele>228.9</ele>
        <time>2019-11-10T14:35:45Z</time>
      </trkpt>
      <trkpt lat="50.11048" lon="4.16389">
        <ele>229</ele>
        <time>2019-11-10T14:35:53Z</time>
      </trkpt>
      <trkpt lat="50.11049" lon="4.16405">
        <ele>228.8</ele>
        <time>2019-11-10T14:36:01Z</time>
      </trkpt>
      <trkpt lat="50.11049" lon="4.1642">
        <ele>228.7</ele>
        <time>2019-11-10T14:36:07Z</time>
      </trkpt>
      <trkpt lat="50.11058" lon="4.16424">
        <ele>228.6</ele>
        <time>2019-11-10T14:36:17Z</time>
      </trkpt>
      <trkpt lat="50.11066" lon="4.16431">
        <ele>228.2</ele>
        <time>2019-11-10T14:36:23Z</time>
      </trkpt>
      <trkpt lat="50.11065" lon="4.16447">
        <ele>228.3</ele>
        <time>2019-11-10T14:36:34Z</time>
      </trkpt>
      <trkpt lat="50.11068" lon="4.16462">
        <ele>227.8</ele>
        <time>2019-11-10T14:36:43Z</time>
      </trkpt>
      <trkpt lat="50.11073" lon="4.16475">
        <ele>227.8</ele>
        <time>2019-11-10T14:36:51Z</time>
      </trkpt>
      <trkpt lat="50.1108" lon="4.16486">
        <ele>228.1</ele>
        <time>2019-11-10T14:36:57Z</time>
      </trkpt>
      <trkpt lat="50.11079" lon="4.165">
        <ele>227.7</ele>
        <time>2019-11-10T14:37:13Z</time>
      </trkpt>
      <trkpt lat="50.11089" lon="4.16502">
        <ele>227.9</ele>
        <time>2019-11-10T14:37:33Z</time>
      </trkpt>
      <trkpt lat="50.11095" lon="4.16512">
        <ele>227.6</ele>
        <time>2019-11-10T14:37:39Z</time>
      </trkpt>
      <trkpt lat="50.11096" lon="4.16527">
        <ele>227.4</ele>
        <time>2019-11-10T14:37:50Z</time>
      </trkpt>
      <trkpt lat="50.11105" lon="4.16535">
        <ele>227.3</ele>
        <time>2019-11-10T14:38:01Z</time>
      </trkpt>
      <trkpt lat="50.11114" lon="4.1654">
        <ele>227.5</ele>
        <time>2019-11-10T14:38:09Z</time>
      </trkpt>
      <trkpt lat="50.11122" lon="4.16546">
        <ele>227.5</ele>
        <time>2019-11-10T14:38:16Z</time>
      </trkpt>
      <trkpt lat="50.1113" lon="4.16553">
        <ele>227.5</ele>
        <time>2019-11-10T14:38:25Z</time>
      </trkpt>
      <trkpt lat="50.11138" lon="4.1656">
        <ele>227.4</ele>
        <time>2019-11-10T14:38:31Z</time>
      </trkpt>
      <trkpt lat="50.11148" lon="4.16564">
        <ele>227.3</ele>
        <time>2019-11-10T14:38:37Z</time>
      </trkpt>
      <trkpt lat="50.11157" lon="4.16571">
        <ele>227.2</ele>
        <time>2019-11-10T14:38:44Z</time>
      </trkpt>
      <trkpt lat="50.11166" lon="4.16579">
        <ele>227.4</ele>
        <time>2019-11-10T14:38:53Z</time>
      </trkpt>
      <trkpt lat="50.11174" lon="4.16586">
        <ele>227.3</ele>
        <time>2019-11-10T14:39:02Z</time>
      </trkpt>
      <trkpt lat="50.11183" lon="4.16592">
        <ele>227.3</ele>
        <time>2019-11-10T14:39:10Z</time>
      </trkpt>
      <trkpt lat="50.11191" lon="4.166">
        <ele>227.2</ele>
        <time>2019-11-10T14:39:20Z</time>
      </trkpt>
      <trkpt lat="50.11201" lon="4.16605">
        <ele>227.4</ele>
        <time>2019-11-10T14:39:28Z</time>
      </trkpt>
      <trkpt lat="50.11209" lon="4.16611">
        <ele>227.6</ele>
        <time>2019-11-10T14:39:35Z</time>
      </trkpt>
      <trkpt lat="50.1122" lon="4.16614">
        <ele>227.2</ele>
        <time>2019-11-10T14:39:42Z</time>
      </trkpt>
      <trkpt lat="50.1123" lon="4.1662">
        <ele>227.2</ele>
        <time>2019-11-10T14:39:47Z</time>
      </trkpt>
      <trkpt lat="50.11237" lon="4.1663">
        <ele>227</ele>
        <time>2019-11-10T14:39:51Z</time>
      </trkpt>
      <trkpt lat="50.11246" lon="4.16633">
        <ele>226.8</ele>
        <time>2019-11-10T14:40:16Z</time>
      </trkpt>
      <trkpt lat="50.11255" lon="4.16635">
        <ele>226.5</ele>
        <time>2019-11-10T14:40:31Z</time>
      </trkpt>
      <trkpt lat="50.11262" lon="4.16645">
        <ele>226.4</ele>
        <time>2019-11-10T14:40:35Z</time>
      </trkpt>
      <trkpt lat="50.11271" lon="4.16653">
        <ele>226.6</ele>
        <time>2019-11-10T14:40:37Z</time>
      </trkpt>
      <trkpt lat="50.1128" lon="4.16658">
        <ele>226.3</ele>
        <time>2019-11-10T14:40:43Z</time>
      </trkpt>
      <trkpt lat="50.1129" lon="4.1666">
        <ele>226.3</ele>
        <time>2019-11-10T14:40:52Z</time>
      </trkpt>
      <trkpt lat="50.11299" lon="4.16664">
        <ele>226</ele>
        <time>2019-11-10T14:41:00Z</time>
      </trkpt>
      <trkpt lat="50.11308" lon="4.16667">
        <ele>225.7</ele>
        <time>2019-11-10T14:41:12Z</time>
      </trkpt>
      <trkpt lat="50.11318" lon="4.16669">
        <ele>225.6</ele>
        <time>2019-11-10T14:41:18Z</time>
      </trkpt>
      <trkpt lat="50.11329" lon="4.16673">
        <ele>224.8</ele>
        <time>2019-11-10T14:41:34Z</time>
      </trkpt>
      <trkpt lat="50.11338" lon="4.16678">
        <ele>224.7</ele>
        <time>2019-11-10T14:41:40Z</time>
      </trkpt>
      <trkpt lat="50.11347" lon="4.16681">
        <ele>224.8</ele>
        <time>2019-11-10T14:41:46Z</time>
      </trkpt>
      <trkpt lat="50.11356" lon="4.16688">
        <ele>224.4</ele>
        <time>2019-11-10T14:41:54Z</time>
      </trkpt>
      <trkpt lat="50.11366" lon="4.16693">
        <ele>223.7</ele>
        <time>2019-11-10T14:42:02Z</time>
      </trkpt>
      <trkpt lat="50.11375" lon="4.16695">
        <ele>223.7</ele>
        <time>2019-11-10T14:42:07Z</time>
      </trkpt>
      <trkpt lat="50.11384" lon="4.16702">
        <ele>223.5</ele>
        <time>2019-11-10T14:42:15Z</time>
      </trkpt>
      <trkpt lat="50.11394" lon="4.16707">
        <ele>223.2</ele>
        <time>2019-11-10T14:42:21Z</time>
      </trkpt>
      <trkpt lat="50.11403" lon="4.16713">
        <ele>223.2</ele>
        <time>2019-11-10T14:42:26Z</time>
      </trkpt>
      <trkpt lat="50.11411" lon="4.16721">
        <ele>223</ele>
        <time>2019-11-10T14:42:34Z</time>
      </trkpt>
      <trkpt lat="50.11419" lon="4.16731">
        <ele>222.7</ele>
        <time>2019-11-10T14:42:41Z</time>
      </trkpt>
      <trkpt lat="50.11426" lon="4.16741">
        <ele>222.8</ele>
        <time>2019-11-10T14:42:49Z</time>
      </trkpt>
      <trkpt lat="50.11435" lon="4.16746">
        <ele>222.8</ele>
        <time>2019-11-10T14:42:55Z</time>
      </trkpt>
      <trkpt lat="50.11442" lon="4.16756">
        <ele>222.4</ele>
        <time>2019-11-10T14:43:03Z</time>
      </trkpt>
      <trkpt lat="50.11451" lon="4.16763">
        <ele>222.2</ele>
        <time>2019-11-10T14:43:11Z</time>
      </trkpt>
      <trkpt lat="50.11459" lon="4.16769">
        <ele>221.7</ele>
        <time>2019-11-10T14:43:17Z</time>
      </trkpt>
      <trkpt lat="50.11468" lon="4.16775">
        <ele>222.1</ele>
        <time>2019-11-10T14:43:24Z</time>
      </trkpt>
      <trkpt lat="50.11477" lon="4.16781">
        <ele>221.9</ele>
        <time>2019-11-10T14:43:32Z</time>
      </trkpt>
      <trkpt lat="50.11486" lon="4.16785">
        <ele>221</ele>
        <time>2019-11-10T14:43:38Z</time>
      </trkpt>
      <trkpt lat="50.11495" lon="4.16792">
        <ele>221.4</ele>
        <time>2019-11-10T14:43:44Z</time>
      </trkpt>
      <trkpt lat="50.11505" lon="4.16794">
        <ele>220.9</ele>
        <time>2019-11-10T14:43:52Z</time>
      </trkpt>
      <trkpt lat="50.11515" lon="4.16794">
        <ele>220.2</ele>
        <time>2019-11-10T14:44:05Z</time>
      </trkpt>
      <trkpt lat="50.11524" lon="4.16796">
        <ele>219.7</ele>
        <time>2019-11-10T14:44:12Z</time>
      </trkpt>
      <trkpt lat="50.11535" lon="4.16796">
        <ele>218.8</ele>
        <time>2019-11-10T14:44:19Z</time>
      </trkpt>
      <trkpt lat="50.11545" lon="4.16797">
        <ele>217.7</ele>
        <time>2019-11-10T14:44:27Z</time>
      </trkpt>
      <trkpt lat="50.11554" lon="4.16798">
        <ele>216.6</ele>
        <time>2019-11-10T14:44:35Z</time>
      </trkpt>
      <trkpt lat="50.11563" lon="4.16796">
        <ele>216.1</ele>
        <time>2019-11-10T14:44:41Z</time>
      </trkpt>
      <trkpt lat="50.11573" lon="4.16798">
        <ele>215.9</ele>
        <time>2019-11-10T14:44:45Z</time>
      </trkpt>
      <trkpt lat="50.11583" lon="4.16795">
        <ele>215.4</ele>
        <time>2019-11-10T14:44:49Z</time>
      </trkpt>
      <trkpt lat="50.11593" lon="4.16791">
        <ele>215</ele>
        <time>2019-11-10T14:44:53Z</time>
      </trkpt>
      <trkpt lat="50.11602" lon="4.1679">
        <ele>212.7</ele>
        <time>2019-11-10T14:45:11Z</time>
      </trkpt>
      <trkpt lat="50.11611" lon="4.16789">
        <ele>212</ele>
        <time>2019-11-10T14:45:16Z</time>
      </trkpt>
      <trkpt lat="50.1162" lon="4.16788">
        <ele>211</ele>
        <time>2019-11-10T14:45:24Z</time>
      </trkpt>
      <trkpt lat="50.11629" lon="4.16784">
        <ele>209.7</ele>
        <time>2019-11-10T14:45:38Z</time>
      </trkpt>
      <trkpt lat="50.11638" lon="4.16785">
        <ele>209.2</ele>
        <time>2019-11-10T14:45:45Z</time>
      </trkpt>
      <trkpt lat="50.11648" lon="4.16785">
        <ele>208.4</ele>
        <time>2019-11-10T14:45:52Z</time>
      </trkpt>
      <trkpt lat="50.11658" lon="4.16784">
        <ele>207.5</ele>
        <time>2019-11-10T14:45:57Z</time>
      </trkpt>
      <trkpt lat="50.11668" lon="4.16788">
        <ele>206</ele>
        <time>2019-11-10T14:46:07Z</time>
      </trkpt>
      <trkpt lat="50.11678" lon="4.16789">
        <ele>204.8</ele>
        <time>2019-11-10T14:46:16Z</time>
      </trkpt>
      <trkpt lat="50.11688" lon="4.1679">
        <ele>203.7</ele>
        <time>2019-11-10T14:46:23Z</time>
      </trkpt>
      <trkpt lat="50.11696" lon="4.16787">
        <ele>203</ele>
        <time>2019-11-10T14:46:28Z</time>
      </trkpt>
      <trkpt lat="50.11706" lon="4.16785">
        <ele>201.4</ele>
        <time>2019-11-10T14:46:35Z</time>
      </trkpt>
      <trkpt lat="50.11716" lon="4.16785">
        <ele>199.9</ele>
        <time>2019-11-10T14:46:43Z</time>
      </trkpt>
      <trkpt lat="50.11725" lon="4.16784">
        <ele>198.1</ele>
        <time>2019-11-10T14:46:50Z</time>
      </trkpt>
      <trkpt lat="50.11734" lon="4.16784">
        <ele>197.4</ele>
        <time>2019-11-10T14:46:54Z</time>
      </trkpt>
      <trkpt lat="50.11744" lon="4.16782">
        <ele>195.7</ele>
        <time>2019-11-10T14:47:05Z</time>
      </trkpt>
      <trkpt lat="50.11753" lon="4.16779">
        <ele>192.8</ele>
        <time>2019-11-10T14:47:18Z</time>
      </trkpt>
      <trkpt lat="50.11762" lon="4.16774">
        <ele>190.3</ele>
        <time>2019-11-10T14:47:28Z</time>
      </trkpt>
      <trkpt lat="50.11771" lon="4.16768">
        <ele>188</ele>
        <time>2019-11-10T14:47:39Z</time>
      </trkpt>
      <trkpt lat="50.11781" lon="4.16763">
        <ele>186.1</ele>
        <time>2019-11-10T14:47:49Z</time>
      </trkpt>
      <trkpt lat="50.1179" lon="4.16761">
        <ele>185.4</ele>
        <time>2019-11-10T14:48:05Z</time>
      </trkpt>
      <trkpt lat="50.11798" lon="4.16756">
        <ele>182.2</ele>
        <time>2019-11-10T14:49:34Z</time>
      </trkpt>
      <trkpt lat="50.11808" lon="4.16753">
        <ele>180.9</ele>
        <time>2019-11-10T14:49:46Z</time>
      </trkpt>
      <trkpt lat="50.11818" lon="4.16751">
        <ele>180.2</ele>
        <time>2019-11-10T14:49:57Z</time>
      </trkpt>
      <trkpt lat="50.11827" lon="4.16748">
        <ele>178.9</ele>
        <time>2019-11-10T14:50:06Z</time>
      </trkpt>
      <trkpt lat="50.11836" lon="4.16749">
        <ele>177.5</ele>
        <time>2019-11-10T14:50:16Z</time>
      </trkpt>
      <trkpt lat="50.11845" lon="4.16752">
        <ele>176.5</ele>
        <time>2019-11-10T14:50:23Z</time>
      </trkpt>
      <trkpt lat="50.11848" lon="4.16767">
        <ele>175.1</ele>
        <time>2019-11-10T14:50:33Z</time>
      </trkpt>
      <trkpt lat="50.11849" lon="4.16782">
        <ele>174.3</ele>
        <time>2019-11-10T14:50:42Z</time>
      </trkpt>
      <trkpt lat="50.11853" lon="4.16796">
        <ele>173.6</ele>
        <time>2019-11-10T14:50:50Z</time>
      </trkpt>
      <trkpt lat="50.11858" lon="4.16809">
        <ele>172.6</ele>
        <time>2019-11-10T14:50:58Z</time>
      </trkpt>
      <trkpt lat="50.11861" lon="4.16822">
        <ele>172.3</ele>
        <time>2019-11-10T14:51:05Z</time>
      </trkpt>
      <trkpt lat="50.11863" lon="4.16837">
        <ele>171.7</ele>
        <time>2019-11-10T14:51:13Z</time>
      </trkpt>
      <trkpt lat="50.11865" lon="4.16852">
        <ele>171.2</ele>
        <time>2019-11-10T14:51:21Z</time>
      </trkpt>
      <trkpt lat="50.11868" lon="4.16866">
        <ele>170.9</ele>
        <time>2019-11-10T14:51:29Z</time>
      </trkpt>
      <trkpt lat="50.1187" lon="4.16881">
        <ele>170.7</ele>
        <time>2019-11-10T14:51:37Z</time>
      </trkpt>
      <trkpt lat="50.11871" lon="4.16897">
        <ele>170</ele>
        <time>2019-11-10T14:51:45Z</time>
      </trkpt>
      <trkpt lat="50.11873" lon="4.16911">
        <ele>169.4</ele>
        <time>2019-11-10T14:51:52Z</time>
      </trkpt>
      <trkpt lat="50.11876" lon="4.16925">
        <ele>175.9</ele>
        <time>2019-11-10T14:51:59Z</time>
      </trkpt>
      <trkpt lat="50.11879" lon="4.1694">
        <ele>175.1</ele>
        <time>2019-11-10T14:52:07Z</time>
      </trkpt>
      <trkpt lat="50.11886" lon="4.16951">
        <ele>174.6</ele>
        <time>2019-11-10T14:52:15Z</time>
      </trkpt>
      <trkpt lat="50.11893" lon="4.16961">
        <ele>173.6</ele>
        <time>2019-11-10T14:52:23Z</time>
      </trkpt>
      <trkpt lat="50.119" lon="4.16971">
        <ele>173</ele>
        <time>2019-11-10T14:52:31Z</time>
      </trkpt>
      <trkpt lat="50.11903" lon="4.16984">
        <ele>172.9</ele>
        <time>2019-11-10T14:52:39Z</time>
      </trkpt>
      <trkpt lat="50.11903" lon="4.16999">
        <ele>173.1</ele>
        <time>2019-11-10T14:52:47Z</time>
      </trkpt>
      <trkpt lat="50.11904" lon="4.17014">
        <ele>173</ele>
        <time>2019-11-10T14:52:54Z</time>
      </trkpt>
      <trkpt lat="50.11904" lon="4.17028">
        <ele>172.9</ele>
        <time>2019-11-10T14:53:01Z</time>
      </trkpt>
      <trkpt lat="50.11905" lon="4.17044">
        <ele>172.6</ele>
        <time>2019-11-10T14:53:09Z</time>
      </trkpt>
      <trkpt lat="50.11906" lon="4.17058">
        <ele>172.7</ele>
        <time>2019-11-10T14:53:16Z</time>
      </trkpt>
      <trkpt lat="50.11905" lon="4.17072">
        <ele>172.4</ele>
        <time>2019-11-10T14:53:23Z</time>
      </trkpt>
      <trkpt lat="50.11905" lon="4.17088">
        <ele>172.5</ele>
        <time>2019-11-10T14:53:31Z</time>
      </trkpt>
      <trkpt lat="50.11904" lon="4.17103">
        <ele>179.2</ele>
        <time>2019-11-10T14:53:39Z</time>
      </trkpt>
      <trkpt lat="50.119" lon="4.17116">
        <ele>179.5</ele>
        <time>2019-11-10T14:53:46Z</time>
      </trkpt>
      <trkpt lat="50.11896" lon="4.17129">
        <ele>179.9</ele>
        <time>2019-11-10T14:53:53Z</time>
      </trkpt>
      <trkpt lat="50.11891" lon="4.17141">
        <ele>180.3</ele>
        <time>2019-11-10T14:54:00Z</time>
      </trkpt>
      <trkpt lat="50.11886" lon="4.17153">
        <ele>179.9</ele>
        <time>2019-11-10T14:54:07Z</time>
      </trkpt>
      <trkpt lat="50.1188" lon="4.17165">
        <ele>180</ele>
        <time>2019-11-10T14:54:14Z</time>
      </trkpt>
      <trkpt lat="50.11874" lon="4.17175">
        <ele>180.3</ele>
        <time>2019-11-10T14:54:22Z</time>
      </trkpt>
      <trkpt lat="50.11868" lon="4.17187">
        <ele>180.9</ele>
        <time>2019-11-10T14:54:30Z</time>
      </trkpt>
      <trkpt lat="50.1186" lon="4.17197">
        <ele>180.8</ele>
        <time>2019-11-10T14:54:38Z</time>
      </trkpt>
      <trkpt lat="50.11853" lon="4.17207">
        <ele>180.8</ele>
        <time>2019-11-10T14:54:46Z</time>
      </trkpt>
      <trkpt lat="50.11847" lon="4.17218">
        <ele>181</ele>
        <time>2019-11-10T14:54:53Z</time>
      </trkpt>
      <trkpt lat="50.11842" lon="4.1723">
        <ele>181.5</ele>
        <time>2019-11-10T14:55:01Z</time>
      </trkpt>
      <trkpt lat="50.11838" lon="4.17244">
        <ele>181.8</ele>
        <time>2019-11-10T14:55:08Z</time>
      </trkpt>
      <trkpt lat="50.11837" lon="4.17259">
        <ele>181.5</ele>
        <time>2019-11-10T14:55:15Z</time>
      </trkpt>
      <trkpt lat="50.11836" lon="4.17273">
        <ele>181.5</ele>
        <time>2019-11-10T14:55:22Z</time>
      </trkpt>
      <trkpt lat="50.11833" lon="4.17288">
        <ele>181.3</ele>
        <time>2019-11-10T14:55:29Z</time>
      </trkpt>
      <trkpt lat="50.1183" lon="4.17302">
        <ele>181.1</ele>
        <time>2019-11-10T14:55:36Z</time>
      </trkpt>
      <trkpt lat="50.11826" lon="4.17317">
        <ele>181.4</ele>
        <time>2019-11-10T14:55:44Z</time>
      </trkpt>
      <trkpt lat="50.11823" lon="4.17331">
        <ele>181.1</ele>
        <time>2019-11-10T14:55:52Z</time>
      </trkpt>
      <trkpt lat="50.11819" lon="4.17345">
        <ele>181.2</ele>
        <time>2019-11-10T14:55:59Z</time>
      </trkpt>
      <trkpt lat="50.11816" lon="4.17358">
        <ele>181.2</ele>
        <time>2019-11-10T14:56:07Z</time>
      </trkpt>
      <trkpt lat="50.11815" lon="4.17373">
        <ele>180.9</ele>
        <time>2019-11-10T14:56:16Z</time>
      </trkpt>
      <trkpt lat="50.11812" lon="4.17388">
        <ele>180.7</ele>
        <time>2019-11-10T14:56:24Z</time>
      </trkpt>
      <trkpt lat="50.11809" lon="4.17402">
        <ele>180.5</ele>
        <time>2019-11-10T14:56:31Z</time>
      </trkpt>
      <trkpt lat="50.11807" lon="4.17418">
        <ele>180.5</ele>
        <time>2019-11-10T14:56:39Z</time>
      </trkpt>
      <trkpt lat="50.11808" lon="4.17432">
        <ele>180.5</ele>
        <time>2019-11-10T14:56:46Z</time>
      </trkpt>
      <trkpt lat="50.11808" lon="4.17446">
        <ele>180.6</ele>
        <time>2019-11-10T14:56:53Z</time>
      </trkpt>
      <trkpt lat="50.11811" lon="4.17461">
        <ele>180</ele>
        <time>2019-11-10T14:57:01Z</time>
      </trkpt>
      <trkpt lat="50.11814" lon="4.17476">
        <ele>179.6</ele>
        <time>2019-11-10T14:57:09Z</time>
      </trkpt>
      <trkpt lat="50.11814" lon="4.17492">
        <ele>179.7</ele>
        <time>2019-11-10T14:57:17Z</time>
      </trkpt>
      <trkpt lat="50.11807" lon="4.17502">
        <ele>179.7</ele>
        <time>2019-11-10T14:57:24Z</time>
      </trkpt>
      <trkpt lat="50.11797" lon="4.17507">
        <ele>179.7</ele>
        <time>2019-11-10T14:57:31Z</time>
      </trkpt>
      <trkpt lat="50.11787" lon="4.17512">
        <ele>179.9</ele>
        <time>2019-11-10T14:57:38Z</time>
      </trkpt>
      <trkpt lat="50.11778" lon="4.17517">
        <ele>180</ele>
        <time>2019-11-10T14:57:45Z</time>
      </trkpt>
      <trkpt lat="50.11769" lon="4.17524">
        <ele>180.4</ele>
        <time>2019-11-10T14:57:53Z</time>
      </trkpt>
      <trkpt lat="50.1176" lon="4.17533">
        <ele>180.4</ele>
        <time>2019-11-10T14:58:01Z</time>
      </trkpt>
      <trkpt lat="50.11751" lon="4.1754">
        <ele>181</ele>
        <time>2019-11-10T14:58:09Z</time>
      </trkpt>
      <trkpt lat="50.11743" lon="4.17546">
        <ele>181.1</ele>
        <time>2019-11-10T14:58:16Z</time>
      </trkpt>
      <trkpt lat="50.11735" lon="4.17552">
        <ele>181.5</ele>
        <time>2019-11-10T14:58:24Z</time>
      </trkpt>
      <trkpt lat="50.11726" lon="4.17557">
        <ele>182.1</ele>
        <time>2019-11-10T14:58:34Z</time>
      </trkpt>
      <trkpt lat="50.11717" lon="4.17561">
        <ele>182.5</ele>
        <time>2019-11-10T14:58:43Z</time>
      </trkpt>
      <trkpt lat="50.11707" lon="4.17565">
        <ele>183.3</ele>
        <time>2019-11-10T14:58:54Z</time>
      </trkpt>
      <trkpt lat="50.11699" lon="4.1757">
        <ele>184.2</ele>
        <time>2019-11-10T14:59:04Z</time>
      </trkpt>
      <trkpt lat="50.11691" lon="4.17579">
        <ele>185.4</ele>
        <time>2019-11-10T14:59:16Z</time>
      </trkpt>
      <trkpt lat="50.11685" lon="4.1759">
        <ele>186</ele>
        <time>2019-11-10T14:59:24Z</time>
      </trkpt>
      <trkpt lat="50.11691" lon="4.17602">
        <ele>185.4</ele>
        <time>2019-11-10T14:59:32Z</time>
      </trkpt>
      <trkpt lat="50.11697" lon="4.17613">
        <ele>184.6</ele>
        <time>2019-11-10T14:59:40Z</time>
      </trkpt>
      <trkpt lat="50.11703" lon="4.17625">
        <ele>182.8</ele>
        <time>2019-11-10T14:59:48Z</time>
      </trkpt>
      <trkpt lat="50.11705" lon="4.1764">
        <ele>181.7</ele>
        <time>2019-11-10T14:59:59Z</time>
      </trkpt>
      <trkpt lat="50.11714" lon="4.17644">
        <ele>181.7</ele>
        <time>2019-11-10T15:00:13Z</time>
      </trkpt>
      <trkpt lat="50.11718" lon="4.17658">
        <ele>181.2</ele>
        <time>2019-11-10T15:01:14Z</time>
      </trkpt>
      <trkpt lat="50.11724" lon="4.1767">
        <ele>180.9</ele>
        <time>2019-11-10T15:01:23Z</time>
      </trkpt>
      <trkpt lat="50.11727" lon="4.17685">
        <ele>180.7</ele>
        <time>2019-11-10T15:01:35Z</time>
      </trkpt>
      <trkpt lat="50.11734" lon="4.17697">
        <ele>180.9</ele>
        <time>2019-11-10T15:01:43Z</time>
      </trkpt>
      <trkpt lat="50.11738" lon="4.1771">
        <ele>181.1</ele>
        <time>2019-11-10T15:01:51Z</time>
      </trkpt>
      <trkpt lat="50.11743" lon="4.17724">
        <ele>181.1</ele>
        <time>2019-11-10T15:01:59Z</time>
      </trkpt>
      <trkpt lat="50.11747" lon="4.17737">
        <ele>181</ele>
        <time>2019-11-10T15:02:07Z</time>
      </trkpt>
      <trkpt lat="50.11753" lon="4.1775">
        <ele>180.7</ele>
        <time>2019-11-10T15:02:15Z</time>
      </trkpt>
      <trkpt lat="50.1176" lon="4.17761">
        <ele>180.6</ele>
        <time>2019-11-10T15:02:22Z</time>
      </trkpt>
      <trkpt lat="50.11765" lon="4.17772">
        <ele>180.5</ele>
        <time>2019-11-10T15:02:29Z</time>
      </trkpt>
      <trkpt lat="50.1177" lon="4.17786">
        <ele>180.2</ele>
        <time>2019-11-10T15:02:37Z</time>
      </trkpt>
      <trkpt lat="50.11775" lon="4.17798">
        <ele>180.2</ele>
        <time>2019-11-10T15:02:44Z</time>
      </trkpt>
      <trkpt lat="50.11781" lon="4.17811">
        <ele>180.1</ele>
        <time>2019-11-10T15:02:52Z</time>
      </trkpt>
      <trkpt lat="50.11787" lon="4.17822">
        <ele>179.9</ele>
        <time>2019-11-10T15:03:00Z</time>
      </trkpt>
      <trkpt lat="50.11793" lon="4.17833">
        <ele>180.1</ele>
        <time>2019-11-10T15:03:08Z</time>
      </trkpt>
      <trkpt lat="50.11802" lon="4.17831">
        <ele>180.3</ele>
        <time>2019-11-10T15:03:16Z</time>
      </trkpt>
      <trkpt lat="50.11809" lon="4.17822">
        <ele>180.2</ele>
        <time>2019-11-10T15:03:22Z</time>
      </trkpt>
      <trkpt lat="50.11818" lon="4.17817">
        <ele>180.3</ele>
        <time>2019-11-10T15:03:29Z</time>
      </trkpt>
      <trkpt lat="50.11828" lon="4.17812">
        <ele>180.1</ele>
        <time>2019-11-10T15:03:37Z</time>
      </trkpt>
      <trkpt lat="50.11835" lon="4.17803">
        <ele>179.5</ele>
        <time>2019-11-10T15:03:44Z</time>
      </trkpt>
      <trkpt lat="50.11843" lon="4.17795">
        <ele>179.2</ele>
        <time>2019-11-10T15:03:53Z</time>
      </trkpt>
      <trkpt lat="50.11852" lon="4.17792">
        <ele>179.2</ele>
        <time>2019-11-10T15:04:00Z</time>
      </trkpt>
      <trkpt lat="50.11861" lon="4.17791">
        <ele>178.8</ele>
        <time>2019-11-10T15:04:07Z</time>
      </trkpt>
      <trkpt lat="50.1187" lon="4.1779">
        <ele>178.8</ele>
        <time>2019-11-10T15:04:16Z</time>
      </trkpt>
      <trkpt lat="50.1188" lon="4.17789">
        <ele>178.9</ele>
        <time>2019-11-10T15:04:25Z</time>
      </trkpt>
      <trkpt lat="50.11889" lon="4.17787">
        <ele>179</ele>
        <time>2019-11-10T15:04:33Z</time>
      </trkpt>
      <trkpt lat="50.11899" lon="4.17789">
        <ele>179.1</ele>
        <time>2019-11-10T15:04:41Z</time>
      </trkpt>
      <trkpt lat="50.11908" lon="4.17788">
        <ele>179.3</ele>
        <time>2019-11-10T15:04:49Z</time>
      </trkpt>
      <trkpt lat="50.11918" lon="4.17792">
        <ele>179.2</ele>
        <time>2019-11-10T15:04:57Z</time>
      </trkpt>
      <trkpt lat="50.11927" lon="4.17791">
        <ele>180.1</ele>
        <time>2019-11-10T15:05:05Z</time>
      </trkpt>
      <trkpt lat="50.11938" lon="4.17791">
        <ele>180.3</ele>
        <time>2019-11-10T15:05:12Z</time>
      </trkpt>
      <trkpt lat="50.11947" lon="4.1779">
        <ele>180.9</ele>
        <time>2019-11-10T15:05:19Z</time>
      </trkpt>
      <trkpt lat="50.11956" lon="4.17791">
        <ele>181.6</ele>
        <time>2019-11-10T15:05:26Z</time>
      </trkpt>
      <trkpt lat="50.1196" lon="4.17804">
        <ele>182.1</ele>
        <time>2019-11-10T15:05:35Z</time>
      </trkpt>
      <trkpt lat="50.11962" lon="4.1782">
        <ele>182.1</ele>
        <time>2019-11-10T15:05:42Z</time>
      </trkpt>
      <trkpt lat="50.11963" lon="4.17834">
        <ele>182.8</ele>
        <time>2019-11-10T15:05:49Z</time>
      </trkpt>
      <trkpt lat="50.11969" lon="4.17847">
        <ele>182.5</ele>
        <time>2019-11-10T15:05:56Z</time>
      </trkpt>
      <trkpt lat="50.11976" lon="4.17857">
        <ele>183.1</ele>
        <time>2019-11-10T15:06:04Z</time>
      </trkpt>
      <trkpt lat="50.11985" lon="4.17858">
        <ele>183.6</ele>
        <time>2019-11-10T15:06:12Z</time>
      </trkpt>
      <trkpt lat="50.11995" lon="4.17862">
        <ele>183.6</ele>
        <time>2019-11-10T15:06:20Z</time>
      </trkpt>
      <trkpt lat="50.12005" lon="4.17864">
        <ele>184.4</ele>
        <time>2019-11-10T15:06:28Z</time>
      </trkpt>
      <trkpt lat="50.12014" lon="4.17868">
        <ele>185</ele>
        <time>2019-11-10T15:06:36Z</time>
      </trkpt>
      <trkpt lat="50.12023" lon="4.17874">
        <ele>186.1</ele>
        <time>2019-11-10T15:06:46Z</time>
      </trkpt>
      <trkpt lat="50.12032" lon="4.17878">
        <ele>187.7</ele>
        <time>2019-11-10T15:07:00Z</time>
      </trkpt>
      <trkpt lat="50.12038" lon="4.17867">
        <ele>187.5</ele>
        <time>2019-11-10T15:07:09Z</time>
      </trkpt>
      <trkpt lat="50.12048" lon="4.17868">
        <ele>187.6</ele>
        <time>2019-11-10T15:07:53Z</time>
      </trkpt>
      <trkpt lat="50.12057" lon="4.17867">
        <ele>188.6</ele>
        <time>2019-11-10T15:08:02Z</time>
      </trkpt>
      <trkpt lat="50.12066" lon="4.17869">
        <ele>189.7</ele>
        <time>2019-11-10T15:08:11Z</time>
      </trkpt>
      <trkpt lat="50.12076" lon="4.17871">
        <ele>190.8</ele>
        <time>2019-11-10T15:08:21Z</time>
      </trkpt>
      <trkpt lat="50.12085" lon="4.17873">
        <ele>191.9</ele>
        <time>2019-11-10T15:08:30Z</time>
      </trkpt>
      <trkpt lat="50.12095" lon="4.17875">
        <ele>193.4</ele>
        <time>2019-11-10T15:08:39Z</time>
      </trkpt>
      <trkpt lat="50.12104" lon="4.17878">
        <ele>195.6</ele>
        <time>2019-11-10T15:08:49Z</time>
      </trkpt>
      <trkpt lat="50.12113" lon="4.17882">
        <ele>196.8</ele>
        <time>2019-11-10T15:09:02Z</time>
      </trkpt>
      <trkpt lat="50.12122" lon="4.17884">
        <ele>199.2</ele>
        <time>2019-11-10T15:09:34Z</time>
      </trkpt>
      <trkpt lat="50.1213" lon="4.17877">
        <ele>200.3</ele>
        <time>2019-11-10T15:09:52Z</time>
      </trkpt>
      <trkpt lat="50.1214" lon="4.17877">
        <ele>201.5</ele>
        <time>2019-11-10T15:10:02Z</time>
      </trkpt>
      <trkpt lat="50.12149" lon="4.17874">
        <ele>202.8</ele>
        <time>2019-11-10T15:10:13Z</time>
      </trkpt>
      <trkpt lat="50.12158" lon="4.17872">
        <ele>204.8</ele>
        <time>2019-11-10T15:10:26Z</time>
      </trkpt>
      <trkpt lat="50.12167" lon="4.1787">
        <ele>206.1</ele>
        <time>2019-11-10T15:10:36Z</time>
      </trkpt>
      <trkpt lat="50.12176" lon="4.17869">
        <ele>207.3</ele>
        <time>2019-11-10T15:10:46Z</time>
      </trkpt>
      <trkpt lat="50.12186" lon="4.17872">
        <ele>208.2</ele>
        <time>2019-11-10T15:10:54Z</time>
      </trkpt>
      <trkpt lat="50.12195" lon="4.17871">
        <ele>209.2</ele>
        <time>2019-11-10T15:11:02Z</time>
      </trkpt>
      <trkpt lat="50.12205" lon="4.1787">
        <ele>210.1</ele>
        <time>2019-11-10T15:11:11Z</time>
      </trkpt>
      <trkpt lat="50.12214" lon="4.17868">
        <ele>210.7</ele>
        <time>2019-11-10T15:11:18Z</time>
      </trkpt>
      <trkpt lat="50.12223" lon="4.17869">
        <ele>212</ele>
        <time>2019-11-10T15:11:27Z</time>
      </trkpt>
      <trkpt lat="50.12232" lon="4.17869">
        <ele>212.1</ele>
        <time>2019-11-10T15:11:35Z</time>
      </trkpt>
      <trkpt lat="50.12241" lon="4.17868">
        <ele>212.7</ele>
        <time>2019-11-10T15:11:44Z</time>
      </trkpt>
      <trkpt lat="50.12251" lon="4.1787">
        <ele>214.2</ele>
        <time>2019-11-10T15:11:54Z</time>
      </trkpt>
      <trkpt lat="50.1226" lon="4.17869">
        <ele>215.1</ele>
        <time>2019-11-10T15:12:04Z</time>
      </trkpt>
      <trkpt lat="50.12269" lon="4.17868">
        <ele>216.4</ele>
        <time>2019-11-10T15:12:14Z</time>
      </trkpt>
      <trkpt lat="50.12277" lon="4.17862">
        <ele>216.5</ele>
        <time>2019-11-10T15:12:21Z</time>
      </trkpt>
      <trkpt lat="50.12286" lon="4.17863">
        <ele>216.7</ele>
        <time>2019-11-10T15:12:29Z</time>
      </trkpt>
      <trkpt lat="50.12295" lon="4.17866">
        <ele>218.2</ele>
        <time>2019-11-10T15:12:39Z</time>
      </trkpt>
      <trkpt lat="50.12304" lon="4.17867">
        <ele>217.3</ele>
        <time>2019-11-10T15:12:47Z</time>
      </trkpt>
      <trkpt lat="50.12313" lon="4.17867">
        <ele>215.4</ele>
        <time>2019-11-10T15:12:55Z</time>
      </trkpt>
      <trkpt lat="50.12323" lon="4.17865">
        <ele>215.7</ele>
        <time>2019-11-10T15:13:03Z</time>
      </trkpt>
      <trkpt lat="50.12332" lon="4.17867">
        <ele>216.1</ele>
        <time>2019-11-10T15:13:11Z</time>
      </trkpt>
      <trkpt lat="50.12341" lon="4.17866">
        <ele>216.3</ele>
        <time>2019-11-10T15:13:18Z</time>
      </trkpt>
      <trkpt lat="50.1235" lon="4.17866">
        <ele>216.7</ele>
        <time>2019-11-10T15:13:25Z</time>
      </trkpt>
      <trkpt lat="50.12359" lon="4.17866">
        <ele>217.3</ele>
        <time>2019-11-10T15:13:33Z</time>
      </trkpt>
      <trkpt lat="50.12368" lon="4.17865">
        <ele>218.1</ele>
        <time>2019-11-10T15:13:42Z</time>
      </trkpt>
      <trkpt lat="50.12378" lon="4.17865">
        <ele>218.8</ele>
        <time>2019-11-10T15:13:51Z</time>
      </trkpt>
      <trkpt lat="50.12388" lon="4.17865">
        <ele>219</ele>
        <time>2019-11-10T15:13:58Z</time>
      </trkpt>
      <trkpt lat="50.12397" lon="4.17862">
        <ele>219.6</ele>
        <time>2019-11-10T15:14:05Z</time>
      </trkpt>
      <trkpt lat="50.12404" lon="4.17853">
        <ele>219.9</ele>
        <time>2019-11-10T15:14:11Z</time>
      </trkpt>
      <trkpt lat="50.1241" lon="4.17841">
        <ele>219.8</ele>
        <time>2019-11-10T15:14:18Z</time>
      </trkpt>
      <trkpt lat="50.12411" lon="4.17827">
        <ele>219.4</ele>
        <time>2019-11-10T15:14:25Z</time>
      </trkpt>
      <trkpt lat="50.12408" lon="4.17812">
        <ele>219.9</ele>
        <time>2019-11-10T15:14:33Z</time>
      </trkpt>
      <trkpt lat="50.12407" lon="4.17797">
        <ele>219.2</ele>
        <time>2019-11-10T15:14:41Z</time>
      </trkpt>
      <trkpt lat="50.12403" lon="4.17783">
        <ele>219.2</ele>
        <time>2019-11-10T15:14:56Z</time>
      </trkpt>
      <trkpt lat="50.12402" lon="4.17768">
        <ele>219</ele>
        <time>2019-11-10T15:15:04Z</time>
      </trkpt>
      <trkpt lat="50.12401" lon="4.17752">
        <ele>218.7</ele>
        <time>2019-11-10T15:15:13Z</time>
      </trkpt>
      <trkpt lat="50.12402" lon="4.17737">
        <ele>218.8</ele>
        <time>2019-11-10T15:15:22Z</time>
      </trkpt>
      <trkpt lat="50.12402" lon="4.17722">
        <ele>218.8</ele>
        <time>2019-11-10T15:15:31Z</time>
      </trkpt>
      <trkpt lat="50.12403" lon="4.17707">
        <ele>218.4</ele>
        <time>2019-11-10T15:15:40Z</time>
      </trkpt>
      <trkpt lat="50.12407" lon="4.17692">
        <ele>218.3</ele>
        <time>2019-11-10T15:15:48Z</time>
      </trkpt>
      <trkpt lat="50.12409" lon="4.17678">
        <ele>218</ele>
        <time>2019-11-10T15:15:56Z</time>
      </trkpt>
      <trkpt lat="50.12411" lon="4.17663">
        <ele>217.6</ele>
        <time>2019-11-10T15:16:05Z</time>
      </trkpt>
      <trkpt lat="50.12412" lon="4.17649">
        <ele>217.6</ele>
        <time>2019-11-10T15:16:13Z</time>
      </trkpt>
      <trkpt lat="50.12412" lon="4.17634">
        <ele>217.4</ele>
        <time>2019-11-10T15:16:20Z</time>
      </trkpt>
      <trkpt lat="50.12413" lon="4.1762">
        <ele>217.1</ele>
        <time>2019-11-10T15:16:28Z</time>
      </trkpt>
      <trkpt lat="50.12413" lon="4.17604">
        <ele>217.2</ele>
        <time>2019-11-10T15:16:36Z</time>
      </trkpt>
      <trkpt lat="50.12415" lon="4.1759">
        <ele>216.9</ele>
        <time>2019-11-10T15:16:43Z</time>
      </trkpt>
      <trkpt lat="50.12415" lon="4.17575">
        <ele>217</ele>
        <time>2019-11-10T15:16:51Z</time>
      </trkpt>
      <trkpt lat="50.12416" lon="4.1756">
        <ele>217</ele>
        <time>2019-11-10T15:16:59Z</time>
      </trkpt>
      <trkpt lat="50.12417" lon="4.17545">
        <ele>216.9</ele>
        <time>2019-11-10T15:17:07Z</time>
      </trkpt>
      <trkpt lat="50.12419" lon="4.17531">
        <ele>216.7</ele>
        <time>2019-11-10T15:17:16Z</time>
      </trkpt>
      <trkpt lat="50.12419" lon="4.17516">
        <ele>216.5</ele>
        <time>2019-11-10T15:17:24Z</time>
      </trkpt>
      <trkpt lat="50.1242" lon="4.17501">
        <ele>216.3</ele>
        <time>2019-11-10T15:17:31Z</time>
      </trkpt>
      <trkpt lat="50.12421" lon="4.17486">
        <ele>215.9</ele>
        <time>2019-11-10T15:17:38Z</time>
      </trkpt>
      <trkpt lat="50.12419" lon="4.17472">
        <ele>215.4</ele>
        <time>2019-11-10T15:17:45Z</time>
      </trkpt>
      <trkpt lat="50.1242" lon="4.17457">
        <ele>214.9</ele>
        <time>2019-11-10T15:17:56Z</time>
      </trkpt>
      <trkpt lat="50.1242" lon="4.17441">
        <ele>214.3</ele>
        <time>2019-11-10T15:18:05Z</time>
      </trkpt>
      <trkpt lat="50.12422" lon="4.17425">
        <ele>213.9</ele>
        <time>2019-11-10T15:18:13Z</time>
      </trkpt>
      <trkpt lat="50.12426" lon="4.17412">
        <ele>213.3</ele>
        <time>2019-11-10T15:18:21Z</time>
      </trkpt>
      <trkpt lat="50.12429" lon="4.17397">
        <ele>212.7</ele>
        <time>2019-11-10T15:18:30Z</time>
      </trkpt>
      <trkpt lat="50.12431" lon="4.17384">
        <ele>212.1</ele>
        <time>2019-11-10T15:18:38Z</time>
      </trkpt>
      <trkpt lat="50.12433" lon="4.17368">
        <ele>211.6</ele>
        <time>2019-11-10T15:18:45Z</time>
      </trkpt>
      <trkpt lat="50.12435" lon="4.17354">
        <ele>211.2</ele>
        <time>2019-11-10T15:18:52Z</time>
      </trkpt>
      <trkpt lat="50.12434" lon="4.17338">
        <ele>210.8</ele>
        <time>2019-11-10T15:19:00Z</time>
      </trkpt>
      <trkpt lat="50.12436" lon="4.17324">
        <ele>210.1</ele>
        <time>2019-11-10T15:19:08Z</time>
      </trkpt>
      <trkpt lat="50.12435" lon="4.1731">
        <ele>209.6</ele>
        <time>2019-11-10T15:19:15Z</time>
      </trkpt>
      <trkpt lat="50.12435" lon="4.17295">
        <ele>209.2</ele>
        <time>2019-11-10T15:19:23Z</time>
      </trkpt>
      <trkpt lat="50.12435" lon="4.17279">
        <ele>208.5</ele>
        <time>2019-11-10T15:19:30Z</time>
      </trkpt>
      <trkpt lat="50.12433" lon="4.17265">
        <ele>208.2</ele>
        <time>2019-11-10T15:19:35Z</time>
      </trkpt>
      <trkpt lat="50.12433" lon="4.1725">
        <ele>207.6</ele>
        <time>2019-11-10T15:19:43Z</time>
      </trkpt>
      <trkpt lat="50.12433" lon="4.17234">
        <ele>207.2</ele>
        <time>2019-11-10T15:19:51Z</time>
      </trkpt>
      <trkpt lat="50.12434" lon="4.17219">
        <ele>206.7</ele>
        <time>2019-11-10T15:20:01Z</time>
      </trkpt>
      <trkpt lat="50.12431" lon="4.17203">
        <ele>206.3</ele>
        <time>2019-11-10T15:20:09Z</time>
      </trkpt>
      <trkpt lat="50.12431" lon="4.17187">
        <ele>205.9</ele>
        <time>2019-11-10T15:20:18Z</time>
      </trkpt>
      <trkpt lat="50.12434" lon="4.17172">
        <ele>205.6</ele>
        <time>2019-11-10T15:20:26Z</time>
      </trkpt>
      <trkpt lat="50.12434" lon="4.17158">
        <ele>205.5</ele>
        <time>2019-11-10T15:20:33Z</time>
      </trkpt>
      <trkpt lat="50.1243" lon="4.17145">
        <ele>205.3</ele>
        <time>2019-11-10T15:20:40Z</time>
      </trkpt>
      <trkpt lat="50.12424" lon="4.17132">
        <ele>204.7</ele>
        <time>2019-11-10T15:20:47Z</time>
      </trkpt>
      <trkpt lat="50.12423" lon="4.17117">
        <ele>204.3</ele>
        <time>2019-11-10T15:20:53Z</time>
      </trkpt>
      <trkpt lat="50.1242" lon="4.17102">
        <ele>203.8</ele>
        <time>2019-11-10T15:21:00Z</time>
      </trkpt>
      <trkpt lat="50.1242" lon="4.17087">
        <ele>203.6</ele>
        <time>2019-11-10T15:21:09Z</time>
      </trkpt>
      <trkpt lat="50.12419" lon="4.17071">
        <ele>203.1</ele>
        <time>2019-11-10T15:21:17Z</time>
      </trkpt>
      <trkpt lat="50.12415" lon="4.17058">
        <ele>202.5</ele>
        <time>2019-11-10T15:21:24Z</time>
      </trkpt>
      <trkpt lat="50.12411" lon="4.17044">
        <ele>202.2</ele>
        <time>2019-11-10T15:21:32Z</time>
      </trkpt>
      <trkpt lat="50.12407" lon="4.17031">
        <ele>202</ele>
        <time>2019-11-10T15:21:40Z</time>
      </trkpt>
      <trkpt lat="50.12401" lon="4.17018">
        <ele>202</ele>
        <time>2019-11-10T15:21:46Z</time>
      </trkpt>
      <trkpt lat="50.12396" lon="4.17004">
        <ele>201.5</ele>
        <time>2019-11-10T15:21:56Z</time>
      </trkpt>
      <trkpt lat="50.1239" lon="4.16992">
        <ele>201.1</ele>
        <time>2019-11-10T15:22:03Z</time>
      </trkpt>
      <trkpt lat="50.12383" lon="4.16982">
        <ele>200.9</ele>
        <time>2019-11-10T15:22:10Z</time>
      </trkpt>
      <trkpt lat="50.12376" lon="4.16973">
        <ele>200.3</ele>
        <time>2019-11-10T15:22:17Z</time>
      </trkpt>
      <trkpt lat="50.12368" lon="4.16964">
        <ele>199.3</ele>
        <time>2019-11-10T15:22:28Z</time>
      </trkpt>
      <trkpt lat="50.1236" lon="4.16956">
        <ele>197.7</ele>
        <time>2019-11-10T15:22:37Z</time>
      </trkpt>
      <trkpt lat="50.12354" lon="4.16946">
        <ele>196.4</ele>
        <time>2019-11-10T15:22:47Z</time>
      </trkpt>
      <trkpt lat="50.12347" lon="4.16936">
        <ele>194.5</ele>
        <time>2019-11-10T15:22:56Z</time>
      </trkpt>
      <trkpt lat="50.12342" lon="4.16923">
        <ele>192.4</ele>
        <time>2019-11-10T15:23:06Z</time>
      </trkpt>
      <trkpt lat="50.12337" lon="4.16911">
        <ele>191.1</ele>
        <time>2019-11-10T15:23:13Z</time>
      </trkpt>
      <trkpt lat="50.12334" lon="4.16896">
        <ele>189.1</ele>
        <time>2019-11-10T15:23:22Z</time>
      </trkpt>
      <trkpt lat="50.12337" lon="4.16882">
        <ele>187.4</ele>
        <time>2019-11-10T15:23:30Z</time>
      </trkpt>
      <trkpt lat="50.12339" lon="4.16867">
        <ele>186.2</ele>
        <time>2019-11-10T15:23:38Z</time>
      </trkpt>
      <trkpt lat="50.12344" lon="4.16854">
        <ele>184.5</ele>
        <time>2019-11-10T15:23:47Z</time>
      </trkpt>
      <trkpt lat="50.12348" lon="4.1684">
        <ele>183.2</ele>
        <time>2019-11-10T15:23:56Z</time>
      </trkpt>
      <trkpt lat="50.12354" lon="4.16829">
        <ele>182.2</ele>
        <time>2019-11-10T15:24:04Z</time>
      </trkpt>
      <trkpt lat="50.12362" lon="4.16822">
        <ele>181.3</ele>
        <time>2019-11-10T15:24:12Z</time>
      </trkpt>
      <trkpt lat="50.12371" lon="4.16816">
        <ele>180.2</ele>
        <time>2019-11-10T15:24:20Z</time>
      </trkpt>
      <trkpt lat="50.1238" lon="4.1681">
        <ele>179.6</ele>
        <time>2019-11-10T15:24:27Z</time>
      </trkpt>
      <trkpt lat="50.12387" lon="4.16801">
        <ele>178.7</ele>
        <time>2019-11-10T15:24:37Z</time>
      </trkpt>
      <trkpt lat="50.12395" lon="4.16792">
        <ele>178.1</ele>
        <time>2019-11-10T15:24:45Z</time>
      </trkpt>
      <trkpt lat="50.12395" lon="4.16778">
        <ele>177.8</ele>
        <time>2019-11-10T15:24:52Z</time>
      </trkpt>
      <trkpt lat="50.12391" lon="4.16764">
        <ele>177.6</ele>
        <time>2019-11-10T15:25:02Z</time>
      </trkpt>
      <trkpt lat="50.12391" lon="4.16749">
        <ele>177.8</ele>
        <time>2019-11-10T15:25:11Z</time>
      </trkpt>
      <trkpt lat="50.12394" lon="4.16734">
        <ele>178</ele>
        <time>2019-11-10T15:25:21Z</time>
      </trkpt>
      <trkpt lat="50.12391" lon="4.1672">
        <ele>177.8</ele>
        <time>2019-11-10T15:25:29Z</time>
      </trkpt>
      <trkpt lat="50.1239" lon="4.16705">
        <ele>177.8</ele>
        <time>2019-11-10T15:25:39Z</time>
      </trkpt>
      <trkpt lat="50.12389" lon="4.1669">
        <ele>178.2</ele>
        <time>2019-11-10T15:25:47Z</time>
      </trkpt>
      <trkpt lat="50.12387" lon="4.16674">
        <ele>178.9</ele>
        <time>2019-11-10T15:25:55Z</time>
      </trkpt>
      <trkpt lat="50.12381" lon="4.16663">
        <ele>179.5</ele>
        <time>2019-11-10T15:26:04Z</time>
      </trkpt>
      <trkpt lat="50.12378" lon="4.16649">
        <ele>180.3</ele>
        <time>2019-11-10T15:26:13Z</time>
      </trkpt>
      <trkpt lat="50.12374" lon="4.16636">
        <ele>181.5</ele>
        <time>2019-11-10T15:26:22Z</time>
      </trkpt>
      <trkpt lat="50.12377" lon="4.16622">
        <ele>182.5</ele>
        <time>2019-11-10T15:26:30Z</time>
      </trkpt>
      <trkpt lat="50.12386" lon="4.1662">
        <ele>182.6</ele>
        <time>2019-11-10T15:26:37Z</time>
      </trkpt>
      <trkpt lat="50.12396" lon="4.16617">
        <ele>183.1</ele>
        <time>2019-11-10T15:26:46Z</time>
      </trkpt>
      <trkpt lat="50.12405" lon="4.16614">
        <ele>183.8</ele>
        <time>2019-11-10T15:26:56Z</time>
      </trkpt>
      <trkpt lat="50.12415" lon="4.1661">
        <ele>184.3</ele>
        <time>2019-11-10T15:27:04Z</time>
      </trkpt>
      <trkpt lat="50.12424" lon="4.16607">
        <ele>185.4</ele>
        <time>2019-11-10T15:27:12Z</time>
      </trkpt>
      <trkpt lat="50.12433" lon="4.16604">
        <ele>186</ele>
        <time>2019-11-10T15:27:20Z</time>
      </trkpt>
      <trkpt lat="50.12443" lon="4.16599">
        <ele>186.7</ele>
        <time>2019-11-10T15:27:28Z</time>
      </trkpt>
      <trkpt lat="50.12452" lon="4.16595">
        <ele>187</ele>
        <time>2019-11-10T15:27:36Z</time>
      </trkpt>
      <trkpt lat="50.12461" lon="4.1659">
        <ele>187.4</ele>
        <time>2019-11-10T15:27:47Z</time>
      </trkpt>
      <trkpt lat="50.1247" lon="4.16584">
        <ele>188.1</ele>
        <time>2019-11-10T15:27:56Z</time>
      </trkpt>
      <trkpt lat="50.12479" lon="4.16578">
        <ele>189.1</ele>
        <time>2019-11-10T15:28:04Z</time>
      </trkpt>
      <trkpt lat="50.12487" lon="4.1657">
        <ele>190</ele>
        <time>2019-11-10T15:28:12Z</time>
      </trkpt>
      <trkpt lat="50.12495" lon="4.16561">
        <ele>190.7</ele>
        <time>2019-11-10T15:28:21Z</time>
      </trkpt>
      <trkpt lat="50.12503" lon="4.16554">
        <ele>191.5</ele>
        <time>2019-11-10T15:28:29Z</time>
      </trkpt>
      <trkpt lat="50.1251" lon="4.16545">
        <ele>192.7</ele>
        <time>2019-11-10T15:28:38Z</time>
      </trkpt>
      <trkpt lat="50.12516" lon="4.16532">
        <ele>193.9</ele>
        <time>2019-11-10T15:28:47Z</time>
      </trkpt>
      <trkpt lat="50.12522" lon="4.16522">
        <ele>194.8</ele>
        <time>2019-11-10T15:28:55Z</time>
      </trkpt>
      <trkpt lat="50.12527" lon="4.16509">
        <ele>196.1</ele>
        <time>2019-11-10T15:29:04Z</time>
      </trkpt>
      <trkpt lat="50.1253" lon="4.16496">
        <ele>196.9</ele>
        <time>2019-11-10T15:29:12Z</time>
      </trkpt>
      <trkpt lat="50.12535" lon="4.16482">
        <ele>197.5</ele>
        <time>2019-11-10T15:29:20Z</time>
      </trkpt>
      <trkpt lat="50.12537" lon="4.16467">
        <ele>198.6</ele>
        <time>2019-11-10T15:29:28Z</time>
      </trkpt>
      <trkpt lat="50.12538" lon="4.16452">
        <ele>199.5</ele>
        <time>2019-11-10T15:29:36Z</time>
      </trkpt>
      <trkpt lat="50.12539" lon="4.16437">
        <ele>199.9</ele>
        <time>2019-11-10T15:29:44Z</time>
      </trkpt>
      <trkpt lat="50.1254" lon="4.16422">
        <ele>200.6</ele>
        <time>2019-11-10T15:29:51Z</time>
      </trkpt>
      <trkpt lat="50.12542" lon="4.16406">
        <ele>201.5</ele>
        <time>2019-11-10T15:29:59Z</time>
      </trkpt>
      <trkpt lat="50.12546" lon="4.16393">
        <ele>202.3</ele>
        <time>2019-11-10T15:30:10Z</time>
      </trkpt>
      <trkpt lat="50.12548" lon="4.16377">
        <ele>203.2</ele>
        <time>2019-11-10T15:30:21Z</time>
      </trkpt>
      <trkpt lat="50.1255" lon="4.16362">
        <ele>203.7</ele>
        <time>2019-11-10T15:30:28Z</time>
      </trkpt>
      <trkpt lat="50.12554" lon="4.16347">
        <ele>203.9</ele>
        <time>2019-11-10T15:30:36Z</time>
      </trkpt>
      <trkpt lat="50.12558" lon="4.16333">
        <ele>204.4</ele>
        <time>2019-11-10T15:30:43Z</time>
      </trkpt>
      <trkpt lat="50.12564" lon="4.1632">
        <ele>205</ele>
        <time>2019-11-10T15:30:51Z</time>
      </trkpt>
      <trkpt lat="50.12571" lon="4.16309">
        <ele>205.5</ele>
        <time>2019-11-10T15:30:59Z</time>
      </trkpt>
      <trkpt lat="50.12576" lon="4.16296">
        <ele>206.8</ele>
        <time>2019-11-10T15:31:12Z</time>
      </trkpt>
      <trkpt lat="50.12582" lon="4.16284">
        <ele>207.6</ele>
        <time>2019-11-10T15:31:21Z</time>
      </trkpt>
      <trkpt lat="50.1259" lon="4.16274">
        <ele>208.5</ele>
        <time>2019-11-10T15:31:28Z</time>
      </trkpt>
      <trkpt lat="50.12594" lon="4.16261">
        <ele>209.3</ele>
        <time>2019-11-10T15:31:36Z</time>
      </trkpt>
      <trkpt lat="50.12599" lon="4.16248">
        <ele>210.9</ele>
        <time>2019-11-10T15:31:46Z</time>
      </trkpt>
      <trkpt lat="50.12606" lon="4.16238">
        <ele>211.8</ele>
        <time>2019-11-10T15:31:56Z</time>
      </trkpt>
      <trkpt lat="50.12613" lon="4.16228">
        <ele>212.4</ele>
        <time>2019-11-10T15:32:03Z</time>
      </trkpt>
      <trkpt lat="50.12619" lon="4.16216">
        <ele>213.2</ele>
        <time>2019-11-10T15:32:11Z</time>
      </trkpt>
      <trkpt lat="50.12624" lon="4.16204">
        <ele>213.3</ele>
        <time>2019-11-10T15:32:19Z</time>
      </trkpt>
      <trkpt lat="50.12628" lon="4.16191">
        <ele>213.5</ele>
        <time>2019-11-10T15:32:27Z</time>
      </trkpt>
      <trkpt lat="50.12631" lon="4.16176">
        <ele>213.7</ele>
        <time>2019-11-10T15:32:39Z</time>
      </trkpt>
      <trkpt lat="50.12637" lon="4.16164">
        <ele>214</ele>
        <time>2019-11-10T15:32:50Z</time>
      </trkpt>
      <trkpt lat="50.12642" lon="4.16152">
        <ele>214.9</ele>
        <time>2019-11-10T15:32:59Z</time>
      </trkpt>
      <trkpt lat="50.12644" lon="4.16137">
        <ele>215.4</ele>
        <time>2019-11-10T15:33:08Z</time>
      </trkpt>
      <trkpt lat="50.12645" lon="4.16122">
        <ele>215.7</ele>
        <time>2019-11-10T15:33:16Z</time>
      </trkpt>
      <trkpt lat="50.12643" lon="4.16108">
        <ele>215.9</ele>
        <time>2019-11-10T15:33:26Z</time>
      </trkpt>
      <trkpt lat="50.12644" lon="4.16094">
        <ele>215.9</ele>
        <time>2019-11-10T15:33:35Z</time>
      </trkpt>
      <trkpt lat="50.12636" lon="4.16086">
        <ele>215.4</ele>
        <time>2019-11-10T15:34:04Z</time>
      </trkpt>
      <trkpt lat="50.12633" lon="4.16071">
        <ele>215.5</ele>
        <time>2019-11-10T15:34:13Z</time>
      </trkpt>
      <trkpt lat="50.1263" lon="4.16058">
        <ele>215.6</ele>
        <time>2019-11-10T15:34:21Z</time>
      </trkpt>
      <trkpt lat="50.12625" lon="4.16046">
        <ele>215.1</ele>
        <time>2019-11-10T15:34:28Z</time>
      </trkpt>
      <trkpt lat="50.12619" lon="4.16032">
        <ele>215</ele>
        <time>2019-11-10T15:34:36Z</time>
      </trkpt>
      <trkpt lat="50.12613" lon="4.1602">
        <ele>214.9</ele>
        <time>2019-11-10T15:34:44Z</time>
      </trkpt>
      <trkpt lat="50.12607" lon="4.16009">
        <ele>214.8</ele>
        <time>2019-11-10T15:34:52Z</time>
      </trkpt>
      <trkpt lat="50.126" lon="4.15999">
        <ele>214.5</ele>
        <time>2019-11-10T15:35:00Z</time>
      </trkpt>
      <trkpt lat="50.12594" lon="4.15988">
        <ele>214.3</ele>
        <time>2019-11-10T15:35:08Z</time>
      </trkpt>
      <trkpt lat="50.12587" lon="4.15979">
        <ele>214.3</ele>
        <time>2019-11-10T15:35:15Z</time>
      </trkpt>
      <trkpt lat="50.12579" lon="4.1597">
        <ele>214.2</ele>
        <time>2019-11-10T15:35:22Z</time>
      </trkpt>
      <trkpt lat="50.12572" lon="4.15962">
        <ele>213.9</ele>
        <time>2019-11-10T15:35:29Z</time>
      </trkpt>
      <trkpt lat="50.12563" lon="4.15954">
        <ele>213.9</ele>
        <time>2019-11-10T15:35:36Z</time>
      </trkpt>
      <trkpt lat="50.12554" lon="4.15947">
        <ele>213.7</ele>
        <time>2019-11-10T15:35:43Z</time>
      </trkpt>
      <trkpt lat="50.12545" lon="4.15941">
        <ele>213.6</ele>
        <time>2019-11-10T15:35:50Z</time>
      </trkpt>
      <trkpt lat="50.12537" lon="4.15936">
        <ele>213.3</ele>
        <time>2019-11-10T15:35:57Z</time>
      </trkpt>
      <trkpt lat="50.12528" lon="4.1593">
        <ele>212.7</ele>
        <time>2019-11-10T15:36:05Z</time>
      </trkpt>
      <trkpt lat="50.12519" lon="4.15928">
        <ele>211.8</ele>
        <time>2019-11-10T15:36:13Z</time>
      </trkpt>
      <trkpt lat="50.1251" lon="4.15926">
        <ele>210.8</ele>
        <time>2019-11-10T15:36:21Z</time>
      </trkpt>
      <trkpt lat="50.125" lon="4.15924">
        <ele>209.9</ele>
        <time>2019-11-10T15:36:29Z</time>
      </trkpt>
      <trkpt lat="50.12492" lon="4.15919">
        <ele>209.2</ele>
        <time>2019-11-10T15:36:35Z</time>
      </trkpt>
      <trkpt lat="50.12482" lon="4.15917">
        <ele>208.3</ele>
        <time>2019-11-10T15:36:43Z</time>
      </trkpt>
      <trkpt lat="50.12473" lon="4.15915">
        <ele>207.7</ele>
        <time>2019-11-10T15:36:51Z</time>
      </trkpt>
      <trkpt lat="50.12463" lon="4.15914">
        <ele>206.8</ele>
        <time>2019-11-10T15:36:58Z</time>
      </trkpt>
      <trkpt lat="50.12453" lon="4.1591">
        <ele>206.6</ele>
        <time>2019-11-10T15:37:05Z</time>
      </trkpt>
      <trkpt lat="50.12443" lon="4.15911">
        <ele>206.2</ele>
        <time>2019-11-10T15:37:13Z</time>
      </trkpt>
      <trkpt lat="50.12433" lon="4.15911">
        <ele>206</ele>
        <time>2019-11-10T15:37:20Z</time>
      </trkpt>
      <trkpt lat="50.12423" lon="4.15911">
        <ele>205.7</ele>
        <time>2019-11-10T15:37:27Z</time>
      </trkpt>
      <trkpt lat="50.12414" lon="4.15912">
        <ele>205.3</ele>
        <time>2019-11-10T15:37:35Z</time>
      </trkpt>
      <trkpt lat="50.12404" lon="4.1591">
        <ele>205.1</ele>
        <time>2019-11-10T15:37:42Z</time>
      </trkpt>
      <trkpt lat="50.12396" lon="4.15905">
        <ele>204.9</ele>
        <time>2019-11-10T15:37:48Z</time>
      </trkpt>
      <trkpt lat="50.12386" lon="4.15905">
        <ele>204.9</ele>
        <time>2019-11-10T15:37:55Z</time>
      </trkpt>
      <trkpt lat="50.12375" lon="4.15903">
        <ele>204.9</ele>
        <time>2019-11-10T15:38:02Z</time>
      </trkpt>
      <trkpt lat="50.12366" lon="4.15901">
        <ele>204.9</ele>
        <time>2019-11-10T15:38:09Z</time>
      </trkpt>
      <trkpt lat="50.12357" lon="4.15901">
        <ele>205</ele>
        <time>2019-11-10T15:38:18Z</time>
      </trkpt>
      <trkpt lat="50.12348" lon="4.15897">
        <ele>205.5</ele>
        <time>2019-11-10T15:38:26Z</time>
      </trkpt>
      <trkpt lat="50.12346" lon="4.15883">
        <ele>206.3</ele>
        <time>2019-11-10T15:38:40Z</time>
      </trkpt>
      <trkpt lat="50.12343" lon="4.15868">
        <ele>206.5</ele>
        <time>2019-11-10T15:38:52Z</time>
      </trkpt>
      <trkpt lat="50.12346" lon="4.15853">
        <ele>206.5</ele>
        <time>2019-11-10T15:39:03Z</time>
      </trkpt>
      <trkpt lat="50.12345" lon="4.15838">
        <ele>206.3</ele>
        <time>2019-11-10T15:39:14Z</time>
      </trkpt>
      <trkpt lat="50.12341" lon="4.15824">
        <ele>205.6</ele>
        <time>2019-11-10T15:39:26Z</time>
      </trkpt>
      <trkpt lat="50.12337" lon="4.15811">
        <ele>205.2</ele>
        <time>2019-11-10T15:39:34Z</time>
      </trkpt>
      <trkpt lat="50.12329" lon="4.158">
        <ele>204.6</ele>
        <time>2019-11-10T15:39:39Z</time>
      </trkpt>
      <trkpt lat="50.12325" lon="4.15787">
        <ele>204.1</ele>
        <time>2019-11-10T15:39:48Z</time>
      </trkpt>
      <trkpt lat="50.12322" lon="4.15773">
        <ele>202.7</ele>
        <time>2019-11-10T15:40:00Z</time>
      </trkpt>
      <trkpt lat="50.12318" lon="4.15758">
        <ele>201.7</ele>
        <time>2019-11-10T15:40:08Z</time>
      </trkpt>
      <trkpt lat="50.12314" lon="4.15744">
        <ele>200.4</ele>
        <time>2019-11-10T15:40:19Z</time>
      </trkpt>
      <trkpt lat="50.1231" lon="4.1573">
        <ele>198.8</ele>
        <time>2019-11-10T15:40:28Z</time>
      </trkpt>
      <trkpt lat="50.12304" lon="4.15718">
        <ele>198.4</ele>
        <time>2019-11-10T15:40:33Z</time>
      </trkpt>
      <trkpt lat="50.12303" lon="4.15703">
        <ele>197.5</ele>
        <time>2019-11-10T15:40:40Z</time>
      </trkpt>
      <trkpt lat="50.12298" lon="4.15691">
        <ele>197</ele>
        <time>2019-11-10T15:40:45Z</time>
      </trkpt>
      <trkpt lat="50.12295" lon="4.15675">
        <ele>196.3</ele>
        <time>2019-11-10T15:40:51Z</time>
      </trkpt>
      <trkpt lat="50.12299" lon="4.15662">
        <ele>194.8</ele>
        <time>2019-11-10T15:40:59Z</time>
      </trkpt>
      <trkpt lat="50.123" lon="4.15646">
        <ele>193.4</ele>
        <time>2019-11-10T15:41:07Z</time>
      </trkpt>
      <trkpt lat="50.12299" lon="4.1563">
        <ele>191.5</ele>
        <time>2019-11-10T15:41:15Z</time>
      </trkpt>
      <trkpt lat="50.123" lon="4.15616">
        <ele>190.4</ele>
        <time>2019-11-10T15:41:23Z</time>
      </trkpt>
      <trkpt lat="50.12305" lon="4.15604">
        <ele>188.6</ele>
        <time>2019-11-10T15:42:10Z</time>
      </trkpt>
      <trkpt lat="50.12306" lon="4.1559">
        <ele>187.1</ele>
        <time>2019-11-10T15:42:20Z</time>
      </trkpt>
      <trkpt lat="50.12306" lon="4.15574">
        <ele>185.8</ele>
        <time>2019-11-10T15:42:30Z</time>
      </trkpt>
      <trkpt lat="50.12305" lon="4.15559">
        <ele>183.9</ele>
        <time>2019-11-10T15:42:39Z</time>
      </trkpt>
      <trkpt lat="50.12303" lon="4.15544">
        <ele>182.6</ele>
        <time>2019-11-10T15:42:47Z</time>
      </trkpt>
      <trkpt lat="50.12303" lon="4.15529">
        <ele>180.3</ele>
        <time>2019-11-10T15:42:56Z</time>
      </trkpt>
      <trkpt lat="50.123" lon="4.15514">
        <ele>177.7</ele>
        <time>2019-11-10T15:43:09Z</time>
      </trkpt>
      <trkpt lat="50.12289" lon="4.1552">
        <ele>177.6</ele>
        <time>2019-11-10T15:43:45Z</time>
      </trkpt>
      <trkpt lat="50.12285" lon="4.15507">
        <ele>176</ele>
        <time>2019-11-10T15:44:01Z</time>
      </trkpt>
      <trkpt lat="50.12279" lon="4.15497">
        <ele>175.2</ele>
        <time>2019-11-10T15:44:08Z</time>
      </trkpt>
      <trkpt lat="50.12274" lon="4.15485">
        <ele>174.8</ele>
        <time>2019-11-10T15:44:14Z</time>
      </trkpt>
      <trkpt lat="50.12272" lon="4.1547">
        <ele>174.7</ele>
        <time>2019-11-10T15:44:21Z</time>
      </trkpt>
      <trkpt lat="50.12277" lon="4.15456">
        <ele>173.7</ele>
        <time>2019-11-10T15:44:29Z</time>
      </trkpt>
      <trkpt lat="50.12281" lon="4.15443">
        <ele>173.4</ele>
        <time>2019-11-10T15:44:37Z</time>
      </trkpt>
      <trkpt lat="50.1228" lon="4.15428">
        <ele>172.3</ele>
        <time>2019-11-10T15:44:46Z</time>
      </trkpt>
      <trkpt lat="50.12275" lon="4.15414">
        <ele>171.2</ele>
        <time>2019-11-10T15:44:57Z</time>
      </trkpt>
      <trkpt lat="50.12272" lon="4.15397">
        <ele>170.4</ele>
        <time>2019-11-10T15:45:08Z</time>
      </trkpt>
      <trkpt lat="50.12266" lon="4.15385">
        <ele>169.6</ele>
        <time>2019-11-10T15:45:14Z</time>
      </trkpt>
      <trkpt lat="50.12262" lon="4.15372">
        <ele>169.2</ele>
        <time>2019-11-10T15:45:19Z</time>
      </trkpt>
      <trkpt lat="50.12258" lon="4.15358">
        <ele>168.4</ele>
        <time>2019-11-10T15:45:26Z</time>
      </trkpt>
      <trkpt lat="50.12255" lon="4.15344">
        <ele>167.8</ele>
        <time>2019-11-10T15:45:36Z</time>
      </trkpt>
      <trkpt lat="50.12252" lon="4.1533">
        <ele>167.9</ele>
        <time>2019-11-10T15:45:42Z</time>
      </trkpt>
      <trkpt lat="50.12251" lon="4.15317">
        <ele>167.7</ele>
        <time>2019-11-10T15:45:48Z</time>
      </trkpt>
      <trkpt lat="50.12253" lon="4.15303">
        <ele>167.5</ele>
        <time>2019-11-10T15:45:55Z</time>
      </trkpt>
      <trkpt lat="50.12258" lon="4.1529">
        <ele>167.7</ele>
        <time>2019-11-10T15:46:04Z</time>
      </trkpt>
      <trkpt lat="50.12265" lon="4.1528">
        <ele>168.2</ele>
        <time>2019-11-10T15:46:20Z</time>
      </trkpt>
      <trkpt lat="50.12274" lon="4.15274">
        <ele>168.9</ele>
        <time>2019-11-10T15:46:29Z</time>
      </trkpt>
      <trkpt lat="50.12281" lon="4.15263">
        <ele>168.9</ele>
        <time>2019-11-10T15:46:36Z</time>
      </trkpt>
      <trkpt lat="50.12287" lon="4.15251">
        <ele>169</ele>
        <time>2019-11-10T15:46:44Z</time>
      </trkpt>
      <trkpt lat="50.12288" lon="4.15236">
        <ele>168.9</ele>
        <time>2019-11-10T15:46:51Z</time>
      </trkpt>
      <trkpt lat="50.12279" lon="4.15229">
        <ele>168.2</ele>
        <time>2019-11-10T15:47:17Z</time>
      </trkpt>
      <trkpt lat="50.12274" lon="4.15218">
        <ele>167.6</ele>
        <time>2019-11-10T15:47:51Z</time>
      </trkpt>
      <trkpt lat="50.12273" lon="4.15203">
        <ele>167.2</ele>
        <time>2019-11-10T15:47:58Z</time>
      </trkpt>
      <trkpt lat="50.12272" lon="4.15187">
        <ele>166.7</ele>
        <time>2019-11-10T15:48:07Z</time>
      </trkpt>
      <trkpt lat="50.1227" lon="4.15173">
        <ele>166.6</ele>
        <time>2019-11-10T15:48:14Z</time>
      </trkpt>
      <trkpt lat="50.12267" lon="4.15159">
        <ele>166.2</ele>
        <time>2019-11-10T15:48:22Z</time>
      </trkpt>
      <trkpt lat="50.12264" lon="4.15146">
        <ele>166.4</ele>
        <time>2019-11-10T15:48:30Z</time>
      </trkpt>
      <trkpt lat="50.12262" lon="4.15132">
        <ele>166.4</ele>
        <time>2019-11-10T15:48:38Z</time>
      </trkpt>
      <trkpt lat="50.1226" lon="4.15118">
        <ele>166.2</ele>
        <time>2019-11-10T15:48:46Z</time>
      </trkpt>
      <trkpt lat="50.12259" lon="4.15103">
        <ele>166.1</ele>
        <time>2019-11-10T15:48:55Z</time>
      </trkpt>
      <trkpt lat="50.12256" lon="4.15089">
        <ele>166</ele>
        <time>2019-11-10T15:49:02Z</time>
      </trkpt>
      <trkpt lat="50.12253" lon="4.15076">
        <ele>166.1</ele>
        <time>2019-11-10T15:49:10Z</time>
      </trkpt>
      <trkpt lat="50.1225" lon="4.15062">
        <ele>165.9</ele>
        <time>2019-11-10T15:49:17Z</time>
      </trkpt>
      <trkpt lat="50.12246" lon="4.15047">
        <ele>165.8</ele>
        <time>2019-11-10T15:49:25Z</time>
      </trkpt>
      <trkpt lat="50.12245" lon="4.15033">
        <ele>165.9</ele>
        <time>2019-11-10T15:49:35Z</time>
      </trkpt>
      <trkpt lat="50.12241" lon="4.15019">
        <ele>166</ele>
        <time>2019-11-10T15:49:43Z</time>
      </trkpt>
      <trkpt lat="50.12238" lon="4.15005">
        <ele>166.1</ele>
        <time>2019-11-10T15:49:51Z</time>
      </trkpt>
      <trkpt lat="50.12234" lon="4.14991">
        <ele>166.1</ele>
        <time>2019-11-10T15:49:59Z</time>
      </trkpt>
      <trkpt lat="50.1223" lon="4.14977">
        <ele>166.1</ele>
        <time>2019-11-10T15:50:07Z</time>
      </trkpt>
      <trkpt lat="50.12225" lon="4.14964">
        <ele>166.1</ele>
        <time>2019-11-10T15:50:14Z</time>
      </trkpt>
      <trkpt lat="50.12221" lon="4.1495">
        <ele>166</ele>
        <time>2019-11-10T15:50:22Z</time>
      </trkpt>
      <trkpt lat="50.12217" lon="4.14937">
        <ele>166</ele>
        <time>2019-11-10T15:50:30Z</time>
      </trkpt>
      <trkpt lat="50.12213" lon="4.14925">
        <ele>166.1</ele>
        <time>2019-11-10T15:50:37Z</time>
      </trkpt>
      <trkpt lat="50.12207" lon="4.14911">
        <ele>166</ele>
        <time>2019-11-10T15:50:45Z</time>
      </trkpt>
      <trkpt lat="50.12202" lon="4.14898">
        <ele>165.8</ele>
        <time>2019-11-10T15:50:53Z</time>
      </trkpt>
      <trkpt lat="50.12197" lon="4.14886">
        <ele>166.1</ele>
        <time>2019-11-10T15:51:02Z</time>
      </trkpt>
      <trkpt lat="50.1219" lon="4.14876">
        <ele>165.9</ele>
        <time>2019-11-10T15:51:09Z</time>
      </trkpt>
      <trkpt lat="50.12182" lon="4.14866">
        <ele>166</ele>
        <time>2019-11-10T15:51:17Z</time>
      </trkpt>
      <trkpt lat="50.12174" lon="4.14858">
        <ele>166</ele>
        <time>2019-11-10T15:51:25Z</time>
      </trkpt>
      <trkpt lat="50.12166" lon="4.1485">
        <ele>165.8</ele>
        <time>2019-11-10T15:51:35Z</time>
      </trkpt>
      <trkpt lat="50.12158" lon="4.14843">
        <ele>165.6</ele>
        <time>2019-11-10T15:51:52Z</time>
      </trkpt>
      <trkpt lat="50.12149" lon="4.14838">
        <ele>165.6</ele>
        <time>2019-11-10T15:52:01Z</time>
      </trkpt>
      <trkpt lat="50.1214" lon="4.14832">
        <ele>165.4</ele>
        <time>2019-11-10T15:52:08Z</time>
      </trkpt>
      <trkpt lat="50.1213" lon="4.14828">
        <ele>165.5</ele>
        <time>2019-11-10T15:52:17Z</time>
      </trkpt>
      <trkpt lat="50.1212" lon="4.14825">
        <ele>165.6</ele>
        <time>2019-11-10T15:52:24Z</time>
      </trkpt>
      <trkpt lat="50.12111" lon="4.14824">
        <ele>165.6</ele>
        <time>2019-11-10T15:52:33Z</time>
      </trkpt>
      <trkpt lat="50.12102" lon="4.14825">
        <ele>165.6</ele>
        <time>2019-11-10T15:52:45Z</time>
      </trkpt>
      <trkpt lat="50.12093" lon="4.14828">
        <ele>166.2</ele>
        <time>2019-11-10T15:52:56Z</time>
      </trkpt>
      <trkpt lat="50.12084" lon="4.14826">
        <ele>166.1</ele>
        <time>2019-11-10T15:53:04Z</time>
      </trkpt>
      <trkpt lat="50.12073" lon="4.14823">
        <ele>165.9</ele>
        <time>2019-11-10T15:53:11Z</time>
      </trkpt>
      <trkpt lat="50.12064" lon="4.1482">
        <ele>165.6</ele>
        <time>2019-11-10T15:53:17Z</time>
      </trkpt>
      <trkpt lat="50.12054" lon="4.14819">
        <ele>165.4</ele>
        <time>2019-11-10T15:53:24Z</time>
      </trkpt>
      <trkpt lat="50.12045" lon="4.14819">
        <ele>165.7</ele>
        <time>2019-11-10T15:53:33Z</time>
      </trkpt>
      <trkpt lat="50.12036" lon="4.14818">
        <ele>165.7</ele>
        <time>2019-11-10T15:53:42Z</time>
      </trkpt>
      <trkpt lat="50.12026" lon="4.14817">
        <ele>165.8</ele>
        <time>2019-11-10T15:53:51Z</time>
      </trkpt>
      <trkpt lat="50.12016" lon="4.14815">
        <ele>165.5</ele>
        <time>2019-11-10T15:53:57Z</time>
      </trkpt>
      <trkpt lat="50.12007" lon="4.14812">
        <ele>165.6</ele>
        <time>2019-11-10T15:54:13Z</time>
      </trkpt>
      <trkpt lat="50.12" lon="4.14803">
        <ele>166.1</ele>
        <time>2019-11-10T15:54:25Z</time>
      </trkpt>
      <trkpt lat="50.11998" lon="4.14788">
        <ele>167.6</ele>
        <time>2019-11-10T15:54:36Z</time>
      </trkpt>
      <trkpt lat="50.11999" lon="4.14773">
        <ele>168.3</ele>
        <time>2019-11-10T15:54:45Z</time>
      </trkpt>
      <trkpt lat="50.12001" lon="4.14759">
        <ele>169.4</ele>
        <time>2019-11-10T15:54:56Z</time>
      </trkpt>
      <trkpt lat="50.11999" lon="4.14745">
        <ele>169.3</ele>
        <time>2019-11-10T15:55:07Z</time>
      </trkpt>
      <trkpt lat="50.11994" lon="4.14732">
        <ele>168.4</ele>
        <time>2019-11-10T15:55:14Z</time>
      </trkpt>
      <trkpt lat="50.1199" lon="4.14717">
        <ele>168.1</ele>
        <time>2019-11-10T15:55:21Z</time>
      </trkpt>
      <trkpt lat="50.11983" lon="4.14707">
        <ele>168.7</ele>
        <time>2019-11-10T15:55:31Z</time>
      </trkpt>
      <trkpt lat="50.11973" lon="4.14708">
        <ele>169.2</ele>
        <time>2019-11-10T15:55:38Z</time>
      </trkpt>
      <trkpt lat="50.11969" lon="4.14722">
        <ele>169.6</ele>
        <time>2019-11-10T15:55:46Z</time>
      </trkpt>
      <trkpt lat="50.11965" lon="4.14736">
        <ele>169.2</ele>
        <time>2019-11-10T15:55:55Z</time>
      </trkpt>
      <trkpt lat="50.11962" lon="4.14749">
        <ele>169.6</ele>
        <time>2019-11-10T15:56:05Z</time>
      </trkpt>
      <trkpt lat="50.11957" lon="4.14761">
        <ele>170.8</ele>
        <time>2019-11-10T15:56:14Z</time>
      </trkpt>
      <trkpt lat="50.11951" lon="4.14774">
        <ele>171.1</ele>
        <time>2019-11-10T15:56:24Z</time>
      </trkpt>
      <trkpt lat="50.11942" lon="4.14778">
        <ele>172.2</ele>
        <time>2019-11-10T15:56:32Z</time>
      </trkpt>
      <trkpt lat="50.11933" lon="4.14773">
        <ele>173.5</ele>
        <time>2019-11-10T15:56:40Z</time>
      </trkpt>
      <trkpt lat="50.11923" lon="4.1477">
        <ele>174</ele>
        <time>2019-11-10T15:57:09Z</time>
      </trkpt>
      <trkpt lat="50.11915" lon="4.14777">
        <ele>173.9</ele>
        <time>2019-11-10T15:57:17Z</time>
      </trkpt>
      <trkpt lat="50.11906" lon="4.14779">
        <ele>173.2</ele>
        <time>2019-11-10T15:57:25Z</time>
      </trkpt>
      <trkpt lat="50.11897" lon="4.14783">
        <ele>172.8</ele>
        <time>2019-11-10T15:57:31Z</time>
      </trkpt>
      <trkpt lat="50.11887" lon="4.14785">
        <ele>172.1</ele>
        <time>2019-11-10T15:57:39Z</time>
      </trkpt>
      <trkpt lat="50.11877" lon="4.14789">
        <ele>171.5</ele>
        <time>2019-11-10T15:57:46Z</time>
      </trkpt>
      <trkpt lat="50.11867" lon="4.1479">
        <ele>170.8</ele>
        <time>2019-11-10T15:57:53Z</time>
      </trkpt>
      <trkpt lat="50.11857" lon="4.14793">
        <ele>170.3</ele>
        <time>2019-11-10T15:58:00Z</time>
      </trkpt>
      <trkpt lat="50.11848" lon="4.14799">
        <ele>169.4</ele>
        <time>2019-11-10T15:58:08Z</time>
      </trkpt>
      <trkpt lat="50.11838" lon="4.14799">
        <ele>169.2</ele>
        <time>2019-11-10T15:58:15Z</time>
      </trkpt>
      <trkpt lat="50.11828" lon="4.148">
        <ele>168.6</ele>
        <time>2019-11-10T15:58:22Z</time>
      </trkpt>
      <trkpt lat="50.11818" lon="4.148">
        <ele>168.3</ele>
        <time>2019-11-10T15:58:28Z</time>
      </trkpt>
      <trkpt lat="50.11809" lon="4.14802">
        <ele>167.7</ele>
        <time>2019-11-10T15:58:35Z</time>
      </trkpt>
      <trkpt lat="50.11798" lon="4.14805">
        <ele>167.5</ele>
        <time>2019-11-10T15:58:42Z</time>
      </trkpt>
      <trkpt lat="50.11788" lon="4.14806">
        <ele>167.3</ele>
        <time>2019-11-10T15:58:49Z</time>
      </trkpt>
      <trkpt lat="50.11778" lon="4.14805">
        <ele>166.7</ele>
        <time>2019-11-10T15:58:56Z</time>
      </trkpt>
      <trkpt lat="50.11768" lon="4.14805">
        <ele>166.4</ele>
        <time>2019-11-10T15:59:03Z</time>
      </trkpt>
      <trkpt lat="50.11759" lon="4.14805">
        <ele>166</ele>
        <time>2019-11-10T15:59:10Z</time>
      </trkpt>
      <trkpt lat="50.11749" lon="4.14805">
        <ele>165.7</ele>
        <time>2019-11-10T15:59:16Z</time>
      </trkpt>
      <trkpt lat="50.1174" lon="4.14804">
        <ele>165.3</ele>
        <time>2019-11-10T15:59:23Z</time>
      </trkpt>
      <trkpt lat="50.1173" lon="4.14798">
        <ele>165</ele>
        <time>2019-11-10T15:59:30Z</time>
      </trkpt>
      <trkpt lat="50.11723" lon="4.14788">
        <ele>165</ele>
        <time>2019-11-10T15:59:37Z</time>
      </trkpt>
      <trkpt lat="50.11715" lon="4.14778">
        <ele>165</ele>
        <time>2019-11-10T15:59:46Z</time>
      </trkpt>
      <trkpt lat="50.11709" lon="4.14766">
        <ele>165.1</ele>
        <time>2019-11-10T15:59:55Z</time>
      </trkpt>
      <trkpt lat="50.11704" lon="4.14754">
        <ele>165</ele>
        <time>2019-11-10T16:00:02Z</time>
      </trkpt>
      <trkpt lat="50.11698" lon="4.14741">
        <ele>164.8</ele>
        <time>2019-11-10T16:00:10Z</time>
      </trkpt>
      <trkpt lat="50.11692" lon="4.14728">
        <ele>164.7</ele>
        <time>2019-11-10T16:00:18Z</time>
      </trkpt>
      <trkpt lat="50.11687" lon="4.14717">
        <ele>164.8</ele>
        <time>2019-11-10T16:00:25Z</time>
      </trkpt>
      <trkpt lat="50.11681" lon="4.14704">
        <ele>164.5</ele>
        <time>2019-11-10T16:00:33Z</time>
      </trkpt>
      <trkpt lat="50.11677" lon="4.1469">
        <ele>164.6</ele>
        <time>2019-11-10T16:00:41Z</time>
      </trkpt>
      <trkpt lat="50.1167" lon="4.14678">
        <ele>164.4</ele>
        <time>2019-11-10T16:00:49Z</time>
      </trkpt>
      <trkpt lat="50.11667" lon="4.14665">
        <ele>164.6</ele>
        <time>2019-11-10T16:00:56Z</time>
      </trkpt>
      <trkpt lat="50.11665" lon="4.14651">
        <ele>164.3</ele>
        <time>2019-11-10T16:01:03Z</time>
      </trkpt>
      <trkpt lat="50.11664" lon="4.14637">
        <ele>164.4</ele>
        <time>2019-11-10T16:01:10Z</time>
      </trkpt>
      <trkpt lat="50.11662" lon="4.14622">
        <ele>164.3</ele>
        <time>2019-11-10T16:01:17Z</time>
      </trkpt>
      <trkpt lat="50.11661" lon="4.14609">
        <ele>164.5</ele>
        <time>2019-11-10T16:01:24Z</time>
      </trkpt>
      <trkpt lat="50.11659" lon="4.14594">
        <ele>164.3</ele>
        <time>2019-11-10T16:01:33Z</time>
      </trkpt>
      <trkpt lat="50.1166" lon="4.1458">
        <ele>163.9</ele>
        <time>2019-11-10T16:01:48Z</time>
      </trkpt>
      <trkpt lat="50.11657" lon="4.14566">
        <ele>163.7</ele>
        <time>2019-11-10T16:01:55Z</time>
      </trkpt>
      <trkpt lat="50.11657" lon="4.14551">
        <ele>163.3</ele>
        <time>2019-11-10T16:02:03Z</time>
      </trkpt>
      <trkpt lat="50.11657" lon="4.14535">
        <ele>163.1</ele>
        <time>2019-11-10T16:02:11Z</time>
      </trkpt>
      <trkpt lat="50.11656" lon="4.14521">
        <ele>162.6</ele>
        <time>2019-11-10T16:02:18Z</time>
      </trkpt>
      <trkpt lat="50.11656" lon="4.14505">
        <ele>163.2</ele>
        <time>2019-11-10T16:02:26Z</time>
      </trkpt>
      <trkpt lat="50.11657" lon="4.14491">
        <ele>162.9</ele>
        <time>2019-11-10T16:02:33Z</time>
      </trkpt>
      <trkpt lat="50.11659" lon="4.14476">
        <ele>163.1</ele>
        <time>2019-11-10T16:02:42Z</time>
      </trkpt>
      <trkpt lat="50.11658" lon="4.1446">
        <ele>163.4</ele>
        <time>2019-11-10T16:02:50Z</time>
      </trkpt>
      <trkpt lat="50.11659" lon="4.14445">
        <ele>163.6</ele>
        <time>2019-11-10T16:02:58Z</time>
      </trkpt>
      <trkpt lat="50.11658" lon="4.1443">
        <ele>164.4</ele>
        <time>2019-11-10T16:03:06Z</time>
      </trkpt>
      <trkpt lat="50.11657" lon="4.14414">
        <ele>164.9</ele>
        <time>2019-11-10T16:03:14Z</time>
      </trkpt>
      <trkpt lat="50.11656" lon="4.144">
        <ele>165.1</ele>
        <time>2019-11-10T16:03:21Z</time>
      </trkpt>
      <trkpt lat="50.11655" lon="4.14386">
        <ele>165.3</ele>
        <time>2019-11-10T16:03:28Z</time>
      </trkpt>
      <trkpt lat="50.11656" lon="4.14371">
        <ele>165.5</ele>
        <time>2019-11-10T16:03:36Z</time>
      </trkpt>
      <trkpt lat="50.11659" lon="4.14356">
        <ele>165.4</ele>
        <time>2019-11-10T16:03:44Z</time>
      </trkpt>
      <trkpt lat="50.11661" lon="4.14343">
        <ele>165.3</ele>
        <time>2019-11-10T16:03:51Z</time>
      </trkpt>
      <trkpt lat="50.11666" lon="4.14329">
        <ele>165.5</ele>
        <time>2019-11-10T16:03:59Z</time>
      </trkpt>
      <trkpt lat="50.11668" lon="4.14315">
        <ele>165.6</ele>
        <time>2019-11-10T16:04:07Z</time>
      </trkpt>
      <trkpt lat="50.11668" lon="4.14299">
        <ele>165.8</ele>
        <time>2019-11-10T16:04:15Z</time>
      </trkpt>
      <trkpt lat="50.11669" lon="4.14285">
        <ele>165.8</ele>
        <time>2019-11-10T16:04:24Z</time>
      </trkpt>
      <trkpt lat="50.11669" lon="4.1427">
        <ele>165.9</ele>
        <time>2019-11-10T16:04:32Z</time>
      </trkpt>
      <trkpt lat="50.1167" lon="4.14253">
        <ele>166.1</ele>
        <time>2019-11-10T16:04:39Z</time>
      </trkpt>
      <trkpt lat="50.11671" lon="4.14239">
        <ele>166.4</ele>
        <time>2019-11-10T16:04:45Z</time>
      </trkpt>
      <trkpt lat="50.11675" lon="4.14225">
        <ele>166.2</ele>
        <time>2019-11-10T16:04:52Z</time>
      </trkpt>
      <trkpt lat="50.11677" lon="4.14211">
        <ele>166</ele>
        <time>2019-11-10T16:04:58Z</time>
      </trkpt>
      <trkpt lat="50.1168" lon="4.14198">
        <ele>165.9</ele>
        <time>2019-11-10T16:05:05Z</time>
      </trkpt>
      <trkpt lat="50.11685" lon="4.14186">
        <ele>165.9</ele>
        <time>2019-11-10T16:05:12Z</time>
      </trkpt>
      <trkpt lat="50.11689" lon="4.14173">
        <ele>166.1</ele>
        <time>2019-11-10T16:05:19Z</time>
      </trkpt>
      <trkpt lat="50.11694" lon="4.14159">
        <ele>166.2</ele>
        <time>2019-11-10T16:05:27Z</time>
      </trkpt>
      <trkpt lat="50.11698" lon="4.14146">
        <ele>166.3</ele>
        <time>2019-11-10T16:05:34Z</time>
      </trkpt>
      <trkpt lat="50.11698" lon="4.14131">
        <ele>166</ele>
        <time>2019-11-10T16:05:41Z</time>
      </trkpt>
      <trkpt lat="50.11696" lon="4.14117">
        <ele>164.7</ele>
        <time>2019-11-10T16:05:53Z</time>
      </trkpt>
      <trkpt lat="50.11691" lon="4.14105">
        <ele>164.1</ele>
        <time>2019-11-10T16:06:00Z</time>
      </trkpt>
      <trkpt lat="50.11688" lon="4.1409">
        <ele>164.1</ele>
        <time>2019-11-10T16:06:08Z</time>
      </trkpt>
      <trkpt lat="50.11691" lon="4.14076">
        <ele>164</ele>
        <time>2019-11-10T16:06:15Z</time>
      </trkpt>
      <trkpt lat="50.11694" lon="4.14063">
        <ele>164.4</ele>
        <time>2019-11-10T16:06:22Z</time>
      </trkpt>
      <trkpt lat="50.11696" lon="4.1405">
        <ele>165</ele>
        <time>2019-11-10T16:06:29Z</time>
      </trkpt>
      <trkpt lat="50.11696" lon="4.14035">
        <ele>165.1</ele>
        <time>2019-11-10T16:06:36Z</time>
      </trkpt>
      <trkpt lat="50.11696" lon="4.14021">
        <ele>164.9</ele>
        <time>2019-11-10T16:06:44Z</time>
      </trkpt>
      <trkpt lat="50.11697" lon="4.14005">
        <ele>164.9</ele>
        <time>2019-11-10T16:06:52Z</time>
      </trkpt>
      <trkpt lat="50.11699" lon="4.13989">
        <ele>164.6</ele>
        <time>2019-11-10T16:07:00Z</time>
      </trkpt>
      <trkpt lat="50.117" lon="4.13973">
        <ele>164.4</ele>
        <time>2019-11-10T16:07:08Z</time>
      </trkpt>
      <trkpt lat="50.117" lon="4.13957">
        <ele>164.5</ele>
        <time>2019-11-10T16:07:16Z</time>
      </trkpt>
      <trkpt lat="50.11701" lon="4.13942">
        <ele>164.6</ele>
        <time>2019-11-10T16:07:24Z</time>
      </trkpt>
      <trkpt lat="50.11703" lon="4.13927">
        <ele>164.9</ele>
        <time>2019-11-10T16:07:32Z</time>
      </trkpt>
      <trkpt lat="50.11703" lon="4.13911">
        <ele>165</ele>
        <time>2019-11-10T16:07:40Z</time>
      </trkpt>
      <trkpt lat="50.11701" lon="4.13896">
        <ele>165.1</ele>
        <time>2019-11-10T16:07:47Z</time>
      </trkpt>
      <trkpt lat="50.11699" lon="4.1388">
        <ele>165.1</ele>
        <time>2019-11-10T16:07:55Z</time>
      </trkpt>
      <trkpt lat="50.11696" lon="4.13866">
        <ele>164.9</ele>
        <time>2019-11-10T16:08:03Z</time>
      </trkpt>
      <trkpt lat="50.11696" lon="4.1385">
        <ele>165</ele>
        <time>2019-11-10T16:08:12Z</time>
      </trkpt>
      <trkpt lat="50.11695" lon="4.13836">
        <ele>165</ele>
        <time>2019-11-10T16:08:21Z</time>
      </trkpt>
      <trkpt lat="50.11697" lon="4.13822">
        <ele>165</ele>
        <time>2019-11-10T16:08:33Z</time>
      </trkpt>
      <trkpt lat="50.11697" lon="4.13806">
        <ele>164.9</ele>
        <time>2019-11-10T16:08:41Z</time>
      </trkpt>
      <trkpt lat="50.11695" lon="4.13791">
        <ele>164.8</ele>
        <time>2019-11-10T16:08:49Z</time>
      </trkpt>
      <trkpt lat="50.11693" lon="4.13775">
        <ele>164.7</ele>
        <time>2019-11-10T16:08:57Z</time>
      </trkpt>
      <trkpt lat="50.11691" lon="4.1376">
        <ele>164.6</ele>
        <time>2019-11-10T16:09:05Z</time>
      </trkpt>
      <trkpt lat="50.11689" lon="4.13745">
        <ele>164.4</ele>
        <time>2019-11-10T16:09:12Z</time>
      </trkpt>
      <trkpt lat="50.11688" lon="4.1373">
        <ele>164</ele>
        <time>2019-11-10T16:09:20Z</time>
      </trkpt>
      <trkpt lat="50.11687" lon="4.13716">
        <ele>163.8</ele>
        <time>2019-11-10T16:09:27Z</time>
      </trkpt>
      <trkpt lat="50.11685" lon="4.13701">
        <ele>163.6</ele>
        <time>2019-11-10T16:09:34Z</time>
      </trkpt>
      <trkpt lat="50.11683" lon="4.13686">
        <ele>163.2</ele>
        <time>2019-11-10T16:09:42Z</time>
      </trkpt>
      <trkpt lat="50.11681" lon="4.13672">
        <ele>162.7</ele>
        <time>2019-11-10T16:09:58Z</time>
      </trkpt>
      <trkpt lat="50.11683" lon="4.13658">
        <ele>162.6</ele>
        <time>2019-11-10T16:10:06Z</time>
      </trkpt>
      <trkpt lat="50.11686" lon="4.13643">
        <ele>162.5</ele>
        <time>2019-11-10T16:10:15Z</time>
      </trkpt>
      <trkpt lat="50.11686" lon="4.13628">
        <ele>162.4</ele>
        <time>2019-11-10T16:10:23Z</time>
      </trkpt>
      <trkpt lat="50.1169" lon="4.13615">
        <ele>162.5</ele>
        <time>2019-11-10T16:10:31Z</time>
      </trkpt>
      <trkpt lat="50.11695" lon="4.13602">
        <ele>162.7</ele>
        <time>2019-11-10T16:10:39Z</time>
      </trkpt>
      <trkpt lat="50.11705" lon="4.136">
        <ele>163.7</ele>
        <time>2019-11-10T16:10:50Z</time>
      </trkpt>
      <trkpt lat="50.11714" lon="4.13604">
        <ele>164.7</ele>
        <time>2019-11-10T16:11:00Z</time>
      </trkpt>
      <trkpt lat="50.11722" lon="4.1361">
        <ele>166.1</ele>
        <time>2019-11-10T16:11:10Z</time>
      </trkpt>
      <trkpt lat="50.11729" lon="4.13621">
        <ele>167.3</ele>
        <time>2019-11-10T16:11:24Z</time>
      </trkpt>
      <trkpt lat="50.11738" lon="4.13624">
        <ele>168.7</ele>
        <time>2019-11-10T16:11:35Z</time>
      </trkpt>
      <trkpt lat="50.11746" lon="4.13629">
        <ele>176.1</ele>
        <time>2019-11-10T16:11:45Z</time>
      </trkpt>
      <trkpt lat="50.11755" lon="4.13632">
        <ele>178.9</ele>
        <time>2019-11-10T16:11:56Z</time>
      </trkpt>
      <trkpt lat="50.11765" lon="4.13632">
        <ele>179.8</ele>
        <time>2019-11-10T16:12:07Z</time>
      </trkpt>
      <trkpt lat="50.11774" lon="4.13628">
        <ele>180.2</ele>
        <time>2019-11-10T16:12:16Z</time>
      </trkpt>
      <trkpt lat="50.11784" lon="4.13626">
        <ele>180.4</ele>
        <time>2019-11-10T16:12:25Z</time>
      </trkpt>
      <trkpt lat="50.11792" lon="4.13619">
        <ele>181.1</ele>
        <time>2019-11-10T16:12:34Z</time>
      </trkpt>
      <trkpt lat="50.118" lon="4.13613">
        <ele>182</ele>
        <time>2019-11-10T16:12:44Z</time>
      </trkpt>
      <trkpt lat="50.11807" lon="4.13602">
        <ele>182</ele>
        <time>2019-11-10T16:12:53Z</time>
      </trkpt>
      <trkpt lat="50.11816" lon="4.13597">
        <ele>182.9</ele>
        <time>2019-11-10T16:13:13Z</time>
      </trkpt>
      <trkpt lat="50.11825" lon="4.13593">
        <ele>183.4</ele>
        <time>2019-11-10T16:13:22Z</time>
      </trkpt>
      <trkpt lat="50.11835" lon="4.13589">
        <ele>184.1</ele>
        <time>2019-11-10T16:13:31Z</time>
      </trkpt>
      <trkpt lat="50.11844" lon="4.13585">
        <ele>185.1</ele>
        <time>2019-11-10T16:13:40Z</time>
      </trkpt>
      <trkpt lat="50.11853" lon="4.13582">
        <ele>186</ele>
        <time>2019-11-10T16:13:49Z</time>
      </trkpt>
      <trkpt lat="50.11862" lon="4.13585">
        <ele>186.8</ele>
        <time>2019-11-10T16:13:57Z</time>
      </trkpt>
      <trkpt lat="50.11872" lon="4.13587">
        <ele>187.8</ele>
        <time>2019-11-10T16:14:06Z</time>
      </trkpt>
      <trkpt lat="50.11881" lon="4.13589">
        <ele>188.3</ele>
        <time>2019-11-10T16:14:16Z</time>
      </trkpt>
      <trkpt lat="50.1189" lon="4.13594">
        <ele>189.3</ele>
        <time>2019-11-10T16:14:26Z</time>
      </trkpt>
      <trkpt lat="50.11899" lon="4.136">
        <ele>190.3</ele>
        <time>2019-11-10T16:14:35Z</time>
      </trkpt>
      <trkpt lat="50.11906" lon="4.1361">
        <ele>192</ele>
        <time>2019-11-10T16:14:49Z</time>
      </trkpt>
      <trkpt lat="50.11913" lon="4.13621">
        <ele>192.6</ele>
        <time>2019-11-10T16:14:56Z</time>
      </trkpt>
      <trkpt lat="50.1192" lon="4.13632">
        <ele>194.1</ele>
        <time>2019-11-10T16:15:05Z</time>
      </trkpt>
      <trkpt lat="50.11927" lon="4.1364">
        <ele>195.7</ele>
        <time>2019-11-10T16:15:17Z</time>
      </trkpt>
      <trkpt lat="50.11931" lon="4.13643">
        <ele>196.2</ele>
        <time>2019-11-10T16:15:34Z</time>
      </trkpt>
    </trkseg>
  </trk>
</gpx>